[[{"header":{"parameterUnit":"m.s-1","parameterCategory":1,"la1":30.6,"la2":29.2853,"lo1":-89.7004,"lo2":-87.6739,"dy":0.0162,"dx":0.0183,"nx":112,"ny":82,"refTime":"2025-04-13T18:00:00:Z","depth":0,"parameterNumber":2,"parameterNumberName":"U-component_of_WINDS"},"data":[0.0,0.0,0.0,0.0,0.0,0.0,0.0,0.0,0.0,0.0,0.0,0.0,0.0,0.0,0.0,0.0,0.0,0.0,0.0,0.0,0.0,0.0,0.0,0.0,0.0,0.0,0.0,0.0,0.0,0.0,0.0,0.0,0.0,0.0,0.0,0.0,0.0,0.0,0.0,0.0,0.0,0.0,0.0,0.0,0.0,0.0,0.0,0.0,0.0,0.0,0.0,0.0,0.0,0.0,0.0,0.0,0.0,0.0,0.0,0.0,0.0,0.0,0.0,0.0,0.0,0.0,0.0,0.0,0.0,0.0,0.0,0.0,0.0,0.0,0.0,0.0,0.0,0.0,0.0,0.0,0.0,0.0,0.0,0.0,0.0,0.0,0.0,0.0,0.0,0.0,0.0,-1.9648,-2.2095,-2.343,-2.3032,-2.2718,-2.149,-1.9016,0.0,0.0,0.0,0.0,0.0,0.0,0.0,0.0,0.0,0.0,0.0,0.0,0.0,0.0,0.0,0.0,0.0,0.0,0.0,0.0,0.0,0.0,0.0,0.0,0.0,0.0,0.0,0.0,0.0,0.0,0.0,0.0,0.0,0.0,0.0,0.0,0.0,0.0,0.0,0.0,0.0,0.0,0.0,0.0,0.0,0.0,0.0,0.0,0.0,0.0,0.0,0.0,0.0,0.0,0.0,0.0,0.0,0.0,0.0,0.0,0.0,0.0,0.0,0.0,0.0,0.0,0.0,0.0,0.0,0.0,0.0,0.0,0.0,0.0,0.0,0.0,0.0,0.0,0.0,0.0,0.0,0.0,0.0,0.0,0.0,0.0,0.0,0.0,0.0,0.0,0.0,0.0,0.0,0.0,0.0,0.0,0.0,0.0,0.0,0.0,0.0,0.0,0.0,0.0,-1.7125,-2.1845,-2.3112,-2.3789,-2.4276,-2.2802,-2.1186,-1.9648,0.0,0.0,0.0,0.0,0.0,0.0,0.0,0.0,0.0,0.0,0.0,0.0,0.0,0.0,0.0,0.0,0.0,0.0,0.0,0.0,0.0,0.0,0.0,0.0,0.0,0.0,0.0,0.0,0.0,0.0,0.0,0.0,0.0,0.0,0.0,0.0,0.0,0.0,0.0,0.0,0.0,0.0,0.0,0.0,0.0,0.0,0.0,0.0,0.0,0.0,0.0,0.0,0.0,0.0,0.0,0.0,0.0,0.0,0.0,0.0,0.0,0.0,0.0,0.0,0.0,0.0,0.0,0.0,0.0,0.0,0.0,0.0,0.0,0.0,0.0,0.0,0.0,0.0,0.0,0.0,0.0,0.0,0.0,0.0,0.0,0.0,0.0,0.0,0.0,0.0,0.0,0.0,0.0,0.0,0.0,0.0,0.0,0.0,0.0,0.0,0.0,0.0,0.0,-1.7337,-1.9635,-2.3407,-2.4343,-2.4649,-2.4605,-2.3146,-2.152,-1.9813,-1.7505,0.0,0.0,0.0,0.0,0.0,0.0,0.0,0.0,0.0,0.0,0.0,0.0,0.0,0.0,0.0,0.0,0.0,0.0,0.0,0.0,0.0,0.0,0.0,0.0,0.0,0.0,0.0,0.0,0.0,0.0,0.0,0.0,0.0,0.0,0.0,0.0,0.0,0.0,0.0,0.0,0.0,0.0,0.0,0.0,0.0,0.0,0.0,0.0,0.0,0.0,0.0,0.0,0.0,0.0,0.0,0.0,0.0,0.0,0.0,0.0,0.0,0.0,0.0,0.0,0.0,0.0,0.0,0.0,0.0,0.0,0.0,0.0,0.0,0.0,0.0,0.0,0.0,0.0,0.0,0.0,0.0,0.0,0.0,0.0,0.0,0.0,0.0,0.0,0.0,0.0,0.0,0.0,0.0,0.0,0.0,0.0,0.0,0.0,0.0,0.0,0.0,0.0,-2.0198,-2.2089,-2.4574,-2.5292,-2.5382,-2.4874,-2.337,-2.163,-1.9667,-1.7055,0.0,0.0,0.0,0.0,0.0,0.0,0.0,0.0,0.0,0.0,0.0,0.0,0.0,0.0,0.0,0.0,0.0,0.0,0.0,0.0,0.0,0.0,0.0,0.0,0.0,0.0,0.0,0.0,0.0,0.0,0.0,0.0,0.0,0.0,0.0,0.0,0.0,0.0,0.0,0.0,0.0,0.0,0.0,0.0,0.0,0.0,0.0,0.0,0.0,0.0,0.0,0.0,0.0,0.0,0.0,0.0,0.0,0.0,0.0,0.0,0.0,0.0,0.0,0.0,0.0,0.0,0.0,0.0,0.0,0.0,0.0,0.0,0.0,0.0,0.0,0.0,0.0,0.0,0.0,0.0,0.0,0.0,0.0,0.0,0.0,0.0,0.0,0.0,0.0,0.0,0.0,0.0,0.0,0.0,0.0,0.0,0.0,0.0,0.0,0.0,0.0,0.0,-2.0142,-2.2768,-2.5246,-2.5561,-2.5585,-2.5516,-2.3221,-2.1015,-1.9263,-1.6453,0.0,0.0,0.0,0.0,0.0,0.0,0.0,0.0,0.0,0.0,0.0,0.0,0.0,0.0,0.0,0.0,0.0,0.0,0.0,0.0,0.0,0.0,0.0,0.0,0.0,0.0,0.0,0.0,0.0,0.0,0.0,0.0,0.0,0.0,0.0,0.0,0.0,0.0,0.0,0.0,0.0,0.0,0.0,0.0,0.0,0.0,0.0,0.0,0.0,0.0,0.0,0.0,0.0,0.0,0.0,0.0,0.0,0.0,0.0,0.0,0.0,0.0,0.0,0.0,0.0,0.0,0.0,0.0,0.0,0.0,0.0,0.0,0.0,0.0,0.0,0.0,0.0,0.0,0.0,0.0,0.0,0.0,0.0,0.0,0.0,0.0,0.0,0.0,0.0,0.0,0.0,0.0,0.0,0.0,0.0,0.0,0.0,0.0,0.0,0.0,0.0,0.0,-2.0936,-2.3637,0.0,-2.6348,-2.6497,-2.5674,-2.3939,-2.1903,-1.9623,0.0,0.0,0.0,0.0,0.0,0.0,0.0,0.0,0.0,0.0,0.0,0.0,0.0,0.0,0.0,0.0,0.0,0.0,0.0,0.0,0.0,0.0,0.0,0.0,0.0,0.0,0.0,0.0,0.0,0.0,0.0,0.0,0.0,0.0,0.0,0.0,0.0,0.0,0.0,0.0,0.0,0.0,0.0,0.0,0.0,0.0,0.0,0.0,0.0,0.0,0.0,0.0,0.0,0.0,0.0,0.0,0.0,0.0,0.0,0.0,0.0,0.0,0.0,0.0,0.0,0.0,0.0,0.0,0.0,0.0,0.0,0.0,0.0,0.0,0.0,0.0,0.0,0.0,0.0,0.0,0.0,0.0,0.0,0.0,0.0,0.0,0.0,0.0,0.0,0.0,0.0,0.0,0.0,0.0,0.0,0.0,0.0,0.0,0.0,0.0,0.0,0.0,-1.841,-2.1752,-2.4433,0.0,-2.6941,-2.7061,-2.5719,-2.4193,-2.2237,-1.9675,0.0,0.0,0.0,0.0,0.0,0.0,0.0,0.0,0.0,0.0,0.0,0.0,0.0,0.0,0.0,0.0,0.0,0.0,0.0,0.0,0.0,0.0,0.0,0.0,0.0,0.0,0.0,0.0,0.0,0.0,0.0,0.0,0.0,0.0,0.0,0.0,0.0,0.0,0.0,0.0,0.0,0.0,0.0,0.0,0.0,0.0,0.0,0.0,0.0,0.0,0.0,0.0,0.0,0.0,0.0,0.0,0.0,0.0,0.0,0.0,0.0,0.0,0.0,0.0,0.0,0.0,0.0,0.0,0.0,0.0,0.0,0.0,0.0,0.0,0.0,0.0,0.0,0.0,0.0,0.0,0.0,0.0,0.0,0.0,0.0,0.0,0.0,0.0,0.0,0.0,0.0,0.0,0.0,0.0,0.0,0.0,0.0,0.0,0.0,0.0,0.0,0.0,-1.9103,-2.2461,-2.5113,-2.6452,-2.721,-2.7061,-2.5719,-2.3804,-2.1689,0.0,0.0,0.0,0.0,0.0,0.0,0.0,0.0,0.0,0.0,0.0,0.0,0.0,0.0,0.0,0.0,0.0,0.0,0.0,0.0,0.0,0.0,0.0,0.0,0.0,0.0,0.0,0.0,0.0,0.0,0.0,0.0,0.0,0.0,0.0,0.0,0.0,0.0,0.0,0.0,0.0,0.0,0.0,0.0,0.0,0.0,0.0,0.0,0.0,0.0,0.0,0.0,0.0,0.0,0.0,0.0,0.0,0.0,0.0,0.0,0.0,0.0,0.0,0.0,0.0,0.0,0.0,0.0,0.0,0.0,0.0,0.0,0.0,0.0,0.0,0.0,0.0,0.0,0.0,0.0,0.0,0.0,0.0,0.0,0.0,0.0,0.0,0.0,0.0,0.0,0.0,0.0,0.0,0.0,0.0,0.0,0.0,0.0,0.0,0.0,0.0,0.0,0.0,-1.916,-2.2856,-2.5644,-2.6497,-2.721,-2.7061,-2.5719,-2.4208,-2.2237,-1.9675,0.0,0.0,0.0,0.0,0.0,0.0,0.0,0.0,0.0,0.0,0.0,0.0,0.0,0.0,0.0,0.0,0.0,0.0,0.0,0.0,0.0,0.0,0.0,0.0,0.0,0.0,0.0,0.0,0.0,0.0,0.0,0.0,0.0,0.0,0.0,0.0,0.0,0.0,0.0,0.0,0.0,0.0,0.0,0.0,0.0,0.0,0.0,0.0,0.0,0.0,0.0,0.0,0.0,0.0,0.0,0.0,0.0,0.0,0.0,0.0,0.0,0.0,0.0,0.0,0.0,0.0,0.0,0.0,0.0,0.0,0.0,0.0,0.0,0.0,0.0,0.0,0.0,0.0,0.0,0.0,0.0,0.0,0.0,0.0,0.0,0.0,0.0,0.0,0.0,0.0,0.0,0.0,0.0,0.0,0.0,0.0,0.0,0.0,0.0,0.0,0.0,0.0,-1.9816,-2.334,-2.5959,-2.6911,-2.736,-2.7061,-2.5719,-2.4627,-2.2892,-2.0258,0.0,0.0,0.0,0.0,0.0,0.0,0.0,0.0,0.0,0.0,0.0,0.0,0.0,0.0,0.0,0.0,0.0,0.0,0.0,0.0,0.0,0.0,0.0,0.0,0.0,0.0,0.0,0.0,0.0,0.0,0.0,0.0,0.0,0.0,0.0,0.0,0.0,0.0,0.0,0.0,0.0,0.0,0.0,0.0,0.0,0.0,0.0,0.0,0.0,0.0,0.0,0.0,0.0,0.0,0.0,0.0,0.0,0.0,0.0,0.0,0.0,0.0,0.0,0.0,0.0,0.0,0.0,0.0,0.0,0.0,0.0,0.0,0.0,0.0,0.0,0.0,0.0,0.0,0.0,0.0,0.0,0.0,0.0,0.0,0.0,0.0,0.0,0.0,0.0,0.0,0.0,0.0,0.0,0.0,0.0,0.0,0.0,0.0,0.0,0.0,0.0,0.0,-2.0809,-2.3785,-2.6108,-2.7465,-2.76,-2.7091,-2.5809,-2.5023,-2.3513,-2.0942,0.0,0.0,0.0,0.0,0.0,0.0,0.0,0.0,0.0,0.0,0.0,0.0,0.0,0.0,0.0,0.0,0.0,0.0,0.0,0.0,0.0,0.0,0.0,0.0,0.0,0.0,0.0,0.0,0.0,0.0,0.0,0.0,0.0,0.0,0.0,0.0,0.0,0.0,0.0,0.0,0.0,0.0,0.0,0.0,0.0,0.0,0.0,0.0,0.0,0.0,0.0,0.0,0.0,0.0,0.0,0.0,0.0,0.0,0.0,0.0,-1.9388,0.0,0.0,0.0,0.0,0.0,0.0,0.0,0.0,0.0,0.0,0.0,0.0,0.0,0.0,0.0,0.0,0.0,0.0,0.0,0.0,0.0,0.0,0.0,0.0,0.0,0.0,0.0,0.0,0.0,0.0,0.0,0.0,0.0,0.0,0.0,0.0,0.0,0.0,0.0,0.0,0.0,-2.0867,-2.3785,-2.6108,-2.7465,-2.76,-2.727,-2.6452,-2.5277,-2.3708,-2.162,-1.8723,0.0,0.0,0.0,0.0,0.0,0.0,0.0,0.0,0.0,0.0,0.0,0.0,0.0,0.0,0.0,0.0,0.0,0.0,0.0,0.0,0.0,0.0,0.0,0.0,0.0,0.0,0.0,0.0,0.0,0.0,0.0,0.0,0.0,0.0,0.0,0.0,0.0,0.0,0.0,0.0,0.0,0.0,0.0,0.0,0.0,0.0,0.0,0.0,0.0,0.0,0.0,0.0,0.0,0.0,0.0,0.0,0.0,0.0,0.0,0.0,-2.1246,0.0,0.0,0.0,0.0,0.0,0.0,0.0,0.0,0.0,0.0,0.0,0.0,0.0,0.0,0.0,0.0,0.0,0.0,0.0,0.0,0.0,0.0,0.0,0.0,0.0,0.0,0.0,0.0,0.0,0.0,0.0,0.0,0.0,0.0,0.0,0.0,0.0,0.0,0.0,0.0,-2.162,-2.4105,-2.6108,-2.7465,-2.76,-2.733,-2.6647,-2.5674,-2.4365,-2.2712,-2.0009,0.0,0.0,0.0,0.0,0.0,0.0,0.0,0.0,0.0,0.0,0.0,0.0,0.0,0.0,0.0,0.0,0.0,0.0,0.0,0.0,0.0,0.0,0.0,0.0,0.0,0.0,0.0,0.0,0.0,0.0,0.0,0.0,0.0,0.0,0.0,0.0,0.0,0.0,0.0,0.0,0.0,0.0,0.0,0.0,0.0,0.0,0.0,0.0,0.0,0.0,0.0,0.0,0.0,-2.7081,-2.7739,-2.8289,-2.8289,-2.8637,-2.9131,-2.6348,-2.5151,-2.5023,0.0,0.0,0.0,0.0,0.0,0.0,0.0,0.0,0.0,0.0,0.0,0.0,0.0,0.0,0.0,0.0,0.0,0.0,0.0,0.0,0.0,0.0,0.0,0.0,0.0,-2.4208,-2.352,0.0,0.0,0.0,0.0,0.0,0.0,0.0,0.0,0.0,0.0,0.0,0.0,-2.2613,-2.4642,-2.6243,-2.7465,-2.76,-2.7375,-2.6811,-2.6048,-2.5091,-2.3849,-2.1425,-1.945,0.0,0.0,0.0,0.0,0.0,0.0,0.0,0.0,0.0,0.0,0.0,0.0,0.0,0.0,0.0,0.0,0.0,0.0,0.0,0.0,0.0,0.0,0.0,0.0,0.0,0.0,0.0,0.0,0.0,0.0,0.0,0.0,-1.7856,-1.9512,0.0,0.0,0.0,0.0,0.0,0.0,0.0,0.0,0.0,0.0,0.0,0.0,0.0,-2.6275,-2.6102,-2.7914,-2.8918,-2.9097,-3.027,-3.0898,-3.0987,-3.0987,-3.1346,-3.1973,-3.1524,0.0,-2.7151,-2.6402,0.0,0.0,0.0,0.0,0.0,0.0,0.0,0.0,0.0,0.0,0.0,0.0,0.0,0.0,0.0,0.0,0.0,0.0,0.0,0.0,0.0,0.0,-2.5884,-2.6138,-2.6656,-2.6791,0.0,-2.3385,-2.0976,-1.9483,-1.8313,0.0,0.0,0.0,0.0,0.0,0.0,0.0,-2.3322,-2.5307,-2.6752,-2.7525,-2.76,-2.7555,-2.748,-2.6318,-2.5277,-2.4515,-2.2562,-2.0827,-1.948,-1.8057,0.0,0.0,0.0,0.0,0.0,0.0,0.0,0.0,0.0,0.0,0.0,0.0,0.0,0.0,0.0,0.0,0.0,0.0,0.0,0.0,0.0,0.0,0.0,0.0,0.0,0.0,0.0,0.0,0.0,-1.8839,-2.0889,-2.0703,-2.1414,-2.147,0.0,0.0,0.0,0.0,0.0,0.0,0.0,0.0,0.0,-2.7524,-2.8196,-2.8981,-2.9909,-3.0791,-3.1599,-3.2362,-3.2916,-3.3395,-3.3769,-3.3769,-3.3918,-3.4203,-3.4203,-3.3155,-3.1344,-2.952,-2.7844,-2.6303,0.0,0.0,0.0,0.0,-2.5039,-2.4702,-2.6467,-2.6602,0.0,-2.6004,0.0,0.0,0.0,0.0,0.0,0.0,0.0,0.0,0.0,0.0,0.0,-2.8124,-2.8513,-2.8648,-2.8364,-2.6856,-2.4852,0.0,-2.172,-2.0897,-1.8745,0.0,0.0,0.0,0.0,0.0,-2.4484,-2.5845,-2.6866,-2.7525,-2.76,-2.76,-2.76,-2.6731,-2.5884,-2.5187,-2.367,-2.2173,-2.0891,-1.954,-1.8074,0.0,0.0,0.0,0.0,0.0,0.0,0.0,0.0,0.0,0.0,0.0,0.0,0.0,0.0,0.0,0.0,0.0,0.0,0.0,0.0,0.0,0.0,0.0,0.0,0.0,0.0,0.0,0.0,-2.1278,-2.2987,-2.1884,-2.3238,-2.3479,0.0,0.0,0.0,0.0,0.0,0.0,-2.7525,-2.8038,-2.9063,-3.0742,-3.0822,-3.1539,-3.3006,-3.3185,-3.3858,-3.5013,-3.4848,-3.5175,-3.5983,-3.5833,-3.5848,-3.5983,-3.5818,-3.5459,-3.4833,-3.2302,-3.0507,-2.9235,-2.8053,-2.72,-2.6767,-2.7929,-2.8034,-2.7889,-3.0028,-3.0148,-2.9385,-2.9549,0.0,-2.6617,-2.5285,0.0,0.0,0.0,0.0,-2.7171,-2.8513,-2.8858,-2.9157,-3.0325,-3.061,-3.0537,-3.0372,-2.9819,-2.8457,0.0,-2.5016,-2.4276,-2.165,0.0,0.0,0.0,0.0,-2.3722,-2.5851,-2.6841,-2.7495,-2.7824,-2.7869,-2.7794,-2.76,-2.7001,-2.6303,-2.5644,-2.4507,-2.3281,-2.1994,-2.0827,-1.957,-1.8237,0.0,0.0,0.0,0.0,0.0,0.0,0.0,0.0,0.0,0.0,0.0,0.0,0.0,0.0,0.0,0.0,0.0,0.0,0.0,0.0,0.0,0.0,0.0,0.0,0.0,0.0,0.0,0.0,0.0,-2.3291,-2.5203,0.0,0.0,0.0,0.0,-2.6127,-2.7942,-2.9179,-2.9455,-3.061,-3.1614,-3.2362,-3.3605,-3.4309,-3.4414,-3.5026,-3.5699,-3.6372,-3.5744,-3.6103,-3.73,-3.6701,-3.6761,-3.7285,-3.6686,-3.6417,-3.6222,-3.4188,-3.2572,-3.1286,-3.0597,-2.9924,-2.9487,-3.0118,-3.0328,-3.0417,-3.1182,-3.1406,-3.1466,-3.2093,-3.1375,-3.0013,-2.8742,-2.8353,0.0,0.0,-2.9265,-3.0567,-3.1913,-3.2258,-3.2437,-3.314,-3.329,-3.3125,-3.2497,-3.1824,-3.0763,0.0,-2.735,-2.6243,-2.545,0.0,-2.3783,-2.4328,-2.5085,-2.6059,-2.7355,-2.8648,-2.9232,-2.8607,-2.8547,-2.8278,-2.7645,-2.7001,-2.6303,-2.5644,-2.4933,-2.3977,-2.2703,-2.1964,-2.0961,-1.9633,-1.7027,0.0,0.0,0.0,0.0,0.0,0.0,0.0,0.0,0.0,0.0,0.0,0.0,0.0,0.0,0.0,0.0,0.0,0.0,0.0,0.0,0.0,0.0,0.0,0.0,0.0,0.0,0.0,0.0,-2.7013,-2.8959,0.0,0.0,-2.9174,-2.9905,-2.9897,-3.0732,-3.1707,-3.2821,-3.323,-3.3933,-3.504,-3.5519,-3.5953,-3.6357,-3.6611,-3.6851,-3.7075,-3.6851,-3.6971,-3.7404,-3.718,-3.721,-3.7404,-3.718,-3.7075,-3.6985,-3.5878,-3.4637,-3.341,-3.3155,-3.2677,-3.2183,-3.2826,-3.3051,-3.3155,-3.3844,-3.3799,-3.332,-3.2706,-3.2198,-3.1629,-3.0718,-3.0763,-3.112,-3.112,-3.1749,-3.2542,-3.3021,-3.314,-3.32,-3.344,-3.3499,-3.3425,-3.32,-3.2632,-3.1929,-3.1255,-2.9699,-2.8173,-2.7091,-2.6887,-2.6822,-2.6563,-2.7125,-2.7917,-2.8786,-2.9307,-2.9352,-2.8667,-2.8607,-2.8323,-2.766,-2.7001,-2.6303,-2.5644,-2.4963,-2.3827,-2.2113,-2.1814,-2.1085,-1.9738,-1.7939,-1.607,0.0,0.0,0.0,0.0,0.0,0.0,0.0,0.0,0.0,0.0,0.0,0.0,0.0,0.0,0.0,0.0,0.0,0.0,0.0,0.0,0.0,0.0,0.0,0.0,0.0,0.0,-2.9738,-2.9738,-3.1921,-3.2816,-3.1314,-3.2282,-3.308,-3.321,-3.3566,-3.4247,-3.5281,-3.5229,-3.5597,-3.6462,-3.6686,-3.7,-3.7404,-3.7404,-3.7524,-3.7734,-3.7524,-3.7644,-3.8078,-3.7838,-3.7868,-3.8078,-3.7838,-3.7749,-3.7689,-3.706,-3.6267,-3.5429,-3.5028,-3.4562,-3.4233,-3.4666,-3.4848,-3.4891,-3.5355,-3.5205,-3.4681,-3.3799,-3.3514,-3.3395,-3.2736,-3.2991,-3.3469,-3.3245,-3.3664,-3.4173,-3.4173,-3.4173,-3.4173,-3.4173,-3.4173,-3.4113,-3.3873,-3.3484,-3.3036,-3.2602,-3.1285,-2.9879,-2.8783,-2.8951,-2.9011,-2.8378,-2.8816,-2.94,-2.9834,-3.0103,-2.9983,-2.931,-2.9056,-2.8678,-2.8004,-2.7136,-2.6303,-2.5644,-2.4754,-2.3588,-2.2104,-2.1605,-2.0946,-2.0049,-1.8491,-1.6707,-1.4659,0.0,0.0,0.0,0.0,0.0,0.0,0.0,0.0,0.0,0.0,0.0,0.0,0.0,0.0,0.0,0.0,0.0,0.0,0.0,0.0,0.0,0.0,0.0,-2.6826,-2.9414,-3.1326,-3.1393,-3.3964,-3.4908,-3.2933,-3.5237,-3.661,-3.5991,-3.6442,-3.6701,-3.6661,-3.6578,-3.6522,-3.6552,-3.712,-3.7449,-3.7464,-3.7464,-3.7793,-3.8407,-3.7778,-3.8153,-3.9394,-3.8721,-3.8796,-3.9343,-3.8706,-3.8422,-3.8377,-3.7719,-3.7434,-3.7315,-3.6058,-3.5549,-3.5534,-3.5534,-3.5519,-3.5504,-3.5504,-3.5504,-3.5504,-3.5504,-3.5504,-3.5385,-3.4711,-3.4981,-3.537,-3.4728,-3.4996,-3.5504,-3.5504,-3.5504,-3.5504,-3.5504,-3.5504,-3.5325,-3.4683,-3.4518,-3.4129,-3.2826,-3.1989,-3.1316,-3.0657,-3.0537,-3.0328,-2.9756,-3.0163,0.0,-3.0537,-3.1092,-3.1241,-3.0567,-2.9953,-2.9337,-2.8667,-2.735,-2.6273,-2.5615,-2.4313,-2.3295,-2.2688,-2.1395,-2.0688,-2.0658,-1.8715,-1.6931,-1.5433,0.0,0.0,0.0,0.0,0.0,0.0,0.0,0.0,0.0,0.0,0.0,0.0,0.0,0.0,0.0,0.0,0.0,0.0,0.0,0.0,0.0,0.0,-2.9956,-2.9956,-3.2053,-3.4201,-3.5859,-3.7246,-3.806,-3.7999,-3.8212,-3.8474,-3.8888,-3.7953,-3.7603,-3.8155,-3.7525,-3.7375,-3.7853,-3.8033,-3.8362,-3.8871,-3.8871,-3.896,-3.9125,-3.8945,-3.9029,-3.9373,-3.923,-3.9245,-3.9373,-3.9215,-3.914,-3.908,-3.8392,-3.8123,-3.8033,-3.721,-3.6611,-3.6222,-3.6222,-3.5908,-3.5504,-3.5504,-3.5504,-3.5504,-3.5504,-3.5504,-3.5474,-3.528,-3.5355,-3.5474,-3.528,-3.5355,-3.5504,-3.5504,-3.5504,-3.5504,-3.5504,-3.5504,-3.5444,-3.5265,-3.4831,-3.4399,-3.4008,-3.3021,-3.2004,-3.1331,-3.1227,-3.1167,-3.0987,-3.1122,0.0,-3.1227,-3.1391,-3.1241,-3.0567,-2.9953,-2.9337,-2.8667,-2.6931,-2.56,-2.4918,-2.3655,-2.2658,-2.1994,-2.1156,-2.0483,-1.9974,-1.8288,-1.699,0.0,0.0,0.0,0.0,0.0,0.0,0.0,0.0,0.0,0.0,0.0,0.0,0.0,0.0,0.0,0.0,0.0,0.0,0.0,0.0,0.0,0.0,-3.0548,-3.2916,-3.3863,-3.5115,-3.6535,-3.8176,-3.9005,-3.9639,-4.0062,-3.9947,-4.0053,-4.0519,-3.9331,-3.8761,-3.9233,-3.833,-3.8003,-3.8377,-3.8676,-3.902,-3.9388,-3.9388,-3.9388,-3.9388,-3.9388,-3.9388,-3.9388,-3.9388,-3.9388,0.0,-3.9388,-3.9388,-3.9394,-3.899,-3.8826,0.0,0.0,0.0,0.0,0.0,-3.6073,-3.5504,-3.5504,-3.5504,-3.5504,-3.5504,-3.5504,-3.5504,-3.5504,-3.5504,-3.5504,-3.5504,-3.5504,-3.5504,-3.5504,-3.5504,-3.5504,-3.5504,-3.5504,-3.5504,-3.5504,-3.519,-3.4848,-3.4563,-3.3634,0.0,-3.2034,-3.169,-3.1511,-3.1511,-3.1511,-3.1511,-3.1511,-3.1511,-3.1346,-3.0943,-3.0118,-2.9457,-2.9041,-2.7171,0.0,0.0,0.0,-2.2553,-2.1335,-2.0897,0.0,0.0,0.0,0.0,0.0,0.0,0.0,0.0,-1.588,-1.5478,0.0,0.0,0.0,0.0,0.0,0.0,0.0,0.0,0.0,0.0,0.0,0.0,0.0,0.0,0.0,0.0,-3.3372,-3.5622,-3.7736,-3.8108,-3.8396,-3.9039,-3.9706,-4.013,-4.0231,-4.0815,-4.1238,-4.1322,-4.0516,-3.9998,-3.9998,0.0,0.0,0.0,0.0,-3.9388,-3.9388,-3.9448,-3.9493,-3.9493,-3.9493,-3.9493,-3.9493,-3.9418,-3.9388,-3.9388,-3.9388,-3.9388,-3.9388,-3.9388,-3.9388,-3.9254,-3.8018,-3.7524,-3.7434,-3.6746,-3.6118,-3.5609,-3.5534,0.0,0.0,-3.5504,-3.5504,-3.5504,-3.5504,-3.5504,-3.5504,-3.5504,-3.5504,-3.5504,-3.5504,-3.5504,-3.5504,-3.5504,-3.5504,-3.5504,-3.5504,-3.5504,-3.5325,-3.4711,-3.4053,-3.3395,-3.2736,-3.1989,-3.1511,-3.1511,-3.1511,-3.1511,-3.1511,-3.1511,-3.1511,-3.1511,0.0,0.0,-2.9621,-2.7839,-2.6393,-2.5659,-2.4343,-2.2802,-2.1006,-2.0932,-2.0882,-2.0808,-2.0808,-2.1111,-2.1695,-2.1695,-2.1695,-2.162,-1.7809,-1.7115,0.0,0.0,0.0,0.0,0.0,0.0,0.0,0.0,0.0,0.0,0.0,0.0,0.0,0.0,0.0,-3.2696,-3.5385,-3.7601,-3.8633,-3.9317,-3.974,-3.9876,-4.0011,-4.0333,-4.0933,-4.1119,-4.1457,-4.2033,-4.1239,-4.0703,-4.0703,-3.9757,0.0,-3.923,-3.9313,-3.9388,-3.9388,-3.9948,-4.0217,-4.0217,0.0,0.0,-4.0187,-3.9664,-3.9388,-3.9388,-3.9388,-3.9388,-3.9388,-3.9388,-3.9388,-3.9298,-3.8512,-3.8197,-3.8063,-3.6911,-3.6402,-3.6222,-3.5684,-3.5504,-3.5504,-3.5504,-3.5504,-3.5504,-3.5504,-3.5504,0.0,-3.5504,-3.5504,-3.5504,-3.5504,-3.5504,-3.5504,-3.5504,-3.5504,-3.5504,-3.5504,-3.5504,-3.5474,-3.5325,-3.4756,-3.4099,-3.3425,-3.2288,-3.1511,-3.1511,-3.1511,-3.1511,-3.1511,-3.1511,-3.1511,-3.1511,-3.0806,-3.0118,-2.9651,-2.8259,-2.6896,-2.5689,-2.4343,-2.3206,-2.2358,-2.2313,-2.2074,-2.1515,-2.1515,-2.1575,-2.1695,-2.1695,-2.1695,-2.168,-2.0844,-2.0695,0.0,0.0,0.0,0.0,0.0,0.0,0.0,0.0,0.0,0.0,0.0,-2.8297,0.0,0.0,-3.3914,-3.5419,-3.7229,-3.87,-3.9453,-3.9876,-4.0096,-4.0096,-4.0434,-4.0798,-4.117,-4.188,-4.2455,-4.2828,-4.2393,-4.2095,-4.2095,-4.1206,-4.0516,-4.0045,-4.0824,-4.1044,-4.0599,-4.1254,-4.1589,-4.1605,-4.1121,-4.0891,-4.0876,-4.0217,-3.9903,-3.9888,-3.9574,-3.9388,-3.9388,-3.9388,-3.9388,-3.9394,-3.9035,-3.8691,-3.8317,-3.7674,-3.703,-3.6432,-3.6118,-3.5774,-3.5504,-3.5504,-3.5504,-3.5504,-3.5504,-3.5504,-3.5504,-3.5504,-3.5504,-3.5504,-3.5504,-3.5504,-3.5504,-3.5504,-3.5504,-3.5504,-3.5504,-3.5504,-3.5504,-3.5504,-3.4951,-3.4294,-3.3604,-3.2677,-3.1884,-3.1555,-3.1511,-3.1511,-3.1511,-3.1511,-3.1511,-3.1511,-3.0883,-3.0253,-2.9666,-2.8064,-2.6821,-2.6138,-2.5166,-2.4328,-2.3684,-2.3655,-2.334,-2.2652,-2.2652,-2.2652,-2.2652,-2.2996,-2.314,-2.3155,-2.3505,-2.3131,0.0,0.0,0.0,0.0,0.0,0.0,0.0,0.0,-2.6437,-2.8653,-3.0089,-3.141,-3.2903,-3.4742,-3.6495,-3.7889,-3.8717,-3.9436,-4.0028,-4.0096,-4.0096,-4.0096,-4.0747,-4.1271,-4.1407,-4.2625,-4.3443,-4.3639,-4.3435,-4.3306,-4.3306,-4.2489,-4.1722,-4.1167,-4.2422,-4.282,-4.2282,-4.2758,-4.2993,-4.2957,-4.2046,-4.1564,-4.1587,-4.0891,-4.0516,-4.0367,-3.9709,-3.9388,-3.9388,-3.9388,-3.9388,-3.9388,-3.9388,-3.908,-3.8571,-3.8437,-3.7659,-3.6656,-3.6537,-3.6058,-3.5504,-3.5504,-3.5504,-3.5504,-3.5504,-3.5504,-3.5504,-3.5504,-3.5504,-3.5504,-3.5504,-3.5504,-3.5504,-3.5504,-3.5504,-3.5504,-3.5504,-3.5504,-3.5504,-3.5504,-3.5055,-3.4427,-3.3634,-3.3051,-3.2407,-3.163,-3.1511,-3.1511,-3.1511,-3.1511,-3.1511,-3.1511,-3.1002,-3.0402,-2.9666,-2.7993,-2.6916,-2.6806,-2.6168,-2.5555,-2.5008,-2.4859,-2.453,-2.3999,-2.3984,-2.3984,-2.3984,-2.453,-2.4799,-2.4814,-2.5337,-2.4762,-2.4605,-2.3808,0.0,-2.4831,-2.5727,-2.7199,0.0,0.0,-3.1072,-3.3288,-3.388,-3.4493,-3.6017,-3.7026,-3.7922,-3.8734,-3.9503,-4.0011,-4.0096,-4.0096,-4.0096,-4.0096,-4.0747,-4.1457,-4.21,-4.2929,-4.3707,-4.4401,-4.3735,-4.3306,-4.3306,-4.2489,-4.2253,-4.2812,-4.3006,-4.3358,-4.3932,-4.378,-4.3707,-4.3671,-4.2743,-4.2291,-4.2276,-4.1564,-4.095,-4.0367,-3.9709,-3.9388,-3.9388,-3.9388,-3.9388,-3.9388,-3.9388,-3.9328,-3.923,-3.8616,-3.7928,-3.7225,-3.6686,-3.6058,-3.5504,-3.5504,-3.5504,-3.5504,-3.5504,-3.5504,-3.5504,-3.5504,-3.5504,-3.5504,-3.5504,-3.5504,-3.5504,-3.5504,-3.5504,-3.5504,-3.5504,-3.5504,-3.5504,-3.5504,-3.5444,-3.4996,-3.3709,-3.344,-3.2961,-3.169,-3.1511,-3.1511,-3.1511,-3.1511,-3.1511,-3.1511,-3.1436,-3.0898,-2.9711,-2.8846,-2.8113,-2.7525,-2.6866,-2.6437,-2.6378,-2.5809,-2.5442,-2.539,-2.539,-2.539,-2.539,-2.5442,-2.5495,-2.5495,-2.557,-2.5495,-2.7512,0.0,0.0,0.0,-2.9093,-3.0903,-3.2039,-3.2733,-3.3626,-3.5475,-3.618,-3.6806,-3.7872,-3.8667,-3.9276,0.0,-3.991,-4.0096,-4.0096,-4.0096,-4.0096,-4.0096,-4.0747,-4.1491,-4.2219,-4.298,-4.3741,-4.4547,-4.4253,-4.4064,-4.4064,-4.4125,-4.4047,-4.3875,-4.5167,-4.5792,-4.5604,-4.5869,-4.5741,-4.5191,-4.4251,-4.3479,-4.2895,-4.2252,-4.1422,-4.0382,-4.0113,-3.9768,-3.9388,-3.9388,-3.9388,-3.9388,-3.9388,-3.9388,-3.9394,-3.9095,-3.8556,-3.7943,-3.7689,-3.6926,-3.6073,-3.6073,-3.5818,-3.5504,-3.5504,-3.5504,-3.5504,-3.5504,-3.5504,-3.5504,-3.5504,-3.5504,-3.5504,-3.5504,-3.5504,-3.5504,-3.5504,-3.5504,-3.5504,-3.5504,-3.5504,-3.507,-3.3724,-3.3499,-3.3051,-3.1705,-3.1511,-3.1511,-3.1511,-3.1511,-3.1511,-3.1511,-3.1152,-3.0567,-2.9696,-2.8981,-2.8308,-2.7645,-2.7345,-2.718,-2.718,-2.6926,-2.6572,-2.6183,-2.6183,-2.5989,-2.5615,-2.5989,-2.6183,-2.6183,-2.6572,-2.6752,-2.9121,0.0,0.0,-2.9941,-3.1968,-3.3931,-3.3613,-3.4506,-3.5808,-3.7134,-3.7821,-3.8478,-3.9384,-3.9865,0.0,-4.0286,-4.0204,-4.0096,-4.0096,-4.0096,-4.0096,-4.0096,-4.0561,-4.1187,-4.1914,-4.2861,-4.3741,-4.4547,-4.4615,-4.4699,-4.4874,-4.5415,-4.5593,-4.5388,-4.7009,-4.7695,-4.7266,-4.7506,-4.7273,-4.6558,-4.5634,-4.4818,-4.4059,-4.319,-4.2017,-4.0666,-4.0472,-4.0023,-3.9388,-3.9388,-3.9388,-3.9388,-3.9388,-3.9388,-3.9388,-3.9388,-3.899,-3.8392,-3.8392,-3.7659,-3.6716,-3.6537,-3.6163,-3.5744,-3.5564,-3.5504,-3.5504,-3.5504,-3.5504,-3.5504,-3.5504,-3.5504,-3.5504,-3.5504,-3.5504,-3.5504,-3.5504,-3.5504,-3.5504,-3.5504,-3.5504,-3.513,-3.3963,-3.3619,-3.311,-3.1944,-3.1615,-3.1511,-3.1511,-3.1511,-3.1511,-3.1511,-3.1062,-3.0522,-2.9894,-2.925,-2.8577,-2.7929,-2.7705,-2.76,-2.76,-2.76,-2.7375,-2.6896,-2.6881,-2.6632,-2.6153,-2.6632,-2.6881,-2.6896,-2.7375,-2.76,0.0,0.0,-3.0446,-3.1853,-3.388,-3.5718,-3.6508,-3.7246,-3.8024,-3.8768,-3.8937,-3.9353,-4.07,-4.0466,-4.0262,-4.0803,-4.0424,-4.0096,-4.0096,-4.0096,-4.0096,-4.0096,-4.013,-4.0434,0.0,-4.253,-4.3741,-4.4547,-4.4615,-4.4891,-4.5635,-4.5703,-4.6333,-4.774,-4.7872,-4.8227,-4.892,-4.8031,-4.7589,-4.7556,-4.6609,-4.6138,-4.6051,-4.4476,-4.2888,-4.1309,-4.0681,-4.0023,-3.9388,-3.9388,-3.9388,-3.9388,-3.9388,-3.9388,-3.9388,-3.9388,-3.899,-3.8392,-3.8392,-3.7943,-3.7285,-3.6686,-3.6477,-3.6342,-3.5699,-3.5504,-3.5504,-3.5504,-3.5504,-3.5504,-3.5504,-3.5504,-3.5504,-3.5504,-3.5504,-3.5504,-3.5504,-3.5504,-3.5504,-3.5504,-3.5504,-3.528,-3.4593,-3.3918,-3.326,-3.2557,-3.1914,-3.1511,-3.1511,-3.1511,-3.1511,-3.1511,-3.1481,-3.1197,-3.0537,-2.9909,-2.9265,-2.8607,-2.7959,-2.76,-2.76,-2.76,-2.7585,-2.757,-2.757,-2.7555,-2.754,-2.7555,-2.757,-2.757,-2.7585,-2.76,0.0,0.0,-3.3372,-3.4917,-3.6569,-3.7922,-3.8193,-3.8843,-3.9276,-3.9039,-3.8988,-3.8994,-3.8938,-3.9459,-3.9838,-3.9658,-4.0196,-4.0521,-4.0146,-4.0096,-4.0096,-4.0096,-4.0096,0.0,0.0,0.0,0.0,-4.3758,-4.4282,-4.4936,-4.5669,-4.616,-4.6887,-4.7855,-4.8392,-4.8748,-4.9001,-4.8688,-4.8225,-4.7589,-4.6643,-4.5869,-4.5248,-4.4697,-4.3332,-4.1407,-4.1145,-4.0427,-3.9388,-3.9388,-3.9388,-3.9388,-3.9388,-3.9388,-3.9388,-3.9388,-3.9275,-3.9065,-3.9065,-3.8631,-3.7958,-3.7315,-3.6821,-3.6357,-3.5699,-3.5504,-3.5504,-3.5504,-3.5504,-3.5504,-3.5504,-3.5504,-3.5504,-3.5504,-3.5504,-3.5504,-3.5504,-3.5504,-3.5504,-3.5504,-3.5504,-3.5295,-3.4623,-3.4324,-3.3769,-3.2677,-3.1929,-3.1511,-3.1511,-3.1511,-3.1511,-3.1511,-3.1511,-3.1227,-3.0567,-2.9939,-2.9295,-2.8637,-2.7974,-2.76,-2.76,-2.76,-2.76,-2.76,-2.76,-2.76,-2.76,-2.76,-2.76,-2.76,-2.76,-2.76,0.0,-3.4283,-3.5695,-3.7218,-3.8505,-3.9402,-3.9402,-3.9571,-3.9621,-3.9306,-3.8802,-3.8499,-3.8693,-3.8633,-3.877,-3.9474,-3.972,-3.9898,-4.0061,-4.0096,-4.0197,-4.0468,-4.0476,0.0,0.0,0.0,0.0,-4.3358,-4.4384,-4.5297,-4.6058,-4.6786,-4.753,-4.8291,-4.8765,-4.9001,-4.9001,-4.9001,-4.8688,-4.808,-4.7489,-4.6712,-4.5814,-4.5814,-4.4388,-4.1886,-4.1886,-4.0939,-3.9388,-3.9388,-3.9388,-3.9388,-3.9388,-3.9388,-3.9388,-3.9388,-3.9388,-3.9388,-3.9388,-3.9125,-3.8616,-3.7704,-3.715,-3.6656,-3.5774,-3.5504,-3.5504,-3.5504,-3.5504,-3.5504,-3.5504,-3.5504,-3.5504,-3.5504,-3.5504,-3.5504,-3.5504,-3.5504,-3.5504,-3.5504,-3.5504,-3.537,-3.4921,-3.4668,-3.4023,-3.2706,-3.2123,-3.1765,-3.1525,-3.1511,-3.1511,-3.1511,-3.1511,-3.1331,-3.0883,-3.0283,-2.9729,-2.931,-2.8442,-2.7959,-2.7959,-2.772,-2.76,-2.76,-2.76,-2.76,-2.76,-2.76,-2.76,-2.76,-2.76,-2.76,-3.4352,-3.6027,-3.7269,-3.8684,-3.9588,-4.0096,-4.007,-3.9511,-3.9105,-3.9497,-3.8321,-3.7795,0.0,0.0,-3.7255,-3.9943,-3.9093,-3.857,-3.996,-4.0163,-4.0434,0.0,0.0,0.0,0.0,0.0,0.0,-4.3443,0.0,-4.6024,-4.6752,-4.7513,-4.8257,-4.8984,-4.9001,-4.9001,-4.9001,-4.9001,-4.9001,-4.9001,-4.9001,-4.8513,-4.7589,-4.7589,-4.5868,-4.2878,-4.2878,-4.1602,-3.9517,-3.9481,-3.9481,-3.9445,-3.9409,-3.9388,-3.9388,-3.9388,-3.9388,-3.9388,-3.9388,-3.9388,-3.92,-3.7853,-3.7404,-3.7165,-3.5893,-3.5504,-3.5504,-3.5504,-3.5504,-3.5504,-3.5504,-3.5504,-3.5504,-3.5504,-3.5504,-3.5504,-3.5504,-3.5504,-3.5504,-3.5504,-3.5504,-3.5504,-3.5504,-3.4936,-3.4038,-3.2766,-3.2512,-3.2243,-3.1585,-3.1511,-3.1511,-3.1511,-3.1511,-3.1511,-3.1511,-3.0883,-3.0507,-3.0507,-2.934,-2.8637,-2.8607,-2.8004,-2.763,-2.76,-2.76,-2.76,-2.76,-2.76,-2.76,-2.76,-2.76,-2.76,-3.526,-3.7149,-3.8674,-3.9605,-3.996,-4.0043,-3.9849,-3.9198,-3.8456,-3.7869,-3.6474,-3.5302,0.0,0.0,0.0,-3.7346,-3.9299,0.0,-4.0917,-4.0916,0.0,0.0,0.0,-4.2083,-4.2269,-4.298,0.0,0.0,-4.5179,-4.6024,-4.6752,-4.7513,-4.8257,-4.8984,-4.9001,-4.9001,-4.9001,-4.9001,-4.9001,-4.9001,-4.9001,-4.8513,-4.7589,-4.7589,-4.6188,-4.377,-4.377,-4.2841,-4.1295,-4.0638,-4.0363,-4.0309,-3.9631,-3.9388,-3.9388,-3.9388,-3.9388,-3.9388,-3.9388,-3.9388,-3.92,-3.7853,-3.7404,-3.7165,-3.5893,-3.5504,-3.5504,-3.5504,-3.5504,-3.5504,-3.5504,-3.5504,-3.5504,-3.5504,-3.5504,-3.5504,-3.5504,-3.5504,-3.5504,-3.5504,-3.5504,-3.5504,-3.5504,-3.4936,-3.4219,-3.3365,-3.2826,-3.2243,-3.1585,-3.1511,-3.1511,-3.1511,-3.1511,-3.1511,-3.1511,-3.0883,-3.0507,-3.0507,-2.9759,-2.9116,-2.8622,-2.8427,-2.8124,-2.76,-2.76,-2.76,-2.76,-2.76,-2.76,-2.76,-2.76,-2.76,-3.6813,-3.8435,-3.9588,-3.9994,-4.0286,-4.012,-3.8911,-3.8244,-3.7481,-3.6095,-3.4532,0.0,0.0,0.0,0.0,0.0,0.0,0.0,-4.1053,-4.1204,-4.1593,0.0,-4.2777,0.0,-4.3295,-4.3673,-4.4248,0.0,-4.5771,-4.6498,-4.7242,-4.7986,-4.8578,-4.8984,-4.9001,-4.9001,-4.9001,-4.9001,-4.9001,-4.9001,-4.9001,-4.8719,-4.8225,-4.8225,-4.6944,-4.4724,0.0,-4.3458,-4.1412,-4.0912,-4.0466,-4.008,-3.9574,-3.9388,-3.9388,-3.9388,-3.9388,-3.9388,-3.9388,-3.9388,-3.9245,-3.8182,-3.7644,-3.7225,-3.6237,-3.5729,-3.5504,-3.5504,-3.5504,-3.5504,-3.5504,-3.5504,-3.5504,-3.5504,-3.5504,-3.5504,-3.5504,-3.5504,-3.5504,-3.5504,-3.5504,-3.5504,-3.5504,-3.519,-3.4607,-3.3649,-3.3185,-3.2602,-3.163,-3.1511,-3.1511,-3.1511,-3.1511,-3.1511,-3.1511,-3.1152,-3.0956,-3.0956,-3.0342,-2.9699,-2.9056,-2.8757,-2.8278,-2.76,-2.76,-2.76,-2.76,-2.76,-2.76,-2.76,-2.76,-2.76,-3.8618,-3.9644,-4.0121,-4.0179,-4.0484,-4.0135,-3.778,-3.7061,-3.6291,-3.4251,0.0,0.0,-3.2988,0.0,-3.3524,-3.6338,0.0,-3.8218,-4.0934,-4.1401,-4.1968,-4.325,-4.3477,-4.3842,-4.4547,-4.4615,-4.4942,-4.5788,-4.643,-4.7124,-4.7838,-4.8612,-4.9001,-4.9001,-4.9001,-4.9001,-4.9001,-4.9001,-4.9001,-4.9001,-4.9001,-4.9001,-4.9001,-4.89,-4.7687,-4.5682,0.0,0.0,-4.1213,-4.0979,-4.0447,-3.9702,-3.9481,-3.9388,-3.9388,-3.9388,-3.9388,-3.9388,-3.9388,-3.9388,-3.9254,-3.8512,-3.7868,-3.7285,-3.6567,-3.5953,-3.5504,-3.5504,-3.5504,-3.5504,-3.5504,-3.5504,-3.5504,-3.5504,-3.5504,-3.5504,-3.5504,-3.5504,-3.5504,-3.5504,-3.5504,-3.5504,-3.5504,-3.5504,-3.504,-3.3694,-3.3499,-3.3021,-3.1675,-3.1511,-3.1511,-3.1511,-3.1511,-3.1511,-3.1511,-3.1511,-3.1511,-3.1511,-3.0943,-3.0357,-2.9729,-2.9071,-2.8412,-2.775,-2.7645,-2.76,-2.76,-2.76,-2.76,-2.76,-2.76,-2.76,-3.982,-4.0245,-4.0204,-4.0655,-4.0337,-3.9418,-3.7484,-3.6362,0.0,0.0,0.0,-3.0363,-2.991,0.0,0.0,-3.544,0.0,0.0,0.0,0.0,0.0,0.0,0.0,0.0,0.0,0.0,0.0,0.0,0.0,-4.7124,-4.7838,-4.8612,-4.9001,-4.9001,-4.9001,-4.9001,-4.9001,-4.9001,-4.9001,-4.9001,-4.9001,-4.9001,-4.8984,-4.8392,-4.7554,-4.654,-4.5921,0.0,-4.3827,-4.2379,-4.1707,-4.1428,-3.997,-3.9388,-3.9388,-3.9388,-3.9388,-3.9388,-3.9388,-3.9388,-3.9179,-3.7973,-3.7494,-3.7195,-3.6028,-3.5594,-3.5504,-3.5504,-3.5504,-3.5504,-3.5504,-3.5504,-3.5504,-3.5504,-3.5504,-3.5504,-3.5504,-3.5504,-3.5504,-3.5504,-3.5504,-3.5504,-3.5504,-3.5504,-3.504,-3.3694,-3.3499,-3.3021,-3.1675,-3.1511,-3.1511,-3.1511,-3.1511,-3.1511,-3.1511,-3.1511,-3.1511,-3.1511,-3.1391,-3.1017,-3.0372,-2.9744,-2.9101,-2.8427,-2.7884,-2.76,-2.76,-2.76,-2.76,-2.76,-2.76,-2.76,-4.0774,-4.1117,-4.1053,-4.1291,-4.0658,-3.9297,-3.6755,0.0,0.0,0.0,0.0,-2.8833,-2.8448,0.0,0.0,0.0,0.0,0.0,0.0,0.0,0.0,0.0,0.0,0.0,0.0,0.0,0.0,0.0,0.0,-4.7293,-4.8426,-4.8815,-4.9001,-4.9001,-4.9001,-4.9001,-4.9001,-4.9001,-4.9001,-4.9001,-4.9001,-4.8798,-4.8426,-4.8041,-4.731,-4.621,-4.5855,0.0,-4.3844,-4.3031,-4.2426,-4.1869,-4.0569,-4.008,-4.0025,-3.9574,-3.9388,-3.9388,-3.9388,-3.9185,-3.8721,-3.7734,-3.7404,-3.724,-3.6297,-3.5774,-3.5504,-3.5504,-3.5504,-3.5504,-3.5504,-3.5504,-3.5504,-3.5504,-3.5504,-3.5504,-3.5504,-3.5504,-3.5504,-3.5504,-3.5504,-3.5504,-3.5504,-3.5504,-3.516,-3.4158,-3.3709,-3.314,-3.2138,-3.172,-3.1511,-3.1511,-3.1511,-3.1511,-3.1511,-3.1511,-3.1511,-3.1511,-3.1511,-3.1197,-3.0537,-3.0223,-2.9759,-2.9131,-2.8813,-2.8483,-2.8113,-2.8113,-2.7944,-2.76,-2.76,-2.76,-4.15,-4.1837,-4.1832,-4.1958,-4.0942,-3.9139,-3.6082,-3.3804,0.0,0.0,0.0,0.0,-2.753,0.0,0.0,0.0,0.0,0.0,0.0,0.0,0.0,0.0,0.0,0.0,0.0,0.0,0.0,0.0,0.0,0.0,-4.8934,-4.9001,-4.9001,-4.9001,-4.9001,-4.9001,-4.9001,-4.9001,-4.8934,-4.8765,-4.8765,-4.8392,-4.7682,-4.7483,-4.6819,-4.5703,-4.5534,0.0,0.0,-4.3366,-4.2878,-4.2157,-4.1113,-4.069,-4.0588,-3.9737,-3.9388,-3.9394,-3.9245,-3.8841,-3.8257,-3.7464,-3.721,-3.709,-3.6462,-3.5908,-3.5504,-3.5504,-3.5504,-3.5504,-3.5504,-3.5504,-3.5504,-3.5504,-3.5504,-3.5504,-3.5504,-3.5504,-3.5504,-3.5504,-3.5504,-3.5504,-3.5504,-3.5504,-3.5265,-3.4608,-3.3918,-3.326,-3.2602,-3.1914,-3.1511,-3.1511,-3.1511,-3.1511,-3.1511,-3.1511,-3.1511,-3.1511,-3.1511,-3.1256,-3.0746,-3.0582,-3.0283,-2.9789,-2.9505,-2.9116,-2.8607,-2.8457,-2.8124,-2.76,-2.76,-2.76,-4.1882,-4.2021,-4.1937,-4.248,-4.0851,-3.8455,-3.5974,0.0,0.0,0.0,-2.6722,-2.6722,-2.6722,0.0,0.0,0.0,0.0,0.0,0.0,0.0,0.0,0.0,0.0,0.0,0.0,0.0,0.0,0.0,0.0,0.0,-4.8968,-4.9001,-4.9001,-4.9001,-4.9001,-4.9001,-4.9001,-4.9001,-4.8663,-4.799,-4.799,-4.7614,-4.687,-4.621,-4.5838,-4.5669,-4.4976,0.0,0.0,-4.3621,-4.3246,-4.3017,-4.1346,-4.069,-4.0588,-3.9737,-3.9388,-3.9334,-3.8691,-3.8437,-3.8182,-3.6971,-3.6567,-3.6447,-3.5789,-3.5549,-3.5504,-3.5504,-3.5504,-3.5504,-3.5504,-3.5504,-3.5504,-3.5504,-3.5504,-3.5504,-3.5504,-3.5504,-3.5504,-3.5504,-3.5504,-3.5504,-3.5504,-3.5504,-3.5265,-3.4608,-3.3918,-3.326,-3.2602,-3.1914,-3.1511,-3.1511,-3.1511,-3.1511,-3.1511,-3.1511,-3.1511,-3.1511,-3.1511,-3.1481,-3.1406,-3.0808,-3.0477,-3.0417,-2.928,-2.8667,-2.8607,-2.8004,-2.766,-2.76,-2.76,-2.76,-4.1759,-4.2558,-4.2757,-4.2523,-4.0626,-3.8186,-3.5715,0.0,0.0,-2.706,-2.6209,-2.6025,-2.6521,-2.753,0.0,0.0,0.0,0.0,0.0,0.0,0.0,0.0,0.0,0.0,0.0,0.0,0.0,0.0,0.0,0.0,-4.7631,-4.8511,-4.9001,-4.9001,-4.9001,-4.8798,-4.8359,-4.8359,-4.7986,-4.7242,-4.7242,-4.6853,-4.6126,-4.5838,-4.5466,-4.501,-4.4733,0.0,0.0,-4.4224,-4.4064,-4.3977,-4.2738,-4.2252,-4.2045,-4.0241,-3.9574,-3.9413,-3.8226,-3.7554,-3.7165,-3.6656,-3.6222,-3.5848,-3.5579,-3.5504,-3.5504,-3.5504,-3.5504,-3.5504,-3.5504,-3.5504,-3.5504,-3.5504,-3.5504,-3.5504,-3.5504,-3.5504,-3.5504,-3.5504,-3.5504,-3.5504,-3.5504,-3.5504,-3.5415,-3.513,-3.4517,-3.3844,-3.3185,-3.2527,-3.1944,-3.154,-3.1511,-3.1511,-3.1511,-3.1511,-3.1511,-3.1511,-3.1511,-3.1511,-3.1511,-3.1241,-3.1092,-3.1092,-3.0599,-2.9983,-2.919,-2.8933,-2.8393,-2.76,-2.76,-2.76,-4.0814,-4.2057,-4.2653,-4.2084,-4.0139,-3.7771,0.0,0.0,-2.8546,-2.6932,-2.5768,-2.5356,-2.641,-2.7053,-2.8095,0.0,0.0,0.0,0.0,0.0,0.0,0.0,0.0,0.0,0.0,0.0,0.0,0.0,0.0,0.0,0.0,-4.7784,-4.8359,-4.8359,-4.8359,-4.8105,-4.7597,-4.7581,-4.7208,-4.6464,-4.6464,-4.6092,-4.5365,-4.5365,-4.5077,-4.4615,0.0,0.0,0.0,-4.4615,-4.4615,-4.4514,-4.3651,-4.3007,-4.2364,-4.0431,-3.9411,-3.8831,-3.7568,-3.6851,-3.6447,-3.6252,-3.5878,-3.5504,-3.5504,-3.5504,-3.5504,-3.5504,-3.5504,-3.5504,-3.5504,-3.5504,-3.5504,-3.5504,-3.5504,-3.5554,-3.5782,-3.5636,-3.5554,-3.5782,-3.5636,-3.5504,-3.5504,-3.5504,-3.5504,-3.5504,-3.4921,-3.4279,-3.3589,-3.2916,-3.2228,-3.157,-3.1511,-3.1511,-3.1511,-3.1511,-3.1511,-3.1511,-3.1511,-3.1511,-3.1511,-3.1511,-3.1511,-3.1511,-3.1301,-3.0748,-2.9864,-2.9475,-2.8828,-2.7899,-2.769,-2.76,-3.8892,-4.0111,-4.1113,-4.1113,-3.9294,-3.707,0.0,-3.1885,-2.8546,-2.6932,-2.5328,-2.4704,-2.629,-2.6602,-2.7273,0.0,0.0,0.0,0.0,0.0,0.0,0.0,0.0,0.0,0.0,0.0,0.0,0.0,0.0,0.0,0.0,-4.6802,-4.6802,-4.6802,-4.6802,-4.6802,-4.6802,-4.6802,-4.6447,-4.572,-4.572,-4.5331,-4.4615,-4.4615,-4.4615,0.0,0.0,0.0,0.0,-4.4615,-4.4615,-4.4514,-4.3651,-4.2393,-4.0926,-4.003,-3.8733,-3.733,-3.6716,-3.6525,-3.6372,-3.5729,-3.5504,-3.5504,-3.5504,-3.5504,-3.5504,-3.5504,-3.5504,-3.5504,-3.5504,-3.5504,-3.5504,-3.5504,-3.5504,-3.5701,-3.6446,-3.6038,-3.5733,-3.6446,-3.6006,-3.5504,-3.5504,-3.5504,-3.5504,-3.5504,-3.4921,-3.4279,-3.3589,-3.2916,-3.2228,-3.157,-3.1511,-3.1511,-3.1511,-3.1511,-3.1511,-3.1511,-3.1511,-3.1511,-3.1511,-3.1511,-3.1511,-3.1511,-3.0866,-3.0507,-3.0492,-2.9235,-2.8607,-2.8577,-2.7914,-2.76,-3.623,-3.771,-3.8598,-3.7265,-3.5954,-3.4394,-3.2228,-2.9879,-2.7714,-2.6109,-2.4952,-2.452,-2.5576,-2.6227,-2.762,-3.0717,0.0,0.0,0.0,0.0,0.0,0.0,0.0,0.0,0.0,0.0,0.0,0.0,0.0,0.0,0.0,-4.5309,-4.5766,-4.6752,-4.6786,-4.6549,-4.6058,-4.6058,-4.5686,-4.4942,-4.4942,-4.4835,-4.4615,-4.4615,0.0,0.0,0.0,0.0,0.0,-4.4615,-4.4265,-4.3747,-4.348,-4.2769,-4.1737,-4.0466,-3.9656,-3.907,-3.7832,-3.7033,-3.6535,-3.632,-3.5926,-3.5504,-3.5504,-3.5504,-3.5504,-3.5504,-3.5504,-3.5619,-3.6117,-3.6244,-3.6399,-3.6951,-3.7055,-3.7161,-3.7368,-3.6814,-3.6337,-3.6554,-3.6006,-3.5504,-3.5504,-3.5504,-3.5504,-3.5504,-3.5325,-3.4771,-3.3649,-3.3305,-3.2766,-3.163,-3.1511,-3.1511,-3.1511,-3.1511,-3.1511,-3.1511,-3.1511,-3.1511,-3.1511,-3.1511,-3.1511,-3.1511,-3.1286,-3.0943,-3.0507,-2.9669,-2.8801,-2.7914,-2.7705,-2.76,0.0,-3.5069,-3.5793,-3.4793,-3.3715,-3.2412,-3.0613,-2.8723,-2.6979,-2.5668,-2.4768,-2.4456,-2.5246,-2.5815,-2.7035,-2.9741,0.0,0.0,0.0,0.0,0.0,0.0,0.0,0.0,0.0,0.0,0.0,0.0,0.0,0.0,0.0,-4.4615,-4.5038,-4.5952,-4.5957,-4.5737,-4.528,-4.528,-4.5043,-4.4615,-4.4615,-4.4615,-4.4615,-4.4615,0.0,0.0,0.0,0.0,0.0,-4.4147,-4.369,-4.2997,-4.2997,-4.2345,-4.1352,-4.0431,-3.9736,-3.9032,-3.7804,-3.7219,-3.6994,-3.6707,-3.6492,-3.6368,-3.6368,-3.5973,-3.5554,-3.5846,-3.5926,-3.6086,-3.6859,-3.7054,-3.7189,-3.769,-3.7793,-3.7793,-3.7793,-3.7174,-3.6615,-3.6615,-3.6006,-3.5587,-3.5863,-3.5926,-3.6006,-3.6321,-3.6101,-3.5441,-3.4121,-3.3698,-3.2991,-3.1645,-3.1511,-3.1511,-3.1511,-3.1511,-3.1511,-3.1511,-3.1511,-3.1511,-3.1511,-3.1511,-3.1511,-3.1511,-3.1511,-3.1286,-3.0896,-3.0013,-2.9052,-2.7974,-2.772,-2.76,0.0,-3.2115,-3.269,-3.3175,-3.2155,-3.0852,-3.0044,-2.8117,0.0,-2.5485,-2.4713,-2.4447,-2.5319,-2.5485,-2.5941,0.0,0.0,0.0,0.0,0.0,0.0,0.0,0.0,0.0,0.0,0.0,0.0,0.0,0.0,0.0,0.0,-4.4615,-4.4615,-4.4615,-4.4615,-4.4615,-4.4615,-4.4615,-4.4615,-4.4615,-4.4615,-4.4615,-4.4615,-4.4547,0.0,0.0,0.0,0.0,0.0,-4.3308,-4.2895,-4.2219,-4.2219,-4.1355,-4.01,-4.01,-3.9184,-3.7863,-3.7114,-3.7293,-3.7748,-3.695,-3.7174,-3.7793,-3.7793,-3.6814,-3.5814,-3.6508,-3.6707,-3.6873,-3.7661,-3.7863,-3.7892,-3.795,-3.795,-3.795,-3.795,-3.7322,-3.6752,-3.6707,-3.6086,-3.5814,-3.6461,-3.6615,-3.6843,-3.7602,-3.713,-3.6211,-3.4922,-3.4165,-3.3216,-3.1879,-3.1671,-3.1627,-3.1582,-3.1524,-3.1511,-3.1511,-3.1511,-3.1511,-3.1511,-3.1511,-3.1511,-3.1511,-3.1511,-3.1481,-3.1436,-3.0238,-2.931,-2.8652,-2.7989,-2.766,-2.7169,0.0,-2.9326,-2.8507,-2.8007,-2.753,0.0,-2.609,0.0,0.0,0.0,0.0,0.0,0.0,0.0,0.0,0.0,0.0,0.0,0.0,0.0,0.0,0.0,0.0,0.0,0.0,0.0,0.0,0.0,0.0,0.0,-4.4615,-4.4615,-4.4615,-4.4615,-4.4615,-4.4615,-4.4615,-4.4615,-4.4615,-4.4615,-4.4615,-4.4581,-4.3961,0.0,0.0,0.0,0.0,-4.2557,-4.2557,-4.2117,-4.1457,-4.1457,-4.0906,-4.0103,-4.0103,-3.9856,-3.9532,-3.9358,-3.9005,-3.8525,-3.7761,-3.7648,-3.7793,-3.7793,-3.756,-3.7294,-3.7456,-3.7515,-3.769,-3.8442,-3.8635,-3.8816,-3.9411,-3.9558,-3.9558,-3.9558,-3.8924,-3.8201,-3.7632,-3.6889,-3.6384,-3.6584,-3.6615,-3.6661,-3.6843,-3.7233,-3.6993,-3.5557,-3.5754,-3.5477,-3.4103,-3.3469,-3.2949,-3.2401,-3.1824,-3.1511,-3.1511,-3.1511,-3.1511,-3.1511,-3.1511,-3.1511,-3.1511,-3.1511,-3.1241,-3.0746,-3.0432,-2.9968,-2.9367,-2.8667,-2.8353,-2.5507,-2.6766,-2.7908,-2.7294,-2.6938,-2.6593,-2.6074,0.0,0.0,0.0,0.0,0.0,0.0,0.0,0.0,0.0,0.0,0.0,0.0,0.0,0.0,0.0,0.0,0.0,0.0,0.0,0.0,0.0,0.0,0.0,0.0,-4.4412,-4.4293,-4.3582,-4.3859,-4.4215,-4.4615,-4.4615,-4.4615,-4.4615,-4.4215,-4.4045,-4.4012,-4.325,-4.2912,0.0,0.0,0.0,-4.1796,-4.1796,-4.1356,-4.0696,-4.0696,-4.0468,-4.0096,-4.0096,-4.0096,-4.0045,-3.9662,-3.9246,-3.8897,-3.8887,-3.8859,-3.8859,-3.8859,-3.8859,-3.8778,-3.843,-3.8302,-3.8469,-3.9236,-3.9463,-3.9542,-3.9995,-3.9808,-3.9542,-3.9542,-3.8924,-3.8274,-3.7863,-3.7456,-3.7263,-3.76,-3.7642,-3.7787,-3.8157,-3.8274,-3.7919,-3.683,-3.6762,-3.6134,-3.4422,-3.394,-3.3259,-3.2193,-3.171,-3.1511,-3.1511,-3.1511,-3.1511,-3.1511,-3.1511,-3.1511,-3.1511,-3.1511,-3.1316,-3.0943,-3.0657,-3.0328,-2.9983,-2.9041,-2.8607,-2.5377,-2.6517,-2.7627,-2.7357,-2.6975,-2.6637,0.0,0.0,0.0,0.0,0.0,0.0,0.0,0.0,0.0,0.0,0.0,0.0,0.0,0.0,0.0,0.0,0.0,0.0,0.0,0.0,0.0,0.0,0.0,0.0,0.0,-4.3876,-4.3667,-4.2337,-4.2912,-4.3572,-4.4242,-4.4259,-4.4259,-4.4242,-4.3572,-4.325,-4.3189,-4.2472,-4.2117,0.0,0.0,0.0,-4.1035,-4.1035,-4.0646,-4.0096,-4.0096,-4.0096,-4.0096,-4.0096,-4.0096,-3.9995,-3.9315,-3.9086,-3.9209,-3.9876,-4.0096,-4.0096,-4.0096,-4.0096,-3.9952,-3.9289,-3.9086,-3.9236,-3.9927,-4.0096,-4.007,-3.9952,-3.9489,-3.9059,-3.8935,-3.8513,-3.8121,-3.7978,-3.7978,-3.8177,-3.8799,-3.8908,-3.9139,-3.9808,-3.9437,-3.8844,-3.8213,-3.753,-3.643,-3.4537,-3.4152,-3.3466,-3.2109,-3.1796,-3.1668,-3.1668,-3.1553,-3.1511,-3.1511,-3.1511,-3.1511,-3.1511,-3.1511,-3.1511,-3.1511,-3.0913,-3.0612,-3.0477,-2.9387,-2.8839,-2.6848,-2.7838,-2.7938,-2.5589,-2.5329,-2.5618,0.0,0.0,0.0,0.0,0.0,0.0,0.0,0.0,0.0,0.0,0.0,0.0,0.0,0.0,0.0,0.0,0.0,0.0,0.0,0.0,0.0,0.0,0.0,0.0,0.0,-4.2574,-4.2523,-4.2303,-4.2405,-4.2523,-4.2642,-4.2642,-4.2642,-4.2642,-4.2523,-4.2472,-4.2439,-4.1711,-4.1373,0.0,0.0,-4.0367,-4.0282,-4.0282,-4.0197,-4.0096,-4.0096,-4.0096,-4.0096,-4.0096,-4.0096,-4.007,-3.9952,-3.9927,-3.9927,-4.0045,-4.0096,-4.0096,-4.0096,-4.0096,-4.007,-3.9952,-3.9927,-3.9952,-4.007,-4.0096,-3.9927,-3.9262,-3.9516,-3.9731,-3.9059,-3.9358,-3.9558,-3.8854,-3.8745,-3.8772,-3.8881,-3.8908,-3.8935,-3.9059,-3.9558,-3.9629,-3.8857,-3.8711,-3.8296,-3.7359,-3.615,-3.5043,-3.4185,-3.3077,-3.2437,-3.2437,-3.1853,-3.1511,-3.1511,-3.1511,-3.1511,-3.1511,-3.1511,-3.1511,-3.1511,-3.1406,-3.1047,-3.0492,-3.0304,-2.9914,-2.6026,-2.6704,-2.7009,-2.6037,-2.7008,-2.8065,0.0,0.0,0.0,0.0,0.0,0.0,0.0,0.0,0.0,0.0,0.0,0.0,0.0,0.0,0.0,0.0,0.0,0.0,0.0,0.0,0.0,0.0,0.0,0.0,0.0,0.0,-4.1914,-4.1145,-4.1491,-4.1508,-4.1128,-4.1128,-4.1517,-4.2286,-4.1897,-4.1711,-4.1677,-4.0933,-4.0595,-4.0578,0.0,-4.0096,-4.0096,-4.0096,-4.0096,-4.0096,-4.0096,-4.0096,-4.0096,-4.0096,-4.0096,-4.0096,-4.0096,-4.0096,-4.0096,-4.0096,-4.0096,-4.0096,-4.0096,-4.0096,-4.0096,-4.0096,-4.0096,-4.0096,-4.0096,-3.9782,-3.9463,-3.9516,-3.9183,-3.8995,-3.9437,-3.9489,-3.9463,-3.9558,-3.9542,-3.9542,-3.9542,-3.9542,-3.9542,-3.9542,-3.9876,-3.9969,-3.961,-3.9236,-3.8561,-3.7427,-3.6348,-3.5243,-3.4136,-3.3172,-3.2437,-3.2035,-3.1697,-3.1511,-3.1511,-3.1511,-3.1511,-3.1511,-3.1511,-3.1511,-3.1511,-3.1511,-3.1152,-3.0492,-3.0159,-2.9817,-2.5548,-2.5946,-2.6438,-2.7056,0.0,0.0,0.0,0.0,0.0,0.0,0.0,0.0,0.0,0.0,0.0,0.0,0.0,0.0,0.0,0.0,0.0,0.0,0.0,0.0,0.0,0.0,0.0,0.0,0.0,0.0,0.0,0.0,-4.128,-4.0146,-4.0646,-4.0663,-4.0113,-4.0096,-4.0671,-4.1788,-4.1204,-4.0933,-4.0916,-4.0367,-4.0096,-4.0096,-4.0096,-4.0096,-4.0096,-4.0096,-4.0096,-4.0096,-4.0096,-4.0096,-4.0096,-4.0096,-4.0096,-4.0096,-4.0096,-4.0096,-4.0096,-4.0096,-4.0096,-4.0096,-4.0096,-4.0096,-4.0096,-4.0096,-4.0096,-4.0096,-4.0096,-3.9636,-3.9289,-3.9731,-3.9049,-3.8596,-3.961,-3.9489,-3.9368,-3.9978,-4.0096,-4.0096,-4.0096,-4.0096,-4.0096,-4.0096,-4.0096,-4.0045,-3.9859,-3.9191,-3.8242,-3.6929,-3.5985,-3.4889,-3.3491,-3.2895,-3.2272,-3.1568,-3.1511,-3.1511,-3.1511,-3.1511,-3.1511,-3.1511,-3.1511,-3.1421,-3.1271,-3.1271,-3.0838,-3.0043,-2.9711,-2.9536,-2.7026,-2.7274,-2.7265,-2.7942,0.0,0.0,0.0,0.0,0.0,0.0,0.0,0.0,0.0,0.0,0.0,0.0,0.0,0.0,0.0,0.0,0.0,0.0,0.0,0.0,0.0,0.0,0.0,0.0,0.0,0.0,0.0,0.0,0.0,-4.0096,-4.0146,-4.0146,-4.0096,-4.0096,-4.0146,-4.0265,-4.0197,-4.018,-4.018,-4.013,-4.0096,-4.0096,-4.0096,-4.0096,-4.0096,-4.0096,-4.0096,-4.0096,-4.0096,-4.0096,-4.0096,-4.0096,-4.0096,-4.0096,-4.0096,-4.0096,-4.0096,-4.0096,-4.0096,-4.0096,-4.0096,-4.0096,-4.0096,-4.0096,-4.0096,-4.0096,-4.0096,-4.0045,-3.9833,-3.9139,-3.9463,-3.9756,-3.9113,-3.9516,-4.002,-4.007,-4.0096,-4.0096,-4.0096,-4.0096,-4.0096,-4.0096,-4.0096,-3.9859,-3.9157,-3.8447,-3.7679,-3.6878,-3.5521,-3.4136,-3.2803,-3.2614,-3.2272,-3.1568,-3.1511,-3.1511,-3.1511,-3.1511,-3.1511,-3.1511,-3.1511,-3.1182,-3.0567,-3.0567,-2.9939,-2.8753,-2.9281,-2.9467,-2.5767,-2.6514,-2.7317,-2.7842,0.0,0.0,0.0,0.0,0.0,0.0,0.0,0.0,0.0,0.0,0.0,0.0,0.0,0.0,0.0,0.0,0.0,0.0,0.0,0.0,0.0,0.0,0.0,0.0,0.0,0.0,0.0,0.0,0.0,-4.0096,-4.0096,-4.0096,-4.0096,-4.0096,-4.0096,-4.0096,-4.0096,-4.0096,-4.0096,-4.0096,-4.0096,-4.0096,-4.0096,-4.0096,-4.0096,-4.0096,-4.0096,-4.0096,-4.0096,-4.0096,-4.0096,-4.0096,-4.0096,-4.0096,-4.0096,-4.0096,-4.0096,-4.0096,-4.0096,-4.0096,-4.0096,-3.9756,-3.9463,-3.9952,-3.9756,-3.9463,-3.9978,-3.9731,-3.9394,-3.961,-3.9489,-3.9411,-3.961,-3.9901,-4.0096,-4.0096,-4.0096,-4.0096,-4.0096,-4.0096,-4.0096,-4.0096,-4.0096,-3.9842,-3.9089,-3.8362,-3.7618,-3.688,-3.5839,-3.4847,-3.3912,-3.3836,-3.3375,-3.2244,-3.216,-3.1979,-3.1524,-3.1923,-3.1951,-3.1511,-3.1511,-3.1167,-3.0507,-3.0507,-2.9849,-2.8618,-2.9225,-2.9461,-2.4862,-2.5566,-2.6529,0.0,0.0,0.0,0.0,0.0,0.0,0.0,0.0,0.0,0.0,0.0,0.0,0.0,0.0,0.0,0.0,0.0,0.0,0.0,0.0,0.0,0.0,0.0,0.0,0.0,0.0,0.0,0.0,0.0,0.0,0.0,-4.0096,-4.0096,-4.0096,-4.0096,-4.0096,-4.0096,-4.0096,-4.0096,-4.0096,-4.0096,-4.0096,-4.0096,-4.0096,-4.0096,-4.0096,-4.0096,-4.0096,-4.0096,-4.0096,-4.0096,-4.0096,-4.0096,-4.0096,-4.0096,-4.0096,-4.0096,-4.0096,-4.0096,-4.0096,-4.0096,-4.0096,-3.9731,-3.9394,-3.9952,-3.9688,-3.9411,-3.9952,-3.9688,-3.9411,-3.9969,-3.9662,-3.9437,-3.9978,-4.0096,-4.0096,-4.0096,-4.0096,-4.0096,-4.0096,-3.991,-3.9757,-3.9757,-3.9554,-3.9123,-3.8403,-3.7855,-3.7175,-3.6196,-3.5618,-3.4934,-3.4037,-3.3962,-3.3582,-3.2668,-3.2788,-3.2504,-3.1539,-3.2216,-3.2244,-3.1496,-3.1515,-3.1091,-3.0223,-2.9998,-2.9447,-2.8596,-2.8978,-2.936,-2.4835,-2.4673,0.0,0.0,0.0,0.0,0.0,0.0,0.0,0.0,0.0,0.0,0.0,0.0,0.0,0.0,0.0,0.0,0.0,0.0,0.0,0.0,0.0,0.0,0.0,0.0,0.0,0.0,0.0,0.0,0.0,0.0,0.0,0.0,-4.0096,-4.0096,-4.0096,-4.0096,-4.0096,-4.0096,-4.0096,-4.0096,-4.0096,-4.0096,-4.0096,-4.0096,-4.0096,-4.0096,-4.0096,-4.0096,-4.0096,-4.0096,-4.0096,-4.0096,-4.0096,-4.0096,-4.0096,-4.0096,-4.0096,-4.0096,-4.0096,-4.0096,-4.0096,-4.0096,-4.0096,-4.0096,-4.0096,-4.0096,-4.0096,-4.0096,-4.0096,-4.0096,-4.0096,-4.0096,-4.0096,-4.0096,-4.0096,-4.0096,-4.0096,-4.0096,-4.0096,-4.0096,-4.0096,-3.9503,-3.8988,-3.8988,-3.8379,-3.7635,-3.6897,-3.6795,-3.6226,-3.4771,-3.46,-3.4087,-3.2749,-3.2614,-3.2614,-3.2614,-3.3251,-3.2971,-3.1582,-3.2231,-3.2272,-3.1524,-3.1558,-3.0937,-2.9592,-2.8921,-2.8566,-2.8487,-2.8487,-2.9157,-2.4818,0.0,0.0,0.0,0.0,0.0,0.0,0.0,0.0,0.0,0.0,0.0,0.0,0.0,0.0,0.0,0.0,0.0,0.0,0.0,0.0,0.0,0.0,0.0,0.0,0.0,0.0,0.0,0.0,0.0,0.0,0.0,0.0,0.0,-4.0096,-4.0096,-4.0096,-4.0096,-4.0096,-4.0096,-4.0096,-4.0096,-4.0096,-4.0096,-4.0096,-4.0096,-4.0096,-4.0096,-4.0096,-4.0096,-4.0096,-4.0096,-4.0096,-4.0096,-4.0096,-4.0096,-4.0096,-4.0096,-4.0096,-4.0096,-4.0096,-4.0096,-4.0096,-4.0096,-4.0096,-3.9688,-3.9368,-3.9927,-3.9688,-3.9385,-3.9952,-4.0096,-4.0096,-4.0096,-4.0096,-4.0096,-4.0096,-4.0096,-4.0096,-4.0096,-4.0096,-4.0096,-4.0096,-3.9503,-3.8988,-3.8988,-3.8379,-3.7635,-3.6897,-3.6299,-3.5791,-3.5356,-3.5316,-3.5138,-3.4728,-3.4721,-3.4512,-3.4037,-3.3761,-3.3401,-3.2997,-3.3633,-3.323,-3.1608,-3.1608,-3.0707,-2.8891,-2.8697,-2.8351,-2.7885,-2.8756,-2.9316,0.0,0.0,0.0,0.0,0.0,0.0,0.0,0.0,0.0,0.0,0.0,0.0,0.0,0.0,0.0,0.0,0.0,0.0,0.0,0.0,0.0,0.0,0.0,0.0,0.0,0.0,0.0,0.0,0.0,0.0,0.0,0.0,0.0,0.0,-4.0204,-4.0096,-4.0096,-4.0096,-4.0096,-4.0096,-4.0096,-4.0096,-4.0096,-4.0096,-4.0096,-4.0096,-4.0096,-4.0096,-4.0096,-4.0096,-4.0096,-4.0096,-4.0096,-4.0096,-4.0096,-4.0096,-4.0096,-4.0096,-4.0096,-4.0096,-4.0096,-4.0096,-4.0096,-4.0096,-4.0096,-3.9756,-3.9489,-3.9952,-3.9756,-3.9489,-3.9978,-4.0096,-4.0096,-4.0096,-4.0096,-4.0096,-4.0096,-4.0096,-4.0096,-4.0096,-4.0096,-4.0011,-3.9723,-3.9039,-3.8464,-3.8159,-3.7483,-3.684,-3.6383,-3.591,-3.56,-3.56,-3.56,-3.5492,-3.523,-3.5207,-3.5028,-3.4624,-3.4211,-3.4012,-3.4012,-3.3862,-3.298,-3.1194,-3.1195,-3.035,-2.8607,-2.8323,-2.8228,-2.8328,-2.9065,-2.9651,0.0,0.0,0.0,0.0,0.0,0.0,0.0,0.0,0.0,0.0,0.0,0.0,0.0,0.0,0.0,0.0,0.0,0.0,0.0,0.0,0.0,0.0,0.0,0.0,0.0,0.0,0.0,0.0,0.0,0.0,0.0,0.0,0.0,-4.0903,-4.0441,-4.0154,-4.0154,-4.0121,-4.0121,0.0,-4.0053,-4.0011,-4.0011,-4.0079,-4.0096,-4.0096,-4.0096,-4.0096,-4.0096,-4.0096,-4.0096,-4.0096,-4.0096,-4.0096,-4.0096,-4.0096,-4.0096,-4.0096,-4.0096,-4.0096,-4.0096,-4.0096,-4.0096,-4.0096,-4.0096,-4.0096,-4.0096,-4.0096,-4.0096,-4.0096,-4.0096,-4.0096,-4.0096,-4.0096,-4.0096,-4.0096,-4.0096,-4.0096,-4.0079,-4.0011,-4.0011,-3.9774,-3.9022,-3.8294,-3.755,-3.6789,-3.6079,-3.56,-3.56,-3.56,-3.5577,-3.5515,-3.5515,-3.5253,-3.4664,-3.46,-3.4624,-3.4688,-3.4624,-3.4559,-3.4429,-3.3322,-3.2006,-3.0528,-3.0529,-2.9843,-2.8502,-2.795,-2.8247,-2.9316,-2.9429,-3.0081,0.0,0.0,0.0,0.0,0.0,0.0,0.0,0.0,0.0,0.0,0.0,0.0,0.0,0.0,0.0,0.0,0.0,0.0,0.0,0.0,0.0,0.0,0.0,0.0,0.0,0.0,0.0,0.0,0.0,0.0,0.0,0.0,0.0,-4.0903,-4.078,-4.0726,-4.0726,-4.0311,-4.0311,0.0,-3.9708,-3.9225,-3.9242,-3.9842,-4.0096,-4.0096,-4.0096,-4.0096,-4.0096,-4.0096,-4.0096,-4.0096,-4.0096,-4.0096,-4.0096,-4.0096,-4.0096,-4.0096,-4.0096,-4.0096,-4.0096,-4.0096,-4.0096,-4.0096,-4.0096,-4.0096,-4.0096,-4.0096,-4.0096,-4.0096,-4.0096,-4.0096,-4.0096,-4.0096,-4.0096,-4.0096,-4.0096,-4.0096,-3.9943,-3.9368,-3.9225,-3.8988,-3.8261,-3.7516,-3.6755,-3.5994,-3.5701,-3.56,-3.56,-3.56,-3.5385,-3.4871,-3.4823,-3.4759,-3.46,-3.46,-3.4807,-3.5362,-3.4894,-3.4136,-3.308,-3.3259,-3.2488,-3.0629,-3.0076,-2.9162,-2.7824,-2.8143,-2.8439,-2.8724,-2.9673,-3.0251,0.0,0.0,0.0,0.0,0.0,0.0,0.0,0.0,0.0,0.0,0.0,0.0,0.0,0.0,0.0,0.0,0.0,0.0,0.0,0.0,0.0,0.0,0.0,0.0,0.0,0.0,0.0,0.0,0.0,0.0,0.0,-4.1178,-4.0902,-4.0577,-4.0079,-3.9806,-3.9806,-3.9286,-3.9176,-3.9459,-3.8785,-3.8464,-3.8481,-3.887,-3.9039,-3.9039,-3.9039,-3.9039,-3.9056,-3.9436,-3.9571,-3.9622,-3.996,-4.0096,-4.0096,-4.0096,-4.0096,-4.0096,-4.0096,-4.0096,-4.0096,-4.0096,-4.0096,-4.0096,-4.0096,-4.0096,-4.0096,-4.0096,-4.0096,-4.0096,-4.0096,-4.0096,-4.0096,-4.0096,-4.0096,-4.0011,-3.9656,-3.9571,-3.9368,-3.8616,-3.8464,-3.8244,-3.7499,-3.6738,-3.6079,-3.565,-3.56,-3.56,-3.56,-3.56,-3.547,-3.5121,-3.5075,-3.5075,-3.5075,-3.5075,-3.523,-3.5577,-3.5276,-3.431,-3.2673,-3.2896,-3.1982,-2.9684,-2.9579,-2.9046,-2.8042,-2.8638,-2.9065,-2.9384,-3.0016,-3.0456,0.0,0.0,0.0,0.0,0.0,0.0,0.0,0.0,0.0,0.0,0.0,0.0,0.0,0.0,0.0,0.0,0.0,0.0,0.0,0.0,0.0,0.0,0.0,0.0,0.0,0.0,0.0,0.0,0.0,0.0,-4.1095,-4.0632,-4.0312,-4.0202,-3.9355,-3.885,-3.876,-3.8265,-3.8037,-3.8037,-3.7818,-3.7652,-3.7493,-3.7493,-3.7652,-3.7905,-3.7905,-3.7905,-3.7956,-3.8565,-3.8802,-3.887,-3.9486,-3.9723,-3.9723,-3.9723,-3.9723,-3.9723,-3.9723,-3.9723,-3.974,-3.9876,-3.9825,-3.9774,-4.0028,-4.0011,-3.9943,-4.0062,-4.0096,-4.0096,-4.0096,-4.0096,-4.0079,-3.9943,-3.991,-3.9757,-3.9123,-3.8903,-3.8582,-3.7855,-3.7601,-3.7313,-3.6711,-3.6045,-3.56,-3.56,-3.56,-3.56,-3.56,-3.56,-3.5577,-3.543,-3.5447,-3.5447,-3.5447,-3.5447,-3.5419,-3.5414,-3.5397,-3.4507,-3.2474,-3.2338,-3.1186,-2.8784,-2.924,-2.9214,-2.8677,-2.9248,-2.9805,-3.0293,-3.0414,-3.072,0.0,0.0,0.0,0.0,0.0,0.0,0.0,0.0,0.0,0.0,0.0,0.0,0.0,0.0,0.0,0.0,0.0,0.0,0.0,0.0,0.0,0.0,0.0,0.0,0.0,0.0,0.0,0.0,0.0,0.0,-4.1095,-4.1027,-4.0737,-4.0221,-4.0055,-3.9789,-3.9373,-3.8803,-3.8535,-3.8585,-3.7456,-3.6569,-3.5904,-3.5904,-3.6631,-3.7905,-3.7905,-3.7905,-3.7922,-3.8024,-3.8058,-3.8075,-3.8159,-3.8193,-3.8193,-3.8193,-3.8193,-3.8193,-3.8193,-3.8193,-3.8311,-3.8937,-3.87,-3.843,-3.9723,-3.9656,-3.9276,-3.9926,-4.0096,-4.0096,-4.0096,-4.0096,-3.9943,-3.9317,-3.914,-3.9106,-3.9005,-3.8497,-3.7838,-3.71,-3.6383,-3.587,-3.5769,-3.5667,-3.56,-3.56,-3.56,-3.56,-3.56,-3.56,-3.5385,-3.48,-3.4736,-3.4736,-3.4736,-3.4736,-3.4722,-3.4653,-3.4641,-3.3722,-3.1649,-3.1545,-3.0843,-2.9316,-2.9369,-2.9366,-2.9271,-2.9908,-3.023,-3.0314,-3.0838,-3.1131,0.0,0.0,0.0,0.0,0.0,0.0,0.0,0.0,0.0,0.0,0.0,0.0,0.0,0.0,0.0,0.0,0.0,0.0,0.0,0.0,0.0,0.0,0.0,0.0,0.0,0.0,0.0,0.0,0.0,-3.9756,-3.9756,-3.9756,-3.9639,-3.9372,-3.9063,-3.8798,-3.8598,-3.8084,-3.7679,-3.7386,-3.6541,-3.5943,-3.56,-3.56,-3.5971,-3.6597,-3.6597,-3.6597,-3.6648,-3.7094,-3.728,-3.7313,-3.7736,-3.7905,-3.7905,-3.7905,-3.7905,-3.7905,-3.7905,-3.7905,-3.7956,-3.8278,-3.8159,-3.8024,-3.8667,-3.8633,-3.8531,-3.9276,-3.9174,-3.8954,-3.9377,-3.9174,-3.8785,-3.8464,-3.8058,-3.7777,-3.7777,-3.7499,-3.7043,-3.6282,-3.5836,-3.56,-3.56,-3.56,-3.56,-3.56,-3.56,-3.56,-3.56,-3.56,-3.5492,-3.5207,-3.5161,-3.5161,-3.5161,-3.5161,-3.4958,-3.4539,-3.4489,-3.3559,-3.1478,-3.1724,-3.1269,-2.993,-2.9892,-2.9892,-2.9908,-3.0497,-3.0801,-3.0818,-3.1092,-3.119,0.0,0.0,0.0,0.0,0.0,0.0,0.0,0.0,0.0,0.0,0.0,0.0,0.0,0.0,0.0,0.0,0.0,0.0,0.0,0.0,0.0,0.0,0.0,0.0,0.0,0.0,0.0,0.0,0.0,-3.8707,-3.8707,-3.8707,-3.8707,-3.8707,-3.83,-3.8048,-3.7893,-3.7304,-3.6724,-3.6203,-3.5805,-3.56,-3.56,-3.56,-3.56,-3.56,-3.56,-3.56,-3.565,-3.6248,-3.6485,-3.6535,-3.711,-3.733,-3.733,-3.733,-3.733,-3.733,-3.733,-3.733,-3.7364,-3.755,-3.7483,-3.7398,-3.7787,-3.777,-3.777,-3.8514,-3.8328,-3.8041,-3.8582,-3.8311,-3.7855,-3.7669,-3.7218,-3.6745,-3.6535,-3.6485,-3.6315,-3.5718,-3.56,-3.56,-3.56,-3.56,-3.56,-3.56,-3.56,-3.56,-3.56,-3.56,-3.56,-3.56,-3.56,-3.56,-3.56,-3.56,-3.5194,-3.4269,-3.4218,-3.3354,-3.1423,-3.1765,-3.1533,-3.0555,-3.0518,-3.0518,-3.0518,-3.0975,-3.119,-3.119,-3.119,-3.119,0.0,0.0,0.0,0.0,0.0,0.0,0.0,0.0,0.0,0.0,0.0,0.0,0.0,0.0,0.0,0.0,0.0,0.0,0.0,0.0,0.0,0.0,0.0,0.0,0.0,0.0,0.0,0.0,0.0,-3.8707,-3.8707,-3.8707,-3.8707,-3.8707,-3.8658,-3.8415,-3.7893,-3.6923,-3.6182,-3.5644,-3.5622,-3.56,-3.56,-3.56,-3.56,-3.56,-3.56,-3.56,-3.56,-3.565,-3.565,-3.5667,-3.5701,-3.5718,-3.5718,-3.5718,-3.5718,-3.5718,-3.5718,-3.5718,-3.5836,-3.6626,-3.6332,-3.5988,-3.7466,-3.7398,-3.7015,-3.7753,-3.7939,-3.7922,-3.7956,-3.7939,-3.7719,-3.7032,-3.6829,-3.6586,-3.5842,-3.565,-3.565,-3.56,-3.56,-3.56,-3.56,-3.56,-3.56,-3.56,-3.56,-3.56,-3.56,-3.56,-3.56,-3.56,-3.56,-3.56,-3.56,-3.56,-3.4991,-3.3558,-3.3457,-3.2777,-3.1269,-3.1238,-3.1224,-3.1151,-3.1151,-3.1151,-3.1151,-3.119,-3.119,-3.119,-3.119,-3.119,0.0,0.0,0.0,0.0,0.0,0.0,0.0,0.0,0.0,0.0,0.0,0.0,0.0,0.0,0.0,0.0,0.0,0.0,0.0,0.0,0.0,0.0,0.0,0.0,0.0,0.0,0.0,0.0,0.0,0.0,-3.7165,-3.7165,-3.7165,-3.7165,-3.7165,-3.693,-3.6429,-3.6183,-3.563,-3.4696,-3.4831,-3.4658,-3.4218,-3.4675,-3.4895,-3.4928,-3.538,-3.56,-3.56,-3.56,-3.56,-3.56,-3.56,-3.56,-3.56,-3.56,-3.56,-3.56,-3.56,-3.56,-3.565,-3.5943,-3.5819,-3.5701,-3.6259,-3.6225,-3.6197,-3.6958,-3.6823,-3.6529,-3.706,-3.6806,-3.6343,-3.6096,-3.6028,-3.596,-3.565,-3.56,-3.56,-3.56,-3.56,-3.56,-3.56,-3.56,-3.56,-3.56,-3.56,-3.56,-3.56,-3.56,-3.56,-3.56,-3.56,-3.56,-3.56,-3.56,-3.4957,-3.3487,-3.3406,-3.2747,-3.1258,-3.119,-3.119,-3.119,-3.119,-3.119,-3.119,-3.119,-3.119,-3.119,-3.119,-3.119,0.0,0.0,0.0,0.0,0.0,0.0,0.0,0.0,0.0,0.0,0.0,0.0,0.0,0.0,0.0,0.0,0.0,0.0,0.0,0.0,0.0,0.0,0.0,0.0,0.0,0.0,0.0,0.0,0.0,0.0,-3.6303,-3.6303,-3.6303,-3.6303,-3.6303,-3.5994,-3.5332,-3.5456,-3.4983,-3.3945,-3.407,-3.388,-3.3423,-3.3914,-3.4134,-3.4167,-3.4912,-3.5363,-3.56,-3.56,-3.56,-3.56,-3.56,-3.56,-3.56,-3.56,-3.56,-3.56,-3.56,-3.56,-3.56,-3.56,-3.56,-3.56,-3.56,-3.56,-3.5701,-3.6248,-3.6011,-3.5718,-3.6265,-3.6011,-3.56,-3.56,-3.56,-3.56,-3.56,-3.56,-3.56,-3.56,-3.56,-3.56,-3.56,-3.56,-3.56,-3.56,-3.56,-3.56,-3.56,-3.56,-3.56,-3.56,-3.56,-3.56,-3.56,-3.56,-3.4957,-3.3487,-3.3406,-3.2747,-3.1258,-3.119,-3.119,-3.119,-3.119,-3.119,-3.119,-3.119,-3.119,-3.119,-3.119,-3.119,0.0,0.0,0.0,0.0,0.0,0.0,0.0,0.0,0.0,0.0,0.0,0.0,0.0,0.0,0.0,0.0,0.0,0.0,0.0,0.0,0.0,0.0,0.0,0.0,0.0,0.0,0.0,0.0,0.0,-3.6229,-3.6229,-3.6229,-3.6229,-3.6229,-3.6229,-3.5747,-3.4765,-3.4765,-3.4292,-3.3359,-3.3355,-3.3372,-3.3339,-3.3372,-3.3372,-3.3406,-3.415,-3.4878,-3.5532,-3.5583,-3.56,-3.56,-3.56,-3.56,-3.56,-3.56,-3.56,-3.56,-3.56,-3.56,-3.56,-3.56,-3.56,-3.56,-3.56,-3.56,-3.56,-3.56,-3.56,-3.56,-3.56,-3.56,-3.56,-3.56,-3.56,-3.56,-3.56,-3.56,-3.56,-3.56,-3.56,-3.56,-3.56,-3.56,-3.56,-3.56,-3.56,-3.56,-3.56,-3.56,-3.56,-3.56,-3.56,-3.56,-3.56,-3.5583,-3.494,-3.3491,-3.3389,-3.2713,-3.1258,-3.119,-3.119,-3.119,-3.119,-3.119,-3.119,-3.119,-3.119,-3.119,-3.119,-3.119,-2.1665,0.0,0.0,0.0,0.0,0.0,0.0,0.0,0.0,0.0,0.0,0.0,0.0,0.0,0.0,0.0,0.0,0.0,0.0,0.0,0.0,0.0,0.0,0.0,0.0,0.0,0.0,0.0,-3.4486,-3.4486,-3.4486,-3.4486,-3.4486,-3.4486,-3.4486,-3.4225,-3.3661,-3.3839,-3.3353,-3.224,-3.2488,-3.2307,-3.1833,-3.2357,-3.2615,-3.2666,-3.3372,-3.3829,-3.4078,-3.516,-3.56,-3.56,-3.56,-3.56,-3.56,-3.56,-3.56,-3.56,-3.56,-3.56,-3.56,-3.56,-3.56,-3.56,-3.56,-3.56,-3.56,-3.56,-3.56,-3.56,-3.56,-3.56,-3.56,-3.56,-3.56,-3.56,-3.56,-3.56,-3.56,-3.56,-3.56,-3.56,-3.56,-3.56,-3.56,-3.56,-3.56,-3.56,-3.56,-3.56,-3.56,-3.56,-3.56,-3.56,-3.56,-3.5115,-3.4404,-3.3457,-3.2899,-3.2192,-3.1241,-3.119,-3.119,-3.119,-3.119,-3.119,-3.119,-3.119,-3.119,-3.119,-3.119,-3.119,0.0,0.0,0.0,0.0,0.0,0.0,0.0,0.0,0.0,0.0,0.0,0.0,0.0,0.0,0.0,0.0,0.0,0.0,0.0,0.0,0.0,0.0,0.0,0.0,0.0,0.0,0.0,-3.3807,-3.3807,-3.3807,-3.3807,-3.3807,-3.3807,-3.3807,-3.3807,-3.3504,-3.2903,-3.306,-3.2617,-3.1564,-3.1754,-3.1633,-3.1207,-3.165,-3.1853,-3.1887,-3.2611,-3.3056,-3.3308,-3.4287,-3.467,-3.4704,-3.503,-3.5148,-3.5182,-3.5481,-3.56,-3.56,-3.56,-3.56,-3.56,-3.56,-3.56,-3.56,-3.56,-3.56,-3.56,-3.56,-3.56,-3.56,-3.56,-3.56,-3.56,-3.56,-3.56,-3.56,-3.56,-3.56,-3.56,-3.56,-3.56,-3.56,-3.56,-3.56,-3.56,-3.56,-3.56,-3.56,-3.56,-3.56,-3.56,-3.56,-3.56,-3.5481,-3.5182,-3.4742,-3.4049,-3.3,-3.2547,-3.1972,-3.1224,-3.119,-3.119,-3.119,-3.119,-3.119,-3.119,-3.119,-3.119,-3.119,-3.119,-3.119,0.0,0.0,0.0,0.0,0.0,0.0,-2.6353,-2.5949,0.0,0.0,0.0,0.0,0.0,0.0,0.0,0.0,0.0,0.0,0.0,0.0,0.0,0.0,0.0,0.0,0.0,-3.3618,-3.3605,-3.3584,-3.3545,-3.3568,-3.366,-3.3678,-3.3715,-3.3807,-3.3807,-3.3433,-3.2648,-3.255,-3.2109,-3.1349,-3.1249,-3.119,-3.119,-3.1249,-3.1271,-3.1322,-3.2009,-3.2556,-3.2971,-3.3154,-3.332,-3.3558,-3.4223,-3.4438,-3.4472,-3.5295,-3.5549,-3.5481,-3.5566,-3.56,-3.56,-3.56,-3.56,-3.56,-3.56,-3.56,-3.56,-3.56,-3.56,-3.56,-3.56,-3.56,-3.56,-3.56,-3.56,-3.56,-3.56,-3.56,-3.56,-3.56,-3.56,-3.56,-3.56,-3.56,-3.56,-3.56,-3.56,-3.56,-3.56,-3.56,-3.5566,-3.5481,-3.5481,-3.5177,-3.4438,-3.4303,-3.3715,-3.2378,-3.2226,-3.1887,-3.1224,-3.119,-3.119,-3.119,-3.119,-3.119,-3.119,-3.119,-3.119,-3.119,-3.119,-3.119,0.0,0.0,0.0,0.0,0.0,0.0,0.0,-2.4978,0.0,0.0,0.0,0.0,0.0,0.0,0.0,0.0,0.0,0.0,0.0,0.0,0.0,0.0,0.0,0.0,0.0,-3.2429,-3.2363,-3.221,-3.1992,-3.2155,-3.2803,-3.2821,-3.3115,-3.377,-3.3807,-3.3721,-3.355,-3.2856,-3.2417,-3.223,-3.1543,-3.119,-3.121,-3.1545,-3.1678,-3.1696,-3.2231,-3.251,-3.2579,-3.2243,-3.2831,-3.4014,-3.4372,-3.4134,-3.3778,-3.5109,-3.5211,-3.4793,-3.538,-3.56,-3.56,-3.56,-3.56,-3.56,-3.56,-3.56,-3.56,-3.56,-3.56,-3.56,-3.56,-3.56,-3.56,-3.56,-3.56,-3.56,-3.56,-3.56,-3.56,-3.56,-3.56,-3.56,-3.56,-3.56,-3.56,-3.56,-3.56,-3.56,-3.56,-3.56,-3.5363,-3.4776,-3.4709,-3.4421,-3.3677,-3.3068,-3.2615,-3.2327,-3.1752,-3.1343,-3.1207,-3.119,-3.119,-3.119,-3.119,-3.119,-3.119,-3.119,-3.119,-3.119,-3.119,-3.119,0.0,0.0,0.0,-2.5055,0.0,0.0,0.0,0.0,-2.4869,0.0,0.0,0.0,0.0,0.0,0.0,0.0,0.0,0.0,0.0,0.0,0.0,0.0,0.0,0.0,0.0,-3.2011,-3.1843,-3.1619,-3.1483,-3.158,-3.1971,-3.2008,-3.2375,-3.3183,-3.3201,-3.3191,-3.3148,-3.2729,-3.2282,-3.186,-3.162,-3.1507,-3.1507,-3.195,-3.2144,-3.2161,-3.2401,-3.2632,-3.2809,-3.2332,-3.2739,-3.3618,-3.3459,-3.3318,-3.3317,-3.4185,-3.4506,-3.4539,-3.4928,-3.5301,-3.5627,-3.592,-3.581,-3.5667,-3.592,-3.5827,-3.56,-3.56,-3.56,-3.56,-3.56,-3.56,-3.56,-3.56,-3.56,-3.56,-3.56,-3.56,-3.56,-3.56,-3.56,-3.56,-3.56,-3.56,-3.56,-3.56,-3.56,-3.56,-3.56,-3.5278,-3.4912,-3.4539,-3.4167,-3.3643,-3.2899,-3.2513,-3.2141,-3.1769,-3.1393,-3.119,-3.119,-3.119,-3.119,-3.119,-3.119,-3.119,-3.119,-3.119,-3.119,-3.121,-3.1411,-3.1391,0.0,0.0,0.0,0.0,0.0,-2.5411,0.0,0.0,0.0,-2.4998,0.0,0.0,0.0,0.0,0.0,0.0,0.0,0.0,0.0,0.0,0.0,0.0,0.0,0.0,0.0,-3.1345,-3.1206,-3.1142,-3.0897,-3.09,-3.1225,-3.1201,-3.1531,-3.2339,-3.2375,-3.2338,-3.2282,-3.2362,-3.2054,-3.1375,-3.1755,-3.1933,-3.1951,-3.2434,-3.2632,-3.2632,-3.2713,-3.2983,-3.3273,-3.2729,-3.2825,-3.3253,-3.2748,-3.2689,-3.2956,-3.3465,-3.3936,-3.4345,-3.4482,-3.5028,-3.569,-3.598,-3.5838,-3.5601,-3.6088,-3.5941,-3.56,-3.56,-3.56,-3.56,-3.56,-3.56,-3.56,-3.56,-3.56,-3.56,-3.56,-3.56,-3.56,-3.56,-3.56,-3.56,-3.56,-3.56,-3.56,-3.56,-3.5481,-3.538,-3.538,-3.4742,-3.4218,-3.4083,-3.3541,-3.2882,-3.2158,-3.209,-3.1836,-3.1241,-3.119,-3.119,-3.119,-3.119,-3.119,-3.119,-3.119,-3.119,-3.119,-3.119,-3.1249,-3.1312,-3.1641,-3.166,0.0,0.0,0.0,0.0,-2.8012,0.0,0.0,0.0,-2.6115,-2.5403,0.0,0.0,0.0,0.0,0.0,0.0,0.0,0.0,0.0,0.0,0.0,0.0,0.0,0.0,0.0,0.0,-2.9429,-3.0102,-2.912,-2.9126,-3.0615,-3.0462,-3.0705,-3.1513,-3.1544,-3.153,-3.1527,-3.188,-3.2005,-3.1915,-3.2264,-3.2417,-3.2434,-3.2921,-3.3105,-3.3136,-3.3508,-3.3675,-3.368,-3.284,-3.2981,-3.3707,-3.3533,-3.3089,-3.2717,-3.4058,-3.418,-3.3811,-3.4444,-3.52,-3.5764,-3.5097,-3.5058,-3.5287,-3.5601,-3.5667,-3.56,-3.56,-3.56,-3.56,-3.56,-3.56,-3.56,-3.56,-3.56,-3.56,-3.56,-3.56,-3.56,-3.56,-3.56,-3.56,-3.56,-3.56,-3.56,-3.56,-3.5047,-3.4624,-3.4624,-3.3981,-3.3271,-3.2615,-3.2479,-3.2141,-3.1396,-3.1309,-3.1275,-3.1207,-3.119,-3.119,-3.119,-3.119,-3.119,-3.119,-3.119,-3.119,-3.119,-3.119,-3.1372,-3.1734,-3.1789,-3.2004,0.0,0.0,0.0,0.0,0.0,0.0,-2.65,0.0,-2.5731,0.0,0.0,0.0,0.0,0.0,0.0,0.0,0.0,0.0,0.0,0.0,0.0,0.0,0.0,0.0,0.0,0.0,0.0,0.0,0.0,-2.7381,-2.9066,-2.8924,-2.9384,-3.065,-3.0705,-3.0826,-3.1043,-3.1223,-3.1167,-3.0912,-3.1788,-3.221,-3.2243,-3.3147,-3.355,-3.355,-3.3721,-3.3807,-3.3762,-3.3419,-3.3462,-3.3798,-3.3735,-3.3376,-3.2945,-3.331,-3.3493,-3.3634,-3.3935,-3.4408,-3.4741,-3.4138,-3.4239,-3.4584,-3.4368,-3.4315,-3.4315,-3.4315,-3.4641,-3.4962,-3.4962,-3.5278,-3.56,-3.56,-3.56,-3.56,-3.56,-3.5245,-3.5098,-3.5515,-3.5245,-3.4962,-3.4962,-3.5312,-3.5447,-3.503,-3.4692,-3.4336,-3.3914,-3.322,-3.2649,-3.2327,-3.1921,-3.1549,-3.1224,-3.119,-3.119,-3.119,-3.119,-3.119,-3.119,-3.119,-3.119,-3.119,-3.119,-3.1312,-3.1564,-3.1564,-3.1915,-3.2598,-3.2332,-3.2316,-2.9177,0.0,0.0,0.0,0.0,0.0,0.0,0.0,0.0,0.0,0.0,0.0,0.0,0.0,0.0,0.0,0.0,0.0,0.0,0.0,0.0,0.0,0.0,0.0,0.0,0.0,0.0,0.0,0.0,0.0,-2.7774,-2.7875,-2.8397,-2.9512,-2.9769,-3.0002,-3.0314,-3.0532,-3.0454,-3.0151,-3.1289,-3.1846,-3.1878,-3.2971,-3.3476,-3.3476,-3.3697,-3.3807,-3.3775,-3.368,-3.3707,-3.3793,-3.368,-3.3522,-3.3317,-3.2981,-3.3198,-3.3646,-3.3646,-3.3823,-3.4021,-3.399,-3.4086,-3.4173,-3.3862,-3.3666,-3.3598,-3.3598,-3.3989,-3.4376,-3.4227,-3.4851,-3.5482,-3.5504,-3.5411,-3.5367,-3.5638,-3.4908,-3.4397,-3.5069,-3.4643,-3.4201,-3.4201,-3.481,-3.5064,-3.4303,-3.4015,-3.3694,-3.3169,-3.2462,-3.2005,-3.2005,-3.1532,-3.119,-3.119,-3.119,-3.119,-3.119,-3.119,-3.119,-3.119,-3.119,-3.119,-3.119,-3.119,-3.1408,-3.1807,-3.1807,-3.2281,-3.3199,-3.284,-3.2745,0.0,0.0,0.0,-2.8723,0.0,0.0,0.0,0.0,-2.7332,0.0,0.0,0.0,0.0,0.0,0.0,0.0,0.0,0.0,0.0,0.0,0.0,0.0,0.0,0.0,0.0,0.0,0.0,0.0,0.0,0.0,-2.714,-2.7774,-2.8024,-2.7871,-2.862,-2.903,-2.9055,-2.9837,-3.0222,-3.021,-3.1041,-3.1408,-3.1445,-3.2271,-3.2638,-3.2674,-3.3458,-3.3807,-3.3762,-3.3375,-3.3451,-3.3762,-3.3361,-3.3451,-3.3793,-3.3762,-3.3766,-3.3785,-3.3785,-3.3803,-3.3995,-3.509,-3.4929,-3.4347,-3.4588,-3.438,-3.4086,-3.4086,-3.4103,-3.4002,-3.3549,-3.4326,-3.5227,-3.5287,-3.4915,-3.4789,-3.5687,-3.4584,-3.3586,-3.4056,-3.3755,-3.344,-3.344,-3.4049,-3.4286,-3.3558,-3.2835,-3.2361,-3.2344,-3.1701,-3.1241,-3.1241,-3.1207,-3.119,-3.119,-3.119,-3.119,-3.119,-3.119,-3.119,-3.119,-3.119,-3.119,-3.119,-3.119,-3.1408,-3.1807,-3.1807,-3.2281,-3.3199,-3.3184,-3.3375,0.0,0.0,-3.3083,-3.0256,0.0,0.0,0.0,0.0,0.0,0.0,0.0,0.0,0.0,0.0,0.0,0.0,0.0,0.0,0.0,0.0,0.0,0.0,0.0,0.0,0.0,0.0,0.0,0.0,0.0,0.0,0.0,-2.703,-2.751,-2.7987,-2.8655,-2.9005,-2.9005,-2.9262,-2.9409,-2.9427,-3.0228,-3.0613,-3.0632,-3.1439,-3.1806,-3.1843,-3.2669,-3.3005,-3.3041,-3.3433,-3.368,-3.3793,-3.3652,-3.368,-3.3807,-3.3807,-3.3807,-3.3762,-3.3494,-3.339,-3.3422,-3.3498,-3.3318,-3.3125,-3.3208,-3.3142,-3.3038,-3.3038,-3.3389,-3.3721,-3.3556,-3.4207,-3.4861,-3.4897,-3.4551,-3.4327,-3.4646,-3.3645,-3.2859,-3.3516,-3.3374,-3.3149,-3.3149,-3.3338,-3.3322,-3.2757,-3.2462,-3.2124,-3.1613,-3.1343,-3.119,-3.119,-3.119,-3.119,-3.119,-3.119,-3.119,-3.119,-3.119,-3.119,-3.119,-3.119,-3.119,-3.119,-3.119,-3.1562,-3.2247,-3.2247,-3.2727,-3.3592,-3.3592,-3.368,-3.4334,-3.4661,0.0,-3.1923,-3.1288,0.0,-2.7717,0.0,0.0,0.0,0.0,0.0,0.0,0.0,0.0,0.0,0.0,0.0,0.0,0.0,0.0,0.0,0.0,0.0,0.0,0.0,-2.3315,-2.4443,0.0,0.0,0.0,0.0,-2.687,-2.7561,-2.8224,-2.8712,-2.9005,-2.9005,-2.9005,-2.9005,-2.9537,-2.9757,-2.9794,-3.0613,-3.114,-3.1452,-3.2247,-3.2748,-3.306,-3.3587,-3.3807,-3.3807,-3.3807,-3.3807,-3.3807,-3.3807,-3.3807,-3.3762,-3.3508,-3.3404,-3.3361,-3.3057,-3.2965,-3.2965,-3.2965,-3.2856,-3.2745,-3.2745,-3.3085,-3.3428,-3.3243,-3.3896,-3.4515,-3.4394,-3.4015,-3.3748,-3.3921,-3.2891,-3.2139,-3.2919,-3.2802,-3.2624,-3.2788,-3.2824,-3.2661,-3.2188,-3.2007,-3.1752,-3.1258,-3.119,-3.119,-3.119,-3.119,-3.119,-3.119,-3.119,-3.119,-3.119,-3.119,-3.119,-3.119,-3.119,-3.119,-3.119,-3.1332,-3.1769,-3.2501,-3.2665,-3.3121,-3.3807,-3.3807,-3.3642]},{"header":{"parameterUnit":"m.s-1","parameterCategory":1,"la1":30.6,"la2":29.2853,"lo1":-89.7004,"lo2":-87.6739,"dy":0.0162,"dx":0.0183,"nx":112,"ny":82,"refTime":"2025-04-13T18:00:00:Z","depth":0,"parameterNumber":3,"parameterNumberName":"V-component_of_WINDS"},"data":[0.0,0.0,0.0,0.0,0.0,0.0,0.0,0.0,0.0,0.0,0.0,0.0,0.0,0.0,0.0,0.0,0.0,0.0,0.0,0.0,0.0,0.0,0.0,0.0,0.0,0.0,0.0,0.0,0.0,0.0,0.0,0.0,0.0,0.0,0.0,0.0,0.0,0.0,0.0,0.0,0.0,0.0,0.0,0.0,0.0,0.0,0.0,0.0,0.0,0.0,0.0,0.0,0.0,0.0,0.0,0.0,0.0,0.0,0.0,0.0,0.0,0.0,0.0,0.0,0.0,0.0,0.0,0.0,0.0,0.0,0.0,0.0,0.0,0.0,0.0,0.0,0.0,0.0,0.0,0.0,0.0,0.0,0.0,0.0,0.0,0.0,0.0,0.0,0.0,0.0,0.0,-1.8932,-1.9505,-1.966,-1.9284,-1.902,-1.7992,-1.5957,0.0,0.0,0.0,0.0,0.0,0.0,0.0,0.0,0.0,0.0,0.0,0.0,0.0,0.0,0.0,0.0,0.0,0.0,0.0,0.0,0.0,0.0,0.0,0.0,0.0,0.0,0.0,0.0,0.0,0.0,0.0,0.0,0.0,0.0,0.0,0.0,0.0,0.0,0.0,0.0,0.0,0.0,0.0,0.0,0.0,0.0,0.0,0.0,0.0,0.0,0.0,0.0,0.0,0.0,0.0,0.0,0.0,0.0,0.0,0.0,0.0,0.0,0.0,0.0,0.0,0.0,0.0,0.0,0.0,0.0,0.0,0.0,0.0,0.0,0.0,0.0,0.0,0.0,0.0,0.0,0.0,0.0,0.0,0.0,0.0,0.0,0.0,0.0,0.0,0.0,0.0,0.0,0.0,0.0,0.0,0.0,0.0,0.0,0.0,0.0,0.0,0.0,0.0,0.0,-1.7125,-2.0017,-2.0003,-1.9962,-2.0415,-1.9133,-1.7777,-1.645,0.0,0.0,0.0,0.0,0.0,0.0,0.0,0.0,0.0,0.0,0.0,0.0,0.0,0.0,0.0,0.0,0.0,0.0,0.0,0.0,0.0,0.0,0.0,0.0,0.0,0.0,0.0,0.0,0.0,0.0,0.0,0.0,0.0,0.0,0.0,0.0,0.0,0.0,0.0,0.0,0.0,0.0,0.0,0.0,0.0,0.0,0.0,0.0,0.0,0.0,0.0,0.0,0.0,0.0,0.0,0.0,0.0,0.0,0.0,0.0,0.0,0.0,0.0,0.0,0.0,0.0,0.0,0.0,0.0,0.0,0.0,0.0,0.0,0.0,0.0,0.0,0.0,0.0,0.0,0.0,0.0,0.0,0.0,0.0,0.0,0.0,0.0,0.0,0.0,0.0,0.0,0.0,0.0,0.0,0.0,0.0,0.0,0.0,0.0,0.0,0.0,0.0,0.0,-1.73,-1.835,-2.0438,-2.0699,-2.0729,-2.0691,-1.9422,-1.8017,-1.6588,-1.4689,0.0,0.0,0.0,0.0,0.0,0.0,0.0,0.0,0.0,0.0,0.0,0.0,0.0,0.0,0.0,0.0,0.0,0.0,0.0,0.0,0.0,0.0,0.0,0.0,0.0,0.0,0.0,0.0,0.0,0.0,0.0,0.0,0.0,0.0,0.0,0.0,0.0,0.0,0.0,0.0,0.0,0.0,0.0,0.0,0.0,0.0,0.0,0.0,0.0,0.0,0.0,0.0,0.0,0.0,0.0,0.0,0.0,0.0,0.0,0.0,0.0,0.0,0.0,0.0,0.0,0.0,0.0,0.0,0.0,0.0,0.0,0.0,0.0,0.0,0.0,0.0,0.0,0.0,0.0,0.0,0.0,0.0,0.0,0.0,0.0,0.0,0.0,0.0,0.0,0.0,0.0,0.0,0.0,0.0,0.0,0.0,0.0,0.0,0.0,0.0,0.0,0.0,-1.8835,-1.9629,-2.0758,-2.127,-2.1345,-2.0918,-1.961,-1.819,-1.676,-1.4374,0.0,0.0,0.0,0.0,0.0,0.0,0.0,0.0,0.0,0.0,0.0,0.0,0.0,0.0,0.0,0.0,0.0,0.0,0.0,0.0,0.0,0.0,0.0,0.0,0.0,0.0,0.0,0.0,0.0,0.0,0.0,0.0,0.0,0.0,0.0,0.0,0.0,0.0,0.0,0.0,0.0,0.0,0.0,0.0,0.0,0.0,0.0,0.0,0.0,0.0,0.0,0.0,0.0,0.0,0.0,0.0,0.0,0.0,0.0,0.0,0.0,0.0,0.0,0.0,0.0,0.0,0.0,0.0,0.0,0.0,0.0,0.0,0.0,0.0,0.0,0.0,0.0,0.0,0.0,0.0,0.0,0.0,0.0,0.0,0.0,0.0,0.0,0.0,0.0,0.0,0.0,0.0,0.0,0.0,0.0,0.0,0.0,0.0,0.0,0.0,0.0,0.0,-1.8579,-2.0188,-2.1325,-2.1496,-2.1468,-2.1458,-1.9484,-1.7949,-1.7193,-1.4208,0.0,0.0,0.0,0.0,0.0,0.0,0.0,0.0,0.0,0.0,0.0,0.0,0.0,0.0,0.0,0.0,0.0,0.0,0.0,0.0,0.0,0.0,0.0,0.0,0.0,0.0,0.0,0.0,0.0,0.0,0.0,0.0,0.0,0.0,0.0,0.0,0.0,0.0,0.0,0.0,0.0,0.0,0.0,0.0,0.0,0.0,0.0,0.0,0.0,0.0,0.0,0.0,0.0,0.0,0.0,0.0,0.0,0.0,0.0,0.0,0.0,0.0,0.0,0.0,0.0,0.0,0.0,0.0,0.0,0.0,0.0,0.0,0.0,0.0,0.0,0.0,0.0,0.0,0.0,0.0,0.0,0.0,0.0,0.0,0.0,0.0,0.0,0.0,0.0,0.0,0.0,0.0,0.0,0.0,0.0,0.0,0.0,0.0,0.0,0.0,0.0,0.0,-1.8809,-2.0232,0.0,-2.2108,-2.2234,-2.1543,-2.0087,-1.8502,-1.6871,0.0,0.0,0.0,0.0,0.0,0.0,0.0,0.0,0.0,0.0,0.0,0.0,0.0,0.0,0.0,0.0,0.0,0.0,0.0,0.0,0.0,0.0,0.0,0.0,0.0,0.0,0.0,0.0,0.0,0.0,0.0,0.0,0.0,0.0,0.0,0.0,0.0,0.0,0.0,0.0,0.0,0.0,0.0,0.0,0.0,0.0,0.0,0.0,0.0,0.0,0.0,0.0,0.0,0.0,0.0,0.0,0.0,0.0,0.0,0.0,0.0,0.0,0.0,0.0,0.0,0.0,0.0,0.0,0.0,0.0,0.0,0.0,0.0,0.0,0.0,0.0,0.0,0.0,0.0,0.0,0.0,0.0,0.0,0.0,0.0,0.0,0.0,0.0,0.0,0.0,0.0,0.0,0.0,0.0,0.0,0.0,0.0,0.0,0.0,0.0,0.0,0.0,-1.774,-1.9244,-2.0501,0.0,-2.2556,-2.2656,-2.1581,-2.03,-1.8742,-1.6841,0.0,0.0,0.0,0.0,0.0,0.0,0.0,0.0,0.0,0.0,0.0,0.0,0.0,0.0,0.0,0.0,0.0,0.0,0.0,0.0,0.0,0.0,0.0,0.0,0.0,0.0,0.0,0.0,0.0,0.0,0.0,0.0,0.0,0.0,0.0,0.0,0.0,0.0,0.0,0.0,0.0,0.0,0.0,0.0,0.0,0.0,0.0,0.0,0.0,0.0,0.0,0.0,0.0,0.0,0.0,0.0,0.0,0.0,0.0,0.0,0.0,0.0,0.0,0.0,0.0,0.0,0.0,0.0,0.0,0.0,0.0,0.0,0.0,0.0,0.0,0.0,0.0,0.0,0.0,0.0,0.0,0.0,0.0,0.0,0.0,0.0,0.0,0.0,0.0,0.0,0.0,0.0,0.0,0.0,0.0,0.0,0.0,0.0,0.0,0.0,0.0,0.0,-1.8287,-1.9828,-2.1119,-2.2196,-2.2782,-2.2656,-2.1581,-1.9974,-1.8483,0.0,0.0,0.0,0.0,0.0,0.0,0.0,0.0,0.0,0.0,0.0,0.0,0.0,0.0,0.0,0.0,0.0,0.0,0.0,0.0,0.0,0.0,0.0,0.0,0.0,0.0,0.0,0.0,0.0,0.0,0.0,0.0,0.0,0.0,0.0,0.0,0.0,0.0,0.0,0.0,0.0,0.0,0.0,0.0,0.0,0.0,0.0,0.0,0.0,0.0,0.0,0.0,0.0,0.0,0.0,0.0,0.0,0.0,0.0,0.0,0.0,0.0,0.0,0.0,0.0,0.0,0.0,0.0,0.0,0.0,0.0,0.0,0.0,0.0,0.0,0.0,0.0,0.0,0.0,0.0,0.0,0.0,0.0,0.0,0.0,0.0,0.0,0.0,0.0,0.0,0.0,0.0,0.0,0.0,0.0,0.0,0.0,0.0,0.0,0.0,0.0,0.0,0.0,-1.8341,-2.0177,-2.1518,-2.2234,-2.2782,-2.2656,-2.1581,-2.0313,-1.8742,-1.6841,0.0,0.0,0.0,0.0,0.0,0.0,0.0,0.0,0.0,0.0,0.0,0.0,0.0,0.0,0.0,0.0,0.0,0.0,0.0,0.0,0.0,0.0,0.0,0.0,0.0,0.0,0.0,0.0,0.0,0.0,0.0,0.0,0.0,0.0,0.0,0.0,0.0,0.0,0.0,0.0,0.0,0.0,0.0,0.0,0.0,0.0,0.0,0.0,0.0,0.0,0.0,0.0,0.0,0.0,0.0,0.0,0.0,0.0,0.0,0.0,0.0,0.0,0.0,0.0,0.0,0.0,0.0,0.0,0.0,0.0,0.0,0.0,0.0,0.0,0.0,0.0,0.0,0.0,0.0,0.0,0.0,0.0,0.0,0.0,0.0,0.0,0.0,0.0,0.0,0.0,0.0,0.0,0.0,0.0,0.0,0.0,0.0,0.0,0.0,0.0,0.0,0.0,-1.9011,-2.0604,-2.1782,-2.2531,-2.2907,-2.2656,-2.1581,-2.0665,-1.9208,-1.6999,0.0,0.0,0.0,0.0,0.0,0.0,0.0,0.0,0.0,0.0,0.0,0.0,0.0,0.0,0.0,0.0,0.0,0.0,0.0,0.0,0.0,0.0,0.0,0.0,0.0,0.0,0.0,0.0,0.0,0.0,0.0,0.0,0.0,0.0,0.0,0.0,0.0,0.0,0.0,0.0,0.0,0.0,0.0,0.0,0.0,0.0,0.0,0.0,0.0,0.0,0.0,0.0,0.0,0.0,0.0,0.0,0.0,0.0,0.0,0.0,0.0,0.0,0.0,0.0,0.0,0.0,0.0,0.0,0.0,0.0,0.0,0.0,0.0,0.0,0.0,0.0,0.0,0.0,0.0,0.0,0.0,0.0,0.0,0.0,0.0,0.0,0.0,0.0,0.0,0.0,0.0,0.0,0.0,0.0,0.0,0.0,0.0,0.0,0.0,0.0,0.0,0.0,-2.0007,-2.1043,-2.1907,-2.2995,-2.3108,-2.2681,-2.1656,-2.1043,-1.9774,-1.7612,0.0,0.0,0.0,0.0,0.0,0.0,0.0,0.0,0.0,0.0,0.0,0.0,0.0,0.0,0.0,0.0,0.0,0.0,0.0,0.0,0.0,0.0,0.0,0.0,0.0,0.0,0.0,0.0,0.0,0.0,0.0,0.0,0.0,0.0,0.0,0.0,0.0,0.0,0.0,0.0,0.0,0.0,0.0,0.0,0.0,0.0,0.0,0.0,0.0,0.0,0.0,0.0,0.0,0.0,0.0,0.0,0.0,0.0,0.0,0.0,-1.6304,0.0,0.0,0.0,0.0,0.0,0.0,0.0,0.0,0.0,0.0,0.0,0.0,0.0,0.0,0.0,0.0,0.0,0.0,0.0,0.0,0.0,0.0,0.0,0.0,0.0,0.0,0.0,0.0,0.0,0.0,0.0,0.0,0.0,0.0,0.0,0.0,0.0,0.0,0.0,0.0,0.0,-1.9975,-2.1043,-2.1907,-2.2995,-2.3108,-2.2832,-2.2196,-2.1257,-1.9937,-1.8141,-1.624,0.0,0.0,0.0,0.0,0.0,0.0,0.0,0.0,0.0,0.0,0.0,0.0,0.0,0.0,0.0,0.0,0.0,0.0,0.0,0.0,0.0,0.0,0.0,0.0,0.0,0.0,0.0,0.0,0.0,0.0,0.0,0.0,0.0,0.0,0.0,0.0,0.0,0.0,0.0,0.0,0.0,0.0,0.0,0.0,0.0,0.0,0.0,0.0,0.0,0.0,0.0,0.0,0.0,0.0,0.0,0.0,0.0,0.0,0.0,0.0,-1.7827,0.0,0.0,0.0,0.0,0.0,0.0,0.0,0.0,0.0,0.0,0.0,0.0,0.0,0.0,0.0,0.0,0.0,0.0,0.0,0.0,0.0,0.0,0.0,0.0,0.0,0.0,0.0,0.0,0.0,0.0,0.0,0.0,0.0,0.0,0.0,0.0,0.0,0.0,0.0,0.0,-2.0117,-2.1093,-2.1907,-2.2995,-2.3108,-2.2882,-2.2359,-2.1543,-2.049,-1.9058,-1.7052,0.0,0.0,0.0,0.0,0.0,0.0,0.0,0.0,0.0,0.0,0.0,0.0,0.0,0.0,0.0,0.0,0.0,0.0,0.0,0.0,0.0,0.0,0.0,0.0,0.0,0.0,0.0,0.0,0.0,0.0,0.0,0.0,0.0,0.0,0.0,0.0,0.0,0.0,0.0,0.0,0.0,0.0,0.0,0.0,0.0,0.0,0.0,0.0,0.0,0.0,0.0,0.0,0.0,-2.2723,-2.3276,-2.3684,-2.3684,-2.4029,-2.4443,-2.2108,-2.1104,-2.1043,0.0,0.0,0.0,0.0,0.0,0.0,0.0,0.0,0.0,0.0,0.0,0.0,0.0,0.0,0.0,0.0,0.0,0.0,0.0,0.0,0.0,0.0,0.0,0.0,0.0,-2.0313,-1.9736,0.0,0.0,0.0,0.0,0.0,0.0,0.0,0.0,0.0,0.0,0.0,0.0,-2.045,-2.128,-2.202,-2.2995,-2.3108,-2.292,-2.2498,-2.1857,-2.1054,-2.0012,-1.7978,-1.6321,0.0,0.0,0.0,0.0,0.0,0.0,0.0,0.0,0.0,0.0,0.0,0.0,0.0,0.0,0.0,0.0,0.0,0.0,0.0,0.0,0.0,0.0,0.0,0.0,0.0,0.0,0.0,0.0,0.0,0.0,0.0,0.0,-1.0283,-1.1322,0.0,0.0,0.0,0.0,0.0,0.0,0.0,0.0,0.0,0.0,0.0,0.0,0.0,-2.1182,-2.1854,-2.3371,-2.4211,-2.4362,-2.5456,-2.5984,-2.6059,-2.6059,-2.6361,-2.6829,-2.6452,0.0,-2.2732,-2.2105,0.0,0.0,0.0,0.0,0.0,0.0,0.0,0.0,0.0,0.0,0.0,0.0,0.0,0.0,0.0,0.0,0.0,0.0,0.0,0.0,0.0,0.0,-2.1719,-2.1933,-2.2318,-2.2431,0.0,-1.9623,-1.7601,-1.6312,-1.5367,0.0,0.0,0.0,0.0,0.0,0.0,0.0,-2.1092,-2.1854,-2.2447,-2.3045,-2.3108,-2.307,-2.3007,-2.2083,-2.1257,-2.0616,-1.8932,-1.7476,-1.6346,-1.5185,0.0,0.0,0.0,0.0,0.0,0.0,0.0,0.0,0.0,0.0,0.0,0.0,0.0,0.0,0.0,0.0,0.0,0.0,0.0,0.0,0.0,0.0,0.0,0.0,0.0,0.0,0.0,0.0,0.0,-1.0767,-1.2061,-1.1953,-1.2363,-1.2615,0.0,0.0,0.0,0.0,0.0,0.0,0.0,0.0,0.0,-2.1747,-2.2782,-2.389,-2.5096,-2.5837,-2.6515,-2.7095,-2.762,-2.8021,-2.8335,-2.8335,-2.8461,-2.8699,-2.8699,-2.7821,-2.6242,-2.477,-2.3364,-2.2071,0.0,0.0,0.0,0.0,-2.0964,-2.0727,-2.2209,-2.2322,0.0,-2.182,0.0,0.0,0.0,0.0,0.0,0.0,0.0,0.0,0.0,0.0,0.0,-2.3547,-2.3873,-2.3985,-2.3747,-2.2535,-2.0853,0.0,-1.8265,-1.7574,-1.5764,0.0,0.0,0.0,0.0,0.0,-2.1283,-2.1977,-2.2493,-2.3045,-2.3108,-2.3108,-2.3108,-2.238,-2.1719,-2.1182,-1.9861,-1.8606,-1.7491,-1.6396,-1.5166,0.0,0.0,0.0,0.0,0.0,0.0,0.0,0.0,0.0,0.0,0.0,0.0,0.0,0.0,0.0,0.0,0.0,0.0,0.0,0.0,0.0,0.0,0.0,0.0,0.0,0.0,0.0,0.0,-1.2285,-1.3271,-1.2603,-1.3383,-1.3899,0.0,0.0,0.0,0.0,0.0,0.0,-2.0883,-2.2104,-2.3325,-2.4728,-2.5464,-2.6465,-2.7695,-2.7846,-2.8411,-2.9314,-2.9176,-2.9515,-3.0193,-3.0068,-3.008,-3.0193,-3.0055,-2.9754,-2.9164,-2.7105,-2.5598,-2.4531,-2.354,-2.2824,-2.246,-2.3384,-2.3471,-2.3401,-2.5197,-2.5297,-2.4657,-2.4795,0.0,-2.2334,-2.1217,0.0,0.0,0.0,0.0,-2.2799,-2.3873,-2.4161,-2.4412,-2.539,-2.5628,-2.5624,-2.5485,-2.5021,-2.3879,0.0,-2.0991,-2.0415,-1.8166,0.0,0.0,0.0,0.0,-2.0849,-2.1788,-2.2523,-2.302,-2.3296,-2.3333,-2.3271,-2.3108,-2.2606,-2.2071,-2.1518,-2.0564,-1.9535,-1.8455,-1.7476,-1.6421,-1.5336,0.0,0.0,0.0,0.0,0.0,0.0,0.0,0.0,0.0,0.0,0.0,0.0,0.0,0.0,0.0,0.0,0.0,0.0,0.0,0.0,0.0,0.0,0.0,0.0,0.0,0.0,0.0,0.0,0.0,-1.3447,-1.4551,0.0,0.0,0.0,0.0,-2.0139,-2.0488,-2.1739,-2.4389,-2.5628,-2.6527,-2.7095,-2.8135,-2.8725,-2.8813,-2.939,-2.9955,-3.052,-2.9993,-3.0294,-3.1298,-3.0796,-3.0846,-3.1286,-3.0783,-3.0557,-3.0394,-2.8687,-2.7331,-2.6311,-2.5674,-2.5109,-2.4687,-2.5272,-2.5448,-2.5523,-2.6223,-2.6411,-2.6461,-2.6989,-2.6327,-2.5184,-2.4117,-2.3791,0.0,0.0,-2.4556,-2.5649,-2.6779,-2.7067,-2.7218,-2.7808,-2.7934,-2.7795,-2.7268,-2.6763,-2.5871,0.0,-2.2949,-2.202,-2.1355,0.0,-2.1134,-2.0595,-2.1902,-2.2954,-2.3004,-2.3985,-2.4474,-2.4004,-2.3954,-2.3728,-2.3145,-2.2606,-2.2071,-2.1518,-2.0968,-2.0163,-1.9008,-1.843,-1.7589,-1.6437,-1.4256,0.0,0.0,0.0,0.0,0.0,0.0,0.0,0.0,0.0,0.0,0.0,0.0,0.0,0.0,0.0,0.0,0.0,0.0,0.0,0.0,0.0,0.0,0.0,0.0,0.0,0.0,0.0,0.0,-1.5556,-1.6677,0.0,0.0,-1.8363,-1.9467,-2.108,-2.2792,-2.4385,-2.5816,-2.7271,-2.8473,-2.9402,-2.9804,-3.0168,-3.0507,-3.0721,-3.0922,-3.111,-3.0922,-3.1022,-3.1386,-3.1198,-3.1223,-3.1386,-3.1198,-3.111,-3.1035,-3.0105,-2.9063,-2.8034,-2.7821,-2.7419,-2.7005,-2.7544,-2.7733,-2.7821,-2.8398,-2.836,-2.7959,-2.7444,-2.7017,-2.654,-2.5833,-2.5871,-2.6113,-2.6113,-2.664,-2.7306,-2.7708,-2.7808,-2.7858,-2.8059,-2.8109,-2.8047,-2.7858,-2.7381,-2.6851,-2.6226,-2.4921,-2.364,-2.2681,-2.2862,-2.2908,-2.2338,-2.3065,-2.3791,-2.4155,-2.4537,-2.4575,-2.4054,-2.4004,-2.3766,-2.3158,-2.2606,-2.2071,-2.1518,-2.0993,-2.0038,-1.8555,-1.8304,-1.7654,-1.6525,-1.5053,-1.3694,0.0,0.0,0.0,0.0,0.0,0.0,0.0,0.0,0.0,0.0,0.0,0.0,0.0,0.0,0.0,0.0,0.0,0.0,0.0,0.0,0.0,0.0,0.0,0.0,0.0,0.0,-1.7126,-1.7126,-1.8383,-1.933,-1.9472,-2.0172,-2.1176,-2.2506,-2.4443,-2.5983,-2.7011,-2.8591,-2.9803,-3.0595,-3.0783,-3.1047,-3.1386,-3.1386,-3.1486,-3.1662,-3.1486,-3.1587,-3.1951,-3.175,-3.1775,-3.1951,-3.175,-3.1675,-3.1625,-3.1097,-3.0432,-2.9729,-2.9327,-2.9001,-2.8725,-2.9089,-2.9176,-2.9277,-2.9666,-2.9541,-2.9101,-2.836,-2.8122,-2.8021,-2.7469,-2.7682,-2.8084,-2.7896,-2.8247,-2.8674,-2.8674,-2.8674,-2.8674,-2.8674,-2.8674,-2.8624,-2.8423,-2.8097,-2.772,-2.7356,-2.6251,-2.5071,-2.4098,-2.4293,-2.4343,-2.376,-2.418,-2.4669,-2.5034,-2.5259,-2.5159,-2.4594,-2.4381,-2.401,-2.3446,-2.2719,-2.2071,-2.1518,-2.0817,-1.9837,-1.8506,-1.8129,-1.7576,-1.6823,-1.555,-1.4301,-1.3113,0.0,0.0,0.0,0.0,0.0,0.0,0.0,0.0,0.0,0.0,0.0,0.0,0.0,0.0,0.0,0.0,0.0,0.0,0.0,0.0,0.0,0.0,0.0,-1.5488,-1.6982,-1.8086,-1.8125,-1.9609,-2.0665,-2.0679,-2.1068,-2.227,-2.4563,-2.5457,-2.6542,-2.8004,-2.9687,-3.0645,-3.067,-3.1148,-3.1424,-3.1436,-3.1436,-3.1712,-3.2227,-3.17,-3.2014,-3.3056,-3.2491,-3.2554,-3.3086,-3.2478,-3.224,-3.2202,-3.165,-3.1411,-3.1311,-3.0256,-2.9829,-2.9817,-2.9817,-2.9804,-2.9792,-2.9792,-2.9792,-2.9792,-2.9792,-2.9792,-2.9691,-2.9126,-2.9352,-2.9679,-2.9076,-2.9365,-2.9792,-2.9792,-2.9792,-2.9792,-2.9792,-2.9792,-2.9641,-2.9038,-2.89,-2.8574,-2.7544,-2.6901,-2.6336,-2.5724,-2.5624,-2.5448,-2.4913,-2.531,0.0,-2.5624,-2.6147,-2.6273,-2.5649,-2.5134,-2.4562,-2.4054,-2.2949,-2.2046,-2.1493,-2.0401,-1.9547,-1.8995,-1.7953,-1.7398,-1.7373,-1.5739,-1.446,-1.3535,0.0,0.0,0.0,0.0,0.0,0.0,0.0,0.0,0.0,0.0,0.0,0.0,0.0,0.0,0.0,0.0,0.0,0.0,0.0,0.0,0.0,0.0,-1.7295,-1.7295,-1.8506,-1.9746,-2.0703,-2.1504,-2.2085,-2.2383,-2.3245,-2.3751,-2.3598,-2.6329,-2.7888,-2.7531,-2.9849,-3.1361,-3.1763,-3.1913,-3.219,-3.2616,-3.2616,-3.2692,-3.283,-3.2679,-3.2822,-3.3111,-3.2918,-3.293,-3.3111,-3.2905,-3.2842,-3.2792,-3.2215,-3.1989,-3.1913,-3.1223,-3.0721,-3.0394,-3.0394,-3.0131,-2.9792,-2.9792,-2.9792,-2.9792,-2.9792,-2.9792,-2.9767,-2.9603,-2.9666,-2.9767,-2.9603,-2.9666,-2.9792,-2.9792,-2.9792,-2.9792,-2.9792,-2.9792,-2.9741,-2.9591,-2.9227,-2.88,-2.8536,-2.7708,-2.6914,-2.6348,-2.626,-2.621,-2.6059,-2.6172,0.0,-2.626,-2.6399,-2.6273,-2.5649,-2.5134,-2.4562,-2.4054,-2.2598,-2.1481,-2.0955,-1.9849,-1.897,-1.8455,-1.7752,-1.7187,-1.676,-1.5758,-1.49,0.0,0.0,0.0,0.0,0.0,0.0,0.0,0.0,0.0,0.0,0.0,0.0,0.0,0.0,0.0,0.0,0.0,0.0,0.0,0.0,0.0,0.0,-1.7637,-1.9004,-1.9551,-2.0273,-2.1094,-2.2041,-2.2519,-2.2828,-2.3071,-2.3884,-2.4126,-2.3452,-2.6529,-2.8226,-2.7599,-3.0217,-3.1888,-3.2202,-3.2453,-3.2742,-3.3124,-3.3124,-3.3124,-3.3124,-3.3124,-3.3124,-3.3124,-3.3124,-3.3124,0.0,-3.3124,-3.3124,-3.3056,-3.2717,-3.2579,0.0,0.0,0.0,0.0,0.0,-3.0269,-2.9792,-2.9792,-2.9792,-2.9792,-2.9792,-2.9792,-2.9792,-2.9792,-2.9792,-2.9792,-2.9792,-2.9792,-2.9792,-2.9792,-2.9792,-2.9792,-2.9792,-2.9792,-2.9792,-2.9792,-2.9528,-2.9176,-2.8938,-2.8222,0.0,-2.6939,-2.665,-2.6499,-2.6499,-2.6499,-2.6499,-2.6499,-2.6499,-2.6361,-2.6021,-2.5272,-2.4662,-2.4368,-2.2799,0.0,0.0,0.0,-1.8882,-1.7903,-1.7574,0.0,0.0,0.0,0.0,0.0,0.0,0.0,0.0,-1.4615,-1.4245,0.0,0.0,0.0,0.0,0.0,0.0,0.0,0.0,0.0,0.0,0.0,0.0,0.0,0.0,0.0,0.0,-1.9268,-2.0566,-2.1787,-2.2002,-2.2168,-2.2539,-2.2867,-2.311,-2.3169,-2.3564,-2.3809,-2.3857,-2.6437,-2.8007,-2.8007,0.0,0.0,0.0,0.0,-3.3124,-3.3124,-3.3174,-3.3212,-3.3212,-3.3212,-3.3212,-3.3212,-3.3149,-3.3124,-3.3124,-3.3124,-3.3124,-3.3124,-3.3124,-3.3124,-3.3011,-3.1901,-3.1486,-3.1411,-3.0834,-3.0306,-2.988,-2.9817,0.0,0.0,-2.9792,-2.9792,-2.9792,-2.9792,-2.9792,-2.9792,-2.9792,-2.9792,-2.9792,-2.9792,-2.9792,-2.9792,-2.9792,-2.9792,-2.9792,-2.9792,-2.9792,-2.9641,-2.9126,-2.8574,-2.8021,-2.7469,-2.6901,-2.6499,-2.6499,-2.6499,-2.6499,-2.6499,-2.6499,-2.6499,-2.6499,0.0,0.0,-2.48,-2.3308,-2.2146,-2.1531,-2.0426,-1.9133,-1.7626,-1.7564,-1.7561,-1.7498,-1.7498,-1.7714,-1.8204,-1.8204,-1.8204,-1.8141,-1.5447,-1.4845,0.0,0.0,0.0,0.0,0.0,0.0,0.0,0.0,0.0,0.0,0.0,0.0,0.0,0.0,0.0,-1.8877,-2.043,-2.1709,-2.2305,-2.2643,-2.2886,-2.2964,-2.3042,-2.3227,-2.3633,-2.374,-2.3935,-2.4268,-2.6973,-2.8633,-2.8633,-3.1342,0.0,-3.2918,-3.3061,-3.3124,-3.3124,-3.352,-3.3746,-3.3746,0.0,0.0,-3.3721,-3.3282,-3.3124,-3.3124,-3.3124,-3.3124,-3.3124,-3.3124,-3.3124,-3.3048,-3.2315,-3.2051,-3.1938,-3.0972,-3.0545,-3.0394,-2.9942,-2.9792,-2.9792,-2.9792,-2.9792,-2.9792,-2.9792,-2.9792,0.0,-2.9792,-2.9792,-2.9792,-2.9792,-2.9792,-2.9792,-2.9792,-2.9792,-2.9792,-2.9792,-2.9792,-2.9767,-2.9641,-2.9164,-2.8549,-2.8047,-2.7153,-2.6499,-2.6499,-2.6499,-2.6499,-2.6499,-2.6499,-2.6499,-2.6499,-2.585,-2.5272,-2.4825,-2.3659,-2.2518,-2.1556,-2.0426,-1.9472,-1.8719,-1.8682,-1.8481,-1.8053,-1.8053,-1.8103,-1.8204,-1.8204,-1.8204,-1.8191,-1.7607,-1.7481,0.0,0.0,0.0,0.0,0.0,0.0,0.0,0.0,0.0,0.0,0.0,-1.6378,0.0,0.0,-1.958,-2.0449,-2.1494,-2.2344,-2.2721,-2.2964,-2.3091,-2.3091,-2.3286,-2.3555,-2.3769,-2.418,-2.4512,-2.4727,-2.6877,-2.8193,-2.8193,-3.0144,-3.1512,-3.214,-3.1752,-3.1851,-3.2511,-3.3036,-3.3305,-3.3317,-3.3973,-3.4311,-3.4299,-3.3746,-3.3483,-3.347,-3.3206,-3.3124,-3.3124,-3.3124,-3.3124,-3.3056,-3.2754,-3.2466,-3.2152,-3.1612,-3.1072,-3.057,-3.0306,-3.0018,-2.9792,-2.9792,-2.9792,-2.9792,-2.9792,-2.9792,-2.9792,-2.9792,-2.9792,-2.9792,-2.9792,-2.9792,-2.9792,-2.9792,-2.9792,-2.9792,-2.9792,-2.9792,-2.9792,-2.9792,-2.9327,-2.8712,-2.8197,-2.7419,-2.6813,-2.6537,-2.6499,-2.6499,-2.6499,-2.6499,-2.6499,-2.6499,-2.5971,-2.5385,-2.4838,-2.3496,-2.2456,-2.1933,-2.1117,-2.0413,-1.9874,-1.9849,-1.9585,-1.9007,-1.9007,-1.9007,-1.9007,-1.9296,-1.9459,-1.9472,-1.9723,-1.9409,0.0,0.0,0.0,0.0,0.0,0.0,0.0,0.0,-1.5225,-1.6543,-1.7416,-1.8135,-1.8948,-2.0059,-2.1124,-2.1875,-2.2353,-2.2711,-2.3052,-2.3091,-2.3091,-2.3091,-2.3525,-2.3828,-2.3906,-2.4609,-2.5145,-2.5195,-2.6683,-2.7589,-2.7589,-2.8727,-2.9897,-3.0951,-3.0329,-3.0544,-3.1645,-3.2441,-3.2841,-3.2888,-3.42,-3.4876,-3.4818,-3.4311,-3.3997,-3.3872,-3.3319,-3.3124,-3.3124,-3.3124,-3.3124,-3.3124,-3.3124,-3.2792,-3.2365,-3.2252,-3.1599,-3.0758,-3.0658,-3.0256,-2.9792,-2.9792,-2.9792,-2.9792,-2.9792,-2.9792,-2.9792,-2.9792,-2.9792,-2.9792,-2.9792,-2.9792,-2.9792,-2.9792,-2.9792,-2.9792,-2.9792,-2.9792,-2.9792,-2.9792,-2.9415,-2.8888,-2.8222,-2.7733,-2.7253,-2.66,-2.6499,-2.6499,-2.6499,-2.6499,-2.6499,-2.6499,-2.6072,-2.5511,-2.4838,-2.3489,-2.2585,-2.2443,-2.1958,-2.1443,-2.1031,-2.0905,-2.0629,-2.0137,-2.0125,-2.0125,-2.0125,-2.0629,-2.0855,-2.0867,-2.1307,-2.0778,-1.4063,-1.3607,0.0,-1.4336,-1.4853,-1.5703,0.0,0.0,-1.7939,-1.9219,-1.9561,-1.9865,-2.0742,-2.1377,-2.1894,-2.2363,-2.275,-2.3042,-2.3091,-2.3091,-2.3091,-2.3091,-2.3525,-2.3935,-2.4307,-2.4785,-2.5234,-2.5635,-2.6867,-2.7589,-2.7589,-2.8727,-2.9655,-3.0117,-3.0043,-3.0289,-3.0833,-3.2544,-3.3387,-3.3434,-3.4767,-3.5408,-3.5395,-3.4876,-3.4361,-3.3872,-3.3319,-3.3124,-3.3124,-3.3124,-3.3124,-3.3124,-3.3124,-3.3074,-3.2918,-3.2403,-3.1825,-3.1235,-3.0783,-3.0256,-2.9792,-2.9792,-2.9792,-2.9792,-2.9792,-2.9792,-2.9792,-2.9792,-2.9792,-2.9792,-2.9792,-2.9792,-2.9792,-2.9792,-2.9792,-2.9792,-2.9792,-2.9792,-2.9792,-2.9792,-2.9741,-2.9365,-2.8285,-2.8059,-2.7657,-2.665,-2.6499,-2.6499,-2.6499,-2.6499,-2.6499,-2.6499,-2.6436,-2.5984,-2.4876,-2.4205,-2.359,-2.3045,-2.2493,-2.2184,-2.2133,-2.1656,-2.1395,-2.1305,-2.1305,-2.1305,-2.1305,-2.1395,-2.1393,-2.1393,-2.1455,-2.1393,-1.4821,0.0,0.0,0.0,-1.6797,-1.7842,-1.8451,-1.8851,-1.9414,-2.043,-2.0889,-2.125,-2.1865,-2.2324,-2.2676,0.0,-2.2984,-2.3091,-2.3091,-2.3091,-2.3091,-2.3091,-2.3525,-2.3955,-2.4375,-2.4814,-2.5254,-2.5654,-2.6197,-2.6476,-2.6476,-2.7239,-2.8061,-2.8903,-2.8775,-2.9103,-2.997,-3.1085,-3.2028,-3.2833,-3.4186,-3.5287,-3.5994,-3.5454,-3.468,-3.3884,-3.3658,-3.337,-3.3124,-3.3124,-3.3124,-3.3124,-3.3124,-3.3124,-3.3056,-3.2805,-3.2353,-3.1838,-3.1625,-3.0984,-3.0269,-3.0269,-3.0055,-2.9792,-2.9792,-2.9792,-2.9792,-2.9792,-2.9792,-2.9792,-2.9792,-2.9792,-2.9792,-2.9792,-2.9792,-2.9792,-2.9792,-2.9792,-2.9792,-2.9792,-2.9792,-2.9428,-2.8298,-2.8109,-2.7733,-2.6663,-2.6499,-2.6499,-2.6499,-2.6499,-2.6499,-2.6499,-2.6197,-2.5649,-2.4863,-2.4318,-2.3753,-2.3145,-2.2895,-2.2757,-2.2757,-2.2543,-2.2297,-2.197,-2.197,-2.1807,-2.1493,-2.1807,-2.197,-2.197,-2.2297,-2.2447,-1.5119,0.0,0.0,-1.7243,-1.8457,-1.959,-1.9358,-1.9922,-2.0674,-2.1385,-2.1836,-2.2104,-2.2169,-2.2669,0.0,-2.2677,-2.2862,-2.3091,-2.3091,-2.3091,-2.3091,-2.3091,-2.3418,-2.3779,-2.4199,-2.4746,-2.5254,-2.5654,-2.5693,-2.5742,-2.5908,-2.6221,-2.6923,-2.8019,-2.7829,-2.8165,-2.9178,-2.9901,-3.0773,-3.1774,-3.3155,-3.4313,-3.5282,-3.5053,-3.4636,-3.4123,-3.396,-3.3583,-3.3124,-3.3124,-3.3124,-3.3124,-3.3124,-3.3124,-3.3124,-3.3124,-3.2717,-3.2215,-3.2215,-3.1599,-3.0809,-3.0658,-3.0344,-2.9993,-2.9842,-2.9792,-2.9792,-2.9792,-2.9792,-2.9792,-2.9792,-2.9792,-2.9792,-2.9792,-2.9792,-2.9792,-2.9792,-2.9792,-2.9792,-2.9792,-2.9792,-2.9478,-2.8499,-2.821,-2.7783,-2.6864,-2.6587,-2.6499,-2.6499,-2.6499,-2.6499,-2.6499,-2.6122,-2.5611,-2.5084,-2.4544,-2.3979,-2.3384,-2.3195,-2.3108,-2.3108,-2.3108,-2.292,-2.2518,-2.2506,-2.2347,-2.1945,-2.2347,-2.2506,-2.2518,-2.292,-2.3108,0.0,0.0,-1.7578,-1.8344,-1.9561,-2.0674,-2.1025,-2.1504,-2.1953,-2.2383,-2.248,-2.2265,-2.147,-2.2315,-2.2721,-2.1525,-2.235,-2.3091,-2.3091,-2.3091,-2.3091,-2.3091,-2.311,-2.3286,0.0,-2.4617,-2.5254,-2.5654,-2.5693,-2.5918,-2.6348,-2.6387,-2.6818,-2.7702,-2.7708,-2.7914,-2.8315,-2.965,-3.0317,-3.0369,-3.1735,-3.2381,-3.247,-3.3212,-3.3962,-3.4663,-3.4135,-3.3583,-3.3124,-3.3124,-3.3124,-3.3124,-3.3124,-3.3124,-3.3124,-3.3124,-3.2717,-3.2215,-3.2215,-3.1838,-3.1286,-3.0783,-3.0608,-3.0495,-2.9955,-2.9792,-2.9792,-2.9792,-2.9792,-2.9792,-2.9792,-2.9792,-2.9792,-2.9792,-2.9792,-2.9792,-2.9792,-2.9792,-2.9792,-2.9792,-2.9792,-2.9603,-2.8963,-2.8461,-2.7908,-2.7379,-2.6839,-2.6499,-2.6499,-2.6499,-2.6499,-2.6499,-2.6474,-2.6235,-2.5624,-2.5096,-2.4556,-2.4004,-2.3409,-2.3108,-2.3108,-2.3108,-2.3095,-2.3083,-2.3083,-2.307,-2.3058,-2.307,-2.3083,-2.3083,-2.3095,-2.3108,0.0,0.0,-1.9268,-2.0108,-2.1113,-2.1894,-2.2051,-2.237,-2.2676,-2.2539,-2.251,-2.2343,-2.1807,-2.1592,-2.1631,-2.204,-2.1995,-2.2173,-2.3003,-2.3091,-2.3091,-2.3091,-2.3091,0.0,0.0,0.0,0.0,-2.5264,-2.5566,-2.5879,-2.6367,-2.665,-2.707,-2.7699,-2.7939,-2.8144,-2.8291,-2.8751,-2.9408,-3.0317,-3.1684,-3.2794,-3.3712,-3.3989,-3.4314,-3.4668,-3.4525,-3.3922,-3.3124,-3.3124,-3.3124,-3.3124,-3.3124,-3.3124,-3.3124,-3.3124,-3.2955,-3.278,-3.278,-3.2416,-3.1851,-3.1311,-3.0896,-3.0507,-2.9955,-2.9792,-2.9792,-2.9792,-2.9792,-2.9792,-2.9792,-2.9792,-2.9792,-2.9792,-2.9792,-2.9792,-2.9792,-2.9792,-2.9792,-2.9792,-2.9792,-2.9616,-2.8988,-2.8737,-2.8335,-2.7419,-2.6851,-2.6499,-2.6499,-2.6499,-2.6499,-2.6499,-2.6499,-2.626,-2.5649,-2.5121,-2.4582,-2.4029,-2.3421,-2.3108,-2.3108,-2.3108,-2.3108,-2.3108,-2.3108,-2.3108,-2.3108,-2.3108,-2.3108,-2.3108,-2.3108,-2.3108,0.0,-1.8518,-2.0557,-2.1434,-2.2175,-2.2691,-2.2691,-2.2789,-2.2702,-2.2069,-2.173,-2.1231,-2.025,-2.0111,-2.0398,-2.1155,-2.1398,-2.1889,-2.2955,-2.3091,-2.3149,-2.3305,-2.3369,0.0,0.0,0.0,0.0,-2.5096,-2.5625,-2.6152,-2.6592,-2.7012,-2.7441,-2.7881,-2.8154,-2.8291,-2.8291,-2.8291,-2.8751,-2.9608,-3.0473,-3.1582,-3.2905,-3.2905,-3.3297,-3.3995,-3.3995,-3.3672,-3.3124,-3.3124,-3.3124,-3.3124,-3.3124,-3.3124,-3.3124,-3.3124,-3.3124,-3.3124,-3.3124,-3.283,-3.2403,-3.1637,-3.1173,-3.0758,-3.0018,-2.9792,-2.9792,-2.9792,-2.9792,-2.9792,-2.9792,-2.9792,-2.9792,-2.9792,-2.9792,-2.9792,-2.9792,-2.9792,-2.9792,-2.9792,-2.9792,-2.9679,-2.9302,-2.9026,-2.8549,-2.7444,-2.7014,-2.6713,-2.6512,-2.6499,-2.6499,-2.6499,-2.6499,-2.6348,-2.5971,-2.541,-2.4946,-2.4594,-2.3866,-2.3409,-2.3409,-2.3208,-2.3108,-2.3108,-2.3108,-2.3108,-2.3108,-2.3108,-2.3108,-2.3108,-2.3108,-2.3108,-1.8265,-1.997,-2.1463,-2.2334,-2.2799,-2.3091,-2.3018,-2.2697,-2.2068,-2.0946,-2.0161,-1.905,0.0,0.0,-1.9034,-1.9105,-2.0622,-2.21,-2.3013,-2.313,-2.3286,0.0,0.0,0.0,0.0,0.0,0.0,-2.5145,0.0,-2.6572,-2.6992,-2.7432,-2.7861,-2.8281,-2.8291,-2.8291,-2.8291,-2.8291,-2.8291,-2.8291,-2.8291,-2.9006,-3.0317,-3.0317,-3.1157,-3.2605,-3.2605,-3.2723,-3.2939,-3.2982,-3.2982,-3.3025,-3.3068,-3.3124,-3.3124,-3.3124,-3.3124,-3.3124,-3.3124,-3.3124,-3.2893,-3.1763,-3.1386,-3.1185,-3.0118,-2.9792,-2.9792,-2.9792,-2.9792,-2.9792,-2.9792,-2.9792,-2.9792,-2.9792,-2.9792,-2.9792,-2.9792,-2.9792,-2.9792,-2.9792,-2.9792,-2.9792,-2.9792,-2.9315,-2.8561,-2.7494,-2.7341,-2.7115,-2.6562,-2.6499,-2.6499,-2.6499,-2.6499,-2.6499,-2.6499,-2.5971,-2.5598,-2.5598,-2.4619,-2.4029,-2.4004,-2.3446,-2.3133,-2.3108,-2.3108,-2.3108,-2.3108,-2.3108,-2.3108,-2.3108,-2.3108,-2.3108,-1.8847,-2.0645,-2.2272,-2.2808,-2.3013,-2.2829,-2.1693,-2.1172,-2.0448,-1.8726,-1.7888,-1.7218,0.0,0.0,0.0,-1.9029,-1.9754,0.0,-2.3268,-2.3623,0.0,0.0,0.0,-2.4297,-2.4404,-2.4814,0.0,0.0,-2.6084,-2.6572,-2.6992,-2.7432,-2.7861,-2.8281,-2.8291,-2.8291,-2.8291,-2.8291,-2.8291,-2.8291,-2.8291,-2.9006,-3.0317,-3.0317,-3.0716,-3.1365,-3.1365,-3.0983,-3.0418,-3.1323,-3.1677,-3.1777,-3.2742,-3.3124,-3.3124,-3.3124,-3.3124,-3.3124,-3.3124,-3.3124,-3.2893,-3.1763,-3.1386,-3.1185,-3.0118,-2.9792,-2.9792,-2.9792,-2.9792,-2.9792,-2.9792,-2.9792,-2.9792,-2.9792,-2.9792,-2.9792,-2.9792,-2.9792,-2.9792,-2.9792,-2.9792,-2.9792,-2.9792,-2.9315,-2.865,-2.7996,-2.7544,-2.7115,-2.6562,-2.6499,-2.6499,-2.6499,-2.6499,-2.6499,-2.6499,-2.5971,-2.5598,-2.5598,-2.4971,-2.4431,-2.4017,-2.3853,-2.3547,-2.3108,-2.3108,-2.3108,-2.3108,-2.3108,-2.3108,-2.3108,-2.3108,-2.3108,-2.0406,-2.1745,-2.2799,-2.3033,-2.2677,-2.2011,-2.0798,-1.9802,-1.8585,-1.664,-1.5737,0.0,0.0,0.0,0.0,0.0,0.0,0.0,-2.3464,-2.3789,-2.4014,0.0,-2.4697,0.0,-2.4933,-2.5215,-2.5547,0.0,-2.6426,-2.6846,-2.7275,-2.7705,-2.8047,-2.8281,-2.8291,-2.8291,-2.8291,-2.8291,-2.8291,-2.8291,-2.8291,-2.8698,-2.9408,-2.9408,-2.962,-2.9954,0.0,-3.0078,-3.0226,-3.0899,-3.1545,-3.2096,-3.284,-3.3124,-3.3124,-3.3124,-3.3124,-3.3124,-3.3124,-3.3124,-3.293,-3.2039,-3.1587,-3.1235,-3.0407,-2.998,-2.9792,-2.9792,-2.9792,-2.9792,-2.9792,-2.9792,-2.9792,-2.9792,-2.9792,-2.9792,-2.9792,-2.9792,-2.9792,-2.9792,-2.9792,-2.9792,-2.9792,-2.9528,-2.9038,-2.8235,-2.7846,-2.7356,-2.66,-2.6499,-2.6499,-2.6499,-2.6499,-2.6499,-2.6499,-2.6197,-2.5975,-2.5975,-2.546,-2.4921,-2.4381,-2.413,-2.3728,-2.3108,-2.3108,-2.3108,-2.3108,-2.3108,-2.3108,-2.3108,-2.3108,-2.3108,-2.1738,-2.2544,-2.3047,-2.2906,-2.2038,-2.0949,-1.993,-1.8377,-1.6587,-1.4583,0.0,0.0,-1.2211,0.0,-1.5499,-1.709,0.0,-2.1294,-2.3277,-2.3603,-2.3987,-2.4971,-2.5165,-2.5312,-2.5654,-2.5693,-2.5947,-2.6435,-2.6807,-2.7207,-2.7689,-2.8066,-2.8291,-2.8291,-2.8291,-2.8291,-2.8291,-2.8291,-2.8291,-2.8291,-2.8291,-2.8291,-2.8291,-2.8232,-2.8371,-2.8545,0.0,0.0,-3.0496,-3.081,-3.1601,-3.2655,-3.2982,-3.3124,-3.3124,-3.3124,-3.3124,-3.3124,-3.3124,-3.3124,-3.3011,-3.2315,-3.1775,-3.1286,-3.0683,-3.0168,-2.9792,-2.9792,-2.9792,-2.9792,-2.9792,-2.9792,-2.9792,-2.9792,-2.9792,-2.9792,-2.9792,-2.9792,-2.9792,-2.9792,-2.9792,-2.9792,-2.9792,-2.9792,-2.9402,-2.8273,-2.8109,-2.7708,-2.6637,-2.6499,-2.6499,-2.6499,-2.6499,-2.6499,-2.6499,-2.6499,-2.6499,-2.6499,-2.6021,-2.5473,-2.4946,-2.4393,-2.3841,-2.3233,-2.3145,-2.3108,-2.3108,-2.3108,-2.3108,-2.3108,-2.3108,-2.3108,-1.9583,-2.1286,-2.2862,-2.1845,-2.1279,-2.0465,-1.8536,-1.6715,0.0,0.0,0.0,-1.1314,-1.096,0.0,0.0,-1.5181,0.0,0.0,0.0,0.0,0.0,0.0,0.0,0.0,0.0,0.0,0.0,0.0,0.0,-2.7207,-2.7689,-2.8066,-2.8291,-2.8291,-2.8291,-2.8291,-2.8291,-2.8291,-2.8291,-2.8291,-2.8291,-2.8291,-2.8281,-2.7939,-2.7594,-2.7278,-2.6982,0.0,-2.6791,-2.8855,-2.9818,-3.0237,-3.2295,-3.3124,-3.3124,-3.3124,-3.3124,-3.3124,-3.3124,-3.3124,-3.2948,-3.1863,-3.1461,-3.121,-3.0231,-2.9867,-2.9792,-2.9792,-2.9792,-2.9792,-2.9792,-2.9792,-2.9792,-2.9792,-2.9792,-2.9792,-2.9792,-2.9792,-2.9792,-2.9792,-2.9792,-2.9792,-2.9792,-2.9792,-2.9402,-2.8273,-2.8109,-2.7708,-2.6637,-2.6499,-2.6499,-2.6499,-2.6499,-2.6499,-2.6499,-2.6499,-2.6499,-2.6499,-2.6399,-2.6084,-2.5485,-2.4958,-2.4418,-2.3853,-2.3346,-2.3108,-2.3108,-2.3108,-2.3108,-2.3108,-2.3108,-2.3108,-1.9176,-2.0221,-2.1087,-2.0531,-1.9557,-1.8324,-1.6653,0.0,0.0,0.0,0.0,-1.0494,-1.0354,0.0,0.0,0.0,0.0,0.0,0.0,0.0,0.0,0.0,0.0,0.0,0.0,0.0,0.0,0.0,0.0,-2.7305,-2.7959,-2.8184,-2.8291,-2.8291,-2.8291,-2.8291,-2.8291,-2.8291,-2.8291,-2.8291,-2.8291,-2.8174,-2.7959,-2.7806,-2.7314,-2.668,-2.6475,0.0,-2.6802,-2.7945,-2.8819,-2.959,-3.1412,-3.2096,-3.2196,-3.284,-3.3124,-3.3124,-3.3124,-3.288,-3.2491,-3.1662,-3.1386,-3.1248,-3.0457,-3.0018,-2.9792,-2.9792,-2.9792,-2.9792,-2.9792,-2.9792,-2.9792,-2.9792,-2.9792,-2.9792,-2.9792,-2.9792,-2.9792,-2.9792,-2.9792,-2.9792,-2.9792,-2.9792,-2.9503,-2.8662,-2.8285,-2.7808,-2.7027,-2.6675,-2.6499,-2.6499,-2.6499,-2.6499,-2.6499,-2.6499,-2.6499,-2.6499,-2.6499,-2.6235,-2.5624,-2.536,-2.4971,-2.4443,-2.4123,-2.3847,-2.359,-2.359,-2.3396,-2.3108,-2.3108,-2.3108,-1.8531,-1.9066,-1.9451,-1.9177,-1.7908,-1.6413,-1.5269,-1.3358,0.0,0.0,0.0,0.0,-1.002,0.0,0.0,0.0,0.0,0.0,0.0,0.0,0.0,0.0,0.0,0.0,0.0,0.0,0.0,0.0,0.0,0.0,-2.8252,-2.8291,-2.8291,-2.8291,-2.8291,-2.8291,-2.8291,-2.8291,-2.8252,-2.8154,-2.8154,-2.7939,-2.7529,-2.7483,-2.7031,-2.6387,-2.6289,0.0,0.0,-2.7494,-2.8179,-2.9177,-3.0631,-3.1223,-3.1356,-3.2612,-3.3124,-3.3056,-3.293,-3.2591,-3.2102,-3.1436,-3.1223,-3.1122,-3.0595,-3.0131,-2.9792,-2.9792,-2.9792,-2.9792,-2.9792,-2.9792,-2.9792,-2.9792,-2.9792,-2.9792,-2.9792,-2.9792,-2.9792,-2.9792,-2.9792,-2.9792,-2.9792,-2.9792,-2.9591,-2.8976,-2.8461,-2.7908,-2.7356,-2.6839,-2.6499,-2.6499,-2.6499,-2.6499,-2.6499,-2.6499,-2.6499,-2.6499,-2.6499,-2.6285,-2.5799,-2.5661,-2.541,-2.4996,-2.4757,-2.4431,-2.4004,-2.3879,-2.3547,-2.3108,-2.3108,-2.3108,-1.5972,-1.7621,-1.9222,-1.8141,-1.7078,-1.6126,-1.5224,0.0,0.0,0.0,-0.9726,-0.9726,-0.9726,0.0,0.0,0.0,0.0,0.0,0.0,0.0,0.0,0.0,0.0,0.0,0.0,0.0,0.0,0.0,0.0,0.0,-2.8271,-2.8291,-2.8291,-2.8291,-2.8291,-2.8291,-2.8291,-2.8291,-2.8096,-2.7777,-2.7777,-2.749,-2.706,-2.668,-2.6465,-2.6367,-2.5967,0.0,0.0,-2.7125,-2.7683,-2.8002,-3.0316,-3.1223,-3.1356,-3.2612,-3.3124,-3.3006,-3.2466,-3.2252,-3.2039,-3.1022,-3.0683,-3.0583,-3.003,-2.9829,-2.9792,-2.9792,-2.9792,-2.9792,-2.9792,-2.9792,-2.9792,-2.9792,-2.9792,-2.9792,-2.9792,-2.9792,-2.9792,-2.9792,-2.9792,-2.9792,-2.9792,-2.9792,-2.9591,-2.8976,-2.8461,-2.7908,-2.7356,-2.6839,-2.6499,-2.6499,-2.6499,-2.6499,-2.6499,-2.6499,-2.6499,-2.6499,-2.6499,-2.6474,-2.6411,-2.5908,-2.5573,-2.5523,-2.4569,-2.4054,-2.4004,-2.3446,-2.3158,-2.3108,-2.3108,-2.3108,-1.5354,-1.6337,-1.7113,-1.6483,-1.5646,-1.4754,-1.3889,0.0,0.0,-0.9883,-0.9539,-0.9472,-0.9653,-1.002,0.0,0.0,0.0,0.0,0.0,0.0,0.0,0.0,0.0,0.0,0.0,0.0,0.0,0.0,0.0,0.0,-2.75,-2.8008,-2.8291,-2.8291,-2.8291,-2.8174,-2.792,-2.792,-2.7705,-2.7275,-2.7275,-2.7051,-2.6631,-2.6465,-2.625,-2.5986,-2.5762,0.0,0.0,-2.6245,-2.6476,-2.662,-2.8355,-2.9039,-2.9236,-3.0878,-3.1478,-3.1491,-3.1651,-3.1512,-3.1185,-3.0758,-3.0394,-3.008,-2.9854,-2.9792,-2.9792,-2.9792,-2.9792,-2.9792,-2.9792,-2.9792,-2.9792,-2.9792,-2.9792,-2.9792,-2.9792,-2.9792,-2.9792,-2.9792,-2.9792,-2.9792,-2.9792,-2.9792,-2.9716,-2.9478,-2.8963,-2.8398,-2.7846,-2.7293,-2.6864,-2.6524,-2.6499,-2.6499,-2.6499,-2.6499,-2.6499,-2.6499,-2.6499,-2.6499,-2.6499,-2.6273,-2.6147,-2.6147,-2.5732,-2.5159,-2.4494,-2.4224,-2.3772,-2.3108,-2.3108,-2.3108,-1.4403,-1.5048,-1.5524,-1.5317,-1.4609,-1.3748,0.0,0.0,-1.0425,-0.9836,-0.9379,-0.9198,-0.9613,-0.9846,-1.0574,0.0,0.0,0.0,0.0,0.0,0.0,0.0,0.0,0.0,0.0,0.0,0.0,0.0,0.0,0.0,0.0,-2.7588,-2.792,-2.792,-2.792,-2.7773,-2.748,-2.7471,-2.7256,-2.6826,-2.6826,-2.6611,-2.6191,-2.6191,-2.6025,-2.5693,0.0,0.0,0.0,-2.5693,-2.5693,-2.583,-2.7078,-2.773,-2.8107,-2.9781,-3.0515,-3.0749,-3.1037,-3.0922,-3.0583,-3.0419,-3.0105,-2.9792,-2.9792,-2.9792,-2.9792,-2.9792,-2.9792,-2.9792,-2.9792,-2.9792,-2.9792,-2.9792,-2.9792,-2.9702,-2.9365,-2.9573,-2.9702,-2.9365,-2.9573,-2.9792,-2.9792,-2.9792,-2.9792,-2.9792,-2.9302,-2.87,-2.8185,-2.762,-2.7102,-2.6549,-2.6499,-2.6499,-2.6499,-2.6499,-2.6499,-2.6499,-2.6499,-2.6499,-2.6499,-2.6499,-2.6499,-2.6499,-2.6323,-2.5858,-2.5059,-2.4732,-2.4136,-2.3358,-2.3183,-2.3108,-1.259,-1.3811,-1.5015,-1.5015,-1.4302,-1.3447,0.0,-1.1645,-1.0425,-0.9836,-0.9218,-0.8991,-0.9601,-0.9715,-1.0265,0.0,0.0,0.0,0.0,0.0,0.0,0.0,0.0,0.0,0.0,0.0,0.0,0.0,0.0,0.0,0.0,-2.7021,-2.7021,-2.7021,-2.7021,-2.7021,-2.7021,-2.7021,-2.6816,-2.6396,-2.6396,-2.6172,-2.5693,-2.5693,-2.5693,0.0,0.0,0.0,0.0,-2.5693,-2.5693,-2.583,-2.7078,-2.7993,-2.8723,-2.996,-3.081,-3.1323,-3.0809,-3.058,-3.052,-2.998,-2.9792,-2.9792,-2.9792,-2.9792,-2.9792,-2.9792,-2.9792,-2.9792,-2.9792,-2.9792,-2.9792,-2.9792,-2.9792,-2.9495,-2.8347,-2.8988,-2.9456,-2.8347,-2.9028,-2.9792,-2.9792,-2.9792,-2.9792,-2.9792,-2.9302,-2.87,-2.8185,-2.762,-2.7102,-2.6549,-2.6499,-2.6499,-2.6499,-2.6499,-2.6499,-2.6499,-2.6499,-2.6499,-2.6499,-2.6499,-2.6499,-2.6499,-2.59,-2.5598,-2.5586,-2.4531,-2.4004,-2.3979,-2.3371,-2.3108,-1.1554,-1.2435,-1.3102,-1.3425,-1.3086,-1.2518,-1.173,-1.0875,-1.0087,-0.9471,-0.9051,-0.8925,-0.9277,-0.9546,-1.0395,-1.2606,0.0,0.0,0.0,0.0,0.0,0.0,0.0,0.0,0.0,0.0,0.0,0.0,0.0,0.0,0.0,-2.6093,-2.6356,-2.6992,-2.7012,-2.6875,-2.6592,-2.6592,-2.6377,-2.5947,-2.5947,-2.582,-2.5693,-2.5693,0.0,0.0,0.0,0.0,0.0,-2.5693,-2.5557,-2.5321,-2.5739,-2.5825,-2.5828,-2.6657,-2.7128,-2.7357,-2.7676,-2.8288,-2.8866,-2.8697,-2.9157,-2.9792,-2.9792,-2.9792,-2.9792,-2.9792,-2.9792,-2.9624,-2.8858,-2.8636,-2.8438,-2.7718,-2.7545,-2.7435,-2.7087,-2.7867,-2.8518,-2.8176,-2.9028,-2.9792,-2.9792,-2.9792,-2.9792,-2.9792,-2.9641,-2.9176,-2.8235,-2.7946,-2.7494,-2.66,-2.6499,-2.6499,-2.6499,-2.6499,-2.6499,-2.6499,-2.6499,-2.6499,-2.6499,-2.6499,-2.6499,-2.6499,-2.6311,-2.6021,-2.5598,-2.4895,-2.4167,-2.3371,-2.3195,-2.3108,0.0,-1.1015,-1.176,-1.2449,-1.2271,-1.1797,-1.1142,-1.0454,-0.982,-0.9311,-0.8984,-0.8871,-0.9158,-0.9364,-1.0175,-1.2205,0.0,0.0,0.0,0.0,0.0,0.0,0.0,0.0,0.0,0.0,0.0,0.0,0.0,0.0,0.0,-2.5693,-2.5937,-2.6464,-2.6533,-2.6406,-2.6143,-2.6143,-2.6006,-2.5693,-2.5693,-2.5693,-2.5693,-2.5693,0.0,0.0,0.0,0.0,0.0,-2.5488,-2.5225,-2.4824,-2.4824,-2.4819,-2.4847,-2.5264,-2.5559,-2.5957,-2.6779,-2.729,-2.7562,-2.7976,-2.8319,-2.8542,-2.8542,-2.9131,-2.9702,-2.9287,-2.9157,-2.8897,-2.7775,-2.7481,-2.7331,-2.6637,-2.6524,-2.6524,-2.6524,-2.7319,-2.8096,-2.8096,-2.9028,-2.9663,-2.9236,-2.9157,-2.9028,-2.8633,-2.891,-2.8764,-2.7631,-2.784,-2.7682,-2.6612,-2.6499,-2.6499,-2.6499,-2.6499,-2.6499,-2.6499,-2.6499,-2.6499,-2.6499,-2.6499,-2.6499,-2.6499,-2.6499,-2.6311,-2.5925,-2.5184,-2.4324,-2.3421,-2.3208,-2.3108,0.0,-0.9589,-1.0819,-1.187,-1.1703,-1.1229,-1.0935,-1.0234,0.0,-0.9244,-0.8964,-0.8898,-0.9184,-0.9244,-0.9699,0.0,0.0,0.0,0.0,0.0,0.0,0.0,0.0,0.0,0.0,0.0,0.0,0.0,0.0,0.0,0.0,-2.5693,-2.5693,-2.5693,-2.5693,-2.5693,-2.5693,-2.5693,-2.5693,-2.5693,-2.5693,-2.5693,-2.5693,-2.5654,0.0,0.0,0.0,0.0,0.0,-2.5067,-2.4766,-2.4375,-2.4375,-2.4726,-2.524,-2.524,-2.569,-2.6389,-2.74,-2.7157,-2.6554,-2.7654,-2.7319,-2.6524,-2.6524,-2.7931,-2.9326,-2.8267,-2.7976,-2.7723,-2.6678,-2.6389,-2.6348,-2.6265,-2.6265,-2.6265,-2.6265,-2.7116,-2.7884,-2.7976,-2.8897,-2.9326,-2.8295,-2.8096,-2.7763,-2.676,-2.7412,-2.766,-2.6676,-2.7359,-2.7503,-2.6454,-2.6399,-2.6421,-2.6383,-2.6452,-2.6499,-2.6499,-2.6499,-2.6499,-2.6499,-2.6499,-2.6499,-2.6499,-2.6499,-2.6474,-2.6436,-2.5372,-2.4594,-2.4042,-2.3434,-2.3158,-0.6963,0.0,-0.8617,-0.9955,-1.0194,-1.002,0.0,-0.9464,0.0,0.0,0.0,0.0,0.0,0.0,0.0,0.0,0.0,0.0,0.0,0.0,0.0,0.0,0.0,0.0,0.0,0.0,0.0,0.0,0.0,0.0,0.0,-2.5693,-2.5693,-2.5693,-2.5693,-2.5693,-2.5693,-2.5693,-2.5693,-2.5693,-2.5693,-2.5693,-2.5674,-2.5381,0.0,0.0,0.0,0.0,-2.457,-2.457,-2.4316,-2.3935,-2.3935,-2.3796,-2.3622,-2.3622,-2.3771,-2.393,-2.4178,-2.467,-2.5378,-2.6502,-2.673,-2.6524,-2.6524,-2.6853,-2.7221,-2.6964,-2.6883,-2.6637,-2.5504,-2.521,-2.4967,-2.4092,-2.3887,-2.3887,-2.3887,-2.4798,-2.5828,-2.6719,-2.7735,-2.8426,-2.8136,-2.8096,-2.8004,-2.7763,-2.7238,-2.6938,-2.71,-2.6578,-2.5835,-2.4834,-2.5393,-2.5685,-2.5371,-2.606,-2.6499,-2.6499,-2.6499,-2.6499,-2.6499,-2.6499,-2.6499,-2.6499,-2.6499,-2.6273,-2.5799,-2.5536,-2.5146,-2.4587,-2.4054,-2.3791,-0.6035,-0.6643,-0.738,-0.9398,-0.9473,-0.9157,-0.9394,0.0,0.0,0.0,0.0,0.0,0.0,0.0,0.0,0.0,0.0,0.0,0.0,0.0,0.0,0.0,0.0,0.0,0.0,0.0,0.0,0.0,0.0,0.0,0.0,-2.5577,-2.5508,-2.5099,-2.5322,-2.5527,-2.5693,-2.5693,-2.5693,-2.5693,-2.5527,-2.543,-2.541,-2.4971,-2.4775,0.0,0.0,0.0,-2.4131,-2.4131,-2.3877,-2.3496,-2.3496,-2.3305,-2.3091,-2.3091,-2.3091,-2.3178,-2.3714,-2.4286,-2.484,-2.4893,-2.4935,-2.4935,-2.4935,-2.4935,-2.5062,-2.5557,-2.5714,-2.5462,-2.4339,-2.4006,-2.3877,-2.3266,-2.3507,-2.3877,-2.3877,-2.4798,-2.5755,-2.6389,-2.6964,-2.7197,-2.6696,-2.6603,-2.6397,-2.5859,-2.5755,-2.5757,-2.5788,-2.5681,-2.5419,-2.4894,-2.5287,-2.5636,-2.5665,-2.6198,-2.6499,-2.6499,-2.6499,-2.6499,-2.6499,-2.6499,-2.6499,-2.6499,-2.6499,-2.6336,-2.6021,-2.5724,-2.5448,-2.5159,-2.4368,-2.4004,-0.5365,-0.5909,-0.6824,-0.9153,-0.9124,-0.8719,0.0,0.0,0.0,0.0,0.0,0.0,0.0,0.0,0.0,0.0,0.0,0.0,0.0,0.0,0.0,0.0,0.0,0.0,0.0,0.0,0.0,0.0,0.0,0.0,0.0,-2.5332,-2.5148,-2.4443,-2.4775,-2.5156,-2.5479,-2.5489,-2.5489,-2.5479,-2.5156,-2.4971,-2.4998,-2.4521,-2.4316,0.0,0.0,0.0,-2.3691,-2.3691,-2.3467,-2.3091,-2.3091,-2.3091,-2.3091,-2.3091,-2.3091,-2.3266,-2.4211,-2.4542,-2.4382,-2.343,-2.3091,-2.3091,-2.3091,-2.3091,-2.3299,-2.4253,-2.4542,-2.4339,-2.3343,-2.3091,-2.3135,-2.3299,-2.3963,-2.4585,-2.4745,-2.5431,-2.6016,-2.6224,-2.6224,-2.5933,-2.4957,-2.4787,-2.4457,-2.3507,-2.4049,-2.445,-2.4169,-2.4723,-2.5097,-2.5035,-2.5099,-2.5333,-2.577,-2.6094,-2.628,-2.628,-2.6418,-2.6499,-2.6499,-2.6499,-2.6499,-2.6499,-2.6499,-2.6499,-2.6499,-2.5996,-2.5686,-2.5573,-2.4441,-2.3879,-0.5676,-0.6267,-0.6869,-0.7823,-0.8567,-0.9103,0.0,0.0,0.0,0.0,0.0,0.0,0.0,0.0,0.0,0.0,0.0,0.0,0.0,0.0,0.0,0.0,0.0,0.0,0.0,0.0,0.0,0.0,0.0,0.0,0.0,-2.458,-2.4551,-2.4424,-2.4482,-2.4551,-2.4619,-2.4619,-2.4619,-2.4619,-2.4551,-2.4521,-2.4502,-2.4082,-2.3887,0.0,0.0,-2.3247,-2.3198,-2.3198,-2.3149,-2.3091,-2.3091,-2.3091,-2.3091,-2.3091,-2.3091,-2.3135,-2.3299,-2.3343,-2.3343,-2.3178,-2.3091,-2.3091,-2.3091,-2.3091,-2.3135,-2.3299,-2.3343,-2.3299,-2.3135,-2.3091,-2.3343,-2.4296,-2.392,-2.3637,-2.4585,-2.4178,-2.3887,-2.4872,-2.5041,-2.4999,-2.483,-2.4787,-2.4745,-2.4585,-2.3887,-2.3694,-2.4576,-2.3664,-2.284,-2.2503,-2.2864,-2.303,-2.2734,-2.4253,-2.5229,-2.5229,-2.6025,-2.6499,-2.6499,-2.6499,-2.6499,-2.6499,-2.6499,-2.6499,-2.6499,-2.6411,-2.6109,-2.5586,-2.4213,-2.3319,-0.5502,-0.6319,-0.7111,-0.796,-0.8841,-0.9561,0.0,0.0,0.0,0.0,0.0,0.0,0.0,0.0,0.0,0.0,0.0,0.0,0.0,0.0,0.0,0.0,0.0,0.0,0.0,0.0,0.0,0.0,0.0,0.0,0.0,0.0,-2.4199,-2.3695,-2.3955,-2.3965,-2.3686,-2.3686,-2.391,-2.4414,-2.4189,-2.4082,-2.4062,-2.3633,-2.3437,-2.3428,0.0,-2.3091,-2.3091,-2.3091,-2.3091,-2.3091,-2.3091,-2.3091,-2.3091,-2.3091,-2.3091,-2.3091,-2.3091,-2.3091,-2.3091,-2.3091,-2.3091,-2.3091,-2.3091,-2.3091,-2.3091,-2.3091,-2.3091,-2.3091,-2.3091,-2.3551,-2.4006,-2.392,-2.4425,-2.4723,-2.4049,-2.3963,-2.4006,-2.3887,-2.3877,-2.3877,-2.3877,-2.3877,-2.3877,-2.3877,-2.343,-2.3309,-2.38,-2.3054,-2.2545,-2.2655,-2.2658,-2.2723,-2.2809,-2.4156,-2.5229,-2.5769,-2.6245,-2.6499,-2.6499,-2.6499,-2.6499,-2.6499,-2.6499,-2.6499,-2.6499,-2.6499,-2.6197,-2.5586,-2.4641,-2.3664,-0.5401,-0.6379,-0.7425,-0.8369,0.0,0.0,0.0,0.0,0.0,0.0,0.0,0.0,0.0,0.0,0.0,0.0,0.0,0.0,0.0,0.0,0.0,0.0,0.0,0.0,0.0,0.0,0.0,0.0,0.0,0.0,0.0,0.0,-2.3773,-2.312,-2.3467,-2.3477,-2.3101,-2.3091,-2.3422,-2.4066,-2.3789,-2.3633,-2.3623,-2.3247,-2.3091,-2.3091,-2.3091,-2.3091,-2.3091,-2.3091,-2.3091,-2.3091,-2.3091,-2.3091,-2.3091,-2.3091,-2.3091,-2.3091,-2.3091,-2.3091,-2.3091,-2.3091,-2.3091,-2.3091,-2.3091,-2.3091,-2.3091,-2.3091,-2.3091,-2.3091,-2.3091,-2.3757,-2.4253,-2.3637,-2.4638,-2.5305,-2.38,-2.3963,-2.4125,-2.3256,-2.3091,-2.3091,-2.3091,-2.3091,-2.3091,-2.3091,-2.3091,-2.3062,-2.2955,-2.2627,-2.247,-2.2797,-2.265,-2.2874,-2.3779,-2.4564,-2.5441,-2.643,-2.6499,-2.6499,-2.6499,-2.6499,-2.6499,-2.6499,-2.6499,-2.6424,-2.6298,-2.6298,-2.5933,-2.5209,-2.4601,-2.3547,-0.5683,-0.6705,-0.7658,-0.8409,0.0,0.0,0.0,0.0,0.0,0.0,0.0,0.0,0.0,0.0,0.0,0.0,0.0,0.0,0.0,0.0,0.0,0.0,0.0,0.0,0.0,0.0,0.0,0.0,0.0,0.0,0.0,0.0,0.0,-2.3091,-2.312,-2.312,-2.3091,-2.3091,-2.312,-2.3188,-2.3149,-2.314,-2.314,-2.311,-2.3091,-2.3091,-2.3091,-2.3091,-2.3091,-2.3091,-2.3091,-2.3091,-2.3091,-2.3091,-2.3091,-2.3091,-2.3091,-2.3091,-2.3091,-2.3091,-2.3091,-2.3091,-2.3091,-2.3091,-2.3091,-2.3091,-2.3091,-2.3091,-2.3091,-2.3091,-2.3091,-2.3178,-2.3464,-2.4457,-2.4006,-2.3594,-2.45,-2.392,-2.3222,-2.3135,-2.3091,-2.3091,-2.3091,-2.3091,-2.3091,-2.3091,-2.3091,-2.2955,-2.2607,-2.2197,-2.1809,-2.1399,-2.1767,-2.2809,-2.4719,-2.4969,-2.5441,-2.643,-2.6499,-2.6499,-2.6499,-2.6499,-2.6499,-2.6499,-2.6499,-2.6223,-2.5649,-2.5649,-2.5121,-2.4073,-2.3239,-2.2104,-0.6038,-0.6919,-0.7833,-0.9181,0.0,0.0,0.0,0.0,0.0,0.0,0.0,0.0,0.0,0.0,0.0,0.0,0.0,0.0,0.0,0.0,0.0,0.0,0.0,0.0,0.0,0.0,0.0,0.0,0.0,0.0,0.0,0.0,0.0,-2.3091,-2.3091,-2.3091,-2.3091,-2.3091,-2.3091,-2.3091,-2.3091,-2.3091,-2.3091,-2.3091,-2.3091,-2.3091,-2.3091,-2.3091,-2.3091,-2.3091,-2.3091,-2.3091,-2.3091,-2.3091,-2.3091,-2.3091,-2.3091,-2.3091,-2.3091,-2.3091,-2.3091,-2.3091,-2.3091,-2.3091,-2.3091,-2.3594,-2.4006,-2.3299,-2.3594,-2.4006,-2.3256,-2.3637,-2.4082,-2.38,-2.3963,-2.4092,-2.38,-2.3387,-2.3091,-2.3091,-2.3091,-2.3091,-2.3091,-2.3091,-2.3091,-2.3091,-2.3091,-2.2945,-2.2568,-2.2148,-2.1719,-2.1239,-2.1163,-2.1669,-2.3036,-2.3147,-2.3806,-2.5476,-2.5581,-2.5838,-2.6452,-2.5908,-2.5873,-2.6499,-2.6499,-2.621,-2.5598,-2.5598,-2.5046,-2.396,-2.3091,-2.1949,-0.6285,-0.706,-0.7953,0.0,0.0,0.0,0.0,0.0,0.0,0.0,0.0,0.0,0.0,0.0,0.0,0.0,0.0,0.0,0.0,0.0,0.0,0.0,0.0,0.0,0.0,0.0,0.0,0.0,0.0,0.0,0.0,0.0,0.0,0.0,-2.3091,-2.3091,-2.3091,-2.3091,-2.3091,-2.3091,-2.3091,-2.3091,-2.3091,-2.3091,-2.3091,-2.3091,-2.3091,-2.3091,-2.3091,-2.3091,-2.3091,-2.3091,-2.3091,-2.3091,-2.3091,-2.3091,-2.3091,-2.3091,-2.3091,-2.3091,-2.3091,-2.3091,-2.3091,-2.3091,-2.3091,-2.3637,-2.4082,-2.3299,-2.3671,-2.4092,-2.3299,-2.3671,-2.4092,-2.3309,-2.3714,-2.4049,-2.3256,-2.3091,-2.3091,-2.3091,-2.3091,-2.3091,-2.3091,-2.2984,-2.2896,-2.2896,-2.2779,-2.2588,-2.2116,-2.1855,-2.1626,-2.1481,-2.1191,-2.1565,-2.285,-2.2962,-2.3514,-2.4898,-2.4707,-2.5111,-2.6465,-2.5511,-2.5476,-2.6487,-2.6037,-2.5629,-2.536,-2.5172,-2.4491,-2.3312,-2.2742,-2.1626,-0.6394,-0.7133,0.0,0.0,0.0,0.0,0.0,0.0,0.0,0.0,0.0,0.0,0.0,0.0,0.0,0.0,0.0,0.0,0.0,0.0,0.0,0.0,0.0,0.0,0.0,0.0,0.0,0.0,0.0,0.0,0.0,0.0,0.0,0.0,-2.3091,-2.3091,-2.3091,-2.3091,-2.3091,-2.3091,-2.3091,-2.3091,-2.3091,-2.3091,-2.3091,-2.3091,-2.3091,-2.3091,-2.3091,-2.3091,-2.3091,-2.3091,-2.3091,-2.3091,-2.3091,-2.3091,-2.3091,-2.3091,-2.3091,-2.3091,-2.3091,-2.3091,-2.3091,-2.3091,-2.3091,-2.3091,-2.3091,-2.3091,-2.3091,-2.3091,-2.3091,-2.3091,-2.3091,-2.3091,-2.3091,-2.3091,-2.3091,-2.3091,-2.3091,-2.3091,-2.3091,-2.3091,-2.3091,-2.275,-2.251,-2.251,-2.2158,-2.1728,-2.1249,-2.119,-2.1392,-2.1939,-2.1989,-2.2776,-2.4791,-2.4969,-2.4969,-2.4969,-2.4047,-2.4397,-2.6383,-2.5523,-2.5441,-2.6452,-2.499,-2.4389,-2.4775,-2.4268,-2.3287,-2.1908,-2.1908,-2.0942,-0.6534,0.0,0.0,0.0,0.0,0.0,0.0,0.0,0.0,0.0,0.0,0.0,0.0,0.0,0.0,0.0,0.0,0.0,0.0,0.0,0.0,0.0,0.0,0.0,0.0,0.0,0.0,0.0,0.0,0.0,0.0,0.0,0.0,0.0,-2.3091,-2.3091,-2.3091,-2.3091,-2.3091,-2.3091,-2.3091,-2.3091,-2.3091,-2.3091,-2.3091,-2.3091,-2.3091,-2.3091,-2.3091,-2.3091,-2.3091,-2.3091,-2.3091,-2.3091,-2.3091,-2.3091,-2.3091,-2.3091,-2.3091,-2.3091,-2.3091,-2.3091,-2.3091,-2.3091,-2.3091,-2.3671,-2.4125,-2.3343,-2.3671,-2.4135,-2.3299,-2.3091,-2.3091,-2.3091,-2.3091,-2.3091,-2.3091,-2.3091,-2.3091,-2.3091,-2.3091,-2.3091,-2.3091,-2.275,-2.251,-2.251,-2.2158,-2.1728,-2.1249,-2.0957,-2.082,-2.0982,-2.1011,-2.127,-2.1859,-2.1907,-2.2199,-2.285,-2.3257,-2.377,-2.4361,-2.3441,-2.3539,-2.4862,-2.4418,-2.4207,-2.4243,-2.4079,-2.3579,-2.2732,-2.1522,-2.0719,0.0,0.0,0.0,0.0,0.0,0.0,0.0,0.0,0.0,0.0,0.0,0.0,0.0,0.0,0.0,0.0,0.0,0.0,0.0,0.0,0.0,0.0,0.0,0.0,0.0,0.0,0.0,0.0,0.0,0.0,0.0,0.0,0.0,0.0,-2.2862,-2.3091,-2.3091,-2.3091,-2.3091,-2.3091,-2.3091,-2.3091,-2.3091,-2.3091,-2.3091,-2.3091,-2.3091,-2.3091,-2.3091,-2.3091,-2.3091,-2.3091,-2.3091,-2.3091,-2.3091,-2.3091,-2.3091,-2.3091,-2.3091,-2.3091,-2.3091,-2.3091,-2.3091,-2.3091,-2.3091,-2.3594,-2.3963,-2.3299,-2.3594,-2.3963,-2.3256,-2.3091,-2.3091,-2.3091,-2.3091,-2.3091,-2.3091,-2.3091,-2.3091,-2.3091,-2.3091,-2.3042,-2.2877,-2.2539,-2.2207,-2.2031,-2.1641,-2.1269,-2.1006,-2.0732,-2.0605,-2.0605,-2.0605,-2.075,-2.1116,-2.1155,-2.1413,-2.1952,-2.259,-2.2888,-2.2888,-2.311,-2.3688,-2.4757,-2.4154,-2.3872,-2.4004,-2.3766,-2.3115,-2.2082,-2.1069,-2.0236,0.0,0.0,0.0,0.0,0.0,0.0,0.0,0.0,0.0,0.0,0.0,0.0,0.0,0.0,0.0,0.0,0.0,0.0,0.0,0.0,0.0,0.0,0.0,0.0,0.0,0.0,0.0,0.0,0.0,0.0,0.0,0.0,0.0,-2.1293,-2.2359,-2.295,-2.295,-2.3047,-2.3047,0.0,-2.3008,-2.3042,-2.3042,-2.3081,-2.3091,-2.3091,-2.3091,-2.3091,-2.3091,-2.3091,-2.3091,-2.3091,-2.3091,-2.3091,-2.3091,-2.3091,-2.3091,-2.3091,-2.3091,-2.3091,-2.3091,-2.3091,-2.3091,-2.3091,-2.3091,-2.3091,-2.3091,-2.3091,-2.3091,-2.3091,-2.3091,-2.3091,-2.3091,-2.3091,-2.3091,-2.3091,-2.3091,-2.3091,-2.3081,-2.3042,-2.3042,-2.2906,-2.2529,-2.2109,-2.168,-2.124,-2.083,-2.0605,-2.0605,-2.0605,-2.0644,-2.0712,-2.0712,-2.1078,-2.1924,-2.1989,-2.1952,-2.1886,-2.1952,-2.2017,-2.2039,-2.3713,-2.4893,-2.539,-2.396,-2.3474,-2.3916,-2.3298,-2.2218,-2.0719,-2.0558,-1.9628,0.0,0.0,0.0,0.0,0.0,0.0,0.0,0.0,0.0,0.0,0.0,0.0,0.0,0.0,0.0,0.0,0.0,0.0,0.0,0.0,0.0,0.0,0.0,0.0,0.0,0.0,0.0,0.0,0.0,0.0,0.0,0.0,0.0,-2.1293,-2.1569,-2.1712,-2.1712,-2.2633,-2.2633,0.0,-2.2351,-2.2646,-2.2656,-2.2945,-2.3091,-2.3091,-2.3091,-2.3091,-2.3091,-2.3091,-2.3091,-2.3091,-2.3091,-2.3091,-2.3091,-2.3091,-2.3091,-2.3091,-2.3091,-2.3091,-2.3091,-2.3091,-2.3091,-2.3091,-2.3091,-2.3091,-2.3091,-2.3091,-2.3091,-2.3091,-2.3091,-2.3091,-2.3091,-2.3091,-2.3091,-2.3091,-2.3091,-2.3091,-2.3003,-2.2672,-2.2646,-2.251,-2.209,-2.166,-2.1221,-2.0781,-2.0664,-2.0605,-2.0605,-2.0605,-2.0895,-2.1631,-2.1707,-2.1773,-2.1989,-2.1989,-2.1697,-2.0934,-2.1593,-2.2168,-2.2523,-2.2223,-2.259,-2.3769,-2.3078,-2.2886,-2.3296,-2.2537,-2.197,-2.1596,-2.0204,-1.9365,0.0,0.0,0.0,0.0,0.0,0.0,0.0,0.0,0.0,0.0,0.0,0.0,0.0,0.0,0.0,0.0,0.0,0.0,0.0,0.0,0.0,0.0,0.0,0.0,0.0,0.0,0.0,0.0,0.0,0.0,0.0,-1.7905,-1.8479,-1.9137,-2.0202,-2.0777,-2.0777,-2.1945,-2.2221,-2.1592,-2.1999,-2.2207,-2.2217,-2.2441,-2.2539,-2.2539,-2.2539,-2.2539,-2.2549,-2.2711,-2.2789,-2.2818,-2.3013,-2.3091,-2.3091,-2.3091,-2.3091,-2.3091,-2.3091,-2.3091,-2.3091,-2.3091,-2.3091,-2.3091,-2.3091,-2.3091,-2.3091,-2.3091,-2.3091,-2.3091,-2.3091,-2.3091,-2.3091,-2.3091,-2.3091,-2.3042,-2.2838,-2.2789,-2.2672,-2.2295,-2.2207,-2.208,-2.165,-2.1211,-2.083,-2.0635,-2.0605,-2.0605,-2.0605,-2.0605,-2.0789,-2.126,-2.1336,-2.1336,-2.1336,-2.1336,-2.1116,-2.0644,-2.1039,-2.1753,-2.2666,-2.1568,-2.1776,-2.3612,-2.2955,-2.2591,-2.2506,-2.1678,-2.1069,-2.0623,-1.9726,-1.9077,0.0,0.0,0.0,0.0,0.0,0.0,0.0,0.0,0.0,0.0,0.0,0.0,0.0,0.0,0.0,0.0,0.0,0.0,0.0,0.0,0.0,0.0,0.0,0.0,0.0,0.0,0.0,0.0,0.0,0.0,-1.5008,-1.5954,-1.6595,-1.6807,-1.8614,-1.9689,-1.9909,-2.1047,-2.1575,-2.1575,-2.1724,-2.1738,-2.1701,-2.1701,-2.1738,-2.1885,-2.1885,-2.1885,-2.1914,-2.2266,-2.2402,-2.2441,-2.274,-2.2877,-2.2877,-2.2877,-2.2877,-2.2877,-2.2877,-2.2877,-2.2886,-2.2964,-2.2935,-2.2906,-2.3052,-2.3042,-2.3003,-2.3071,-2.3091,-2.3091,-2.3091,-2.3091,-2.3081,-2.3003,-2.2984,-2.2896,-2.2588,-2.2461,-2.2275,-2.1855,-2.1709,-2.1543,-2.1142,-2.081,-2.0605,-2.0605,-2.0605,-2.0605,-2.0605,-2.0605,-2.0644,-2.0818,-2.0828,-2.0828,-2.0828,-2.0828,-2.076,-2.0498,-2.0488,-2.0991,-2.2163,-2.1101,-2.1383,-2.336,-2.2691,-2.2115,-2.1659,-2.0814,-2.0009,-1.9299,-1.9144,-1.8687,0.0,0.0,0.0,0.0,0.0,0.0,0.0,0.0,0.0,0.0,0.0,0.0,0.0,0.0,0.0,0.0,0.0,0.0,0.0,0.0,0.0,0.0,0.0,0.0,0.0,0.0,0.0,0.0,0.0,0.0,-1.5008,-1.5136,-1.5739,-1.6763,-1.7106,-1.7715,-1.8622,-1.9825,-2.0382,-2.0247,-2.0976,-2.1113,-2.0781,-2.0781,-2.1202,-2.1885,-2.1885,-2.1885,-2.1894,-2.1953,-2.1973,-2.1982,-2.2031,-2.2051,-2.2051,-2.2051,-2.2051,-2.2051,-2.2051,-2.2051,-2.2119,-2.248,-2.2344,-2.2187,-2.2877,-2.2838,-2.2676,-2.2994,-2.3091,-2.3091,-2.3091,-2.3091,-2.3003,-2.2643,-2.2598,-2.2578,-2.2519,-2.2227,-2.1846,-2.1366,-2.1006,-2.0762,-2.0703,-2.0644,-2.0605,-2.0605,-2.0605,-2.0605,-2.0605,-2.0605,-2.0895,-2.1745,-2.1811,-2.1811,-2.1811,-2.1811,-2.1277,-2.0057,-2.0,-2.0062,-2.026,-2.0096,-2.0318,-2.1056,-2.0948,-2.085,-2.0782,-1.989,-1.9398,-1.9266,-1.8529,-1.811,0.0,0.0,0.0,0.0,0.0,0.0,0.0,0.0,0.0,0.0,0.0,0.0,0.0,0.0,0.0,0.0,0.0,0.0,0.0,0.0,0.0,0.0,0.0,0.0,0.0,0.0,0.0,0.0,0.0,-1.4519,-1.4519,-1.4519,-1.4722,-1.5262,-1.5882,-1.6419,-1.6883,-1.8012,-1.8889,-1.9462,-2.0412,-2.0752,-2.0605,-2.0605,-2.082,-2.1182,-2.1182,-2.1182,-2.1212,-2.1416,-2.1523,-2.1543,-2.1787,-2.1885,-2.1885,-2.1885,-2.1885,-2.1885,-2.1885,-2.1885,-2.1914,-2.21,-2.2031,-2.1953,-2.2324,-2.2305,-2.2246,-2.2676,-2.2617,-2.249,-2.2734,-2.2617,-2.2393,-2.2207,-2.1973,-2.1756,-2.1756,-2.165,-2.1387,-2.0947,-2.0742,-2.0605,-2.0605,-2.0605,-2.0605,-2.0605,-2.0605,-2.0605,-2.0605,-2.0605,-2.075,-2.1155,-2.1231,-2.1231,-2.1231,-2.1231,-2.0849,-1.9941,-1.9912,-1.9916,-1.9909,-1.9441,-1.9397,-1.9857,-1.9879,-1.9879,-1.989,-1.9011,-1.8553,-1.8563,-1.8178,-1.8008,0.0,0.0,0.0,0.0,0.0,0.0,0.0,0.0,0.0,0.0,0.0,0.0,0.0,0.0,0.0,0.0,0.0,0.0,0.0,0.0,0.0,0.0,0.0,0.0,0.0,0.0,0.0,0.0,0.0,-1.4088,-1.4088,-1.4088,-1.4088,-1.4088,-1.4894,-1.5421,-1.5696,-1.705,-1.831,-1.9402,-2.0206,-2.0605,-2.0605,-2.0605,-2.0605,-2.0605,-2.0605,-2.0605,-2.0635,-2.0928,-2.1064,-2.1094,-2.1426,-2.1553,-2.1553,-2.1553,-2.1553,-2.1553,-2.1553,-2.1553,-2.1572,-2.168,-2.1641,-2.1592,-2.1816,-2.1807,-2.1807,-2.2236,-2.2129,-2.1963,-2.2275,-2.2119,-2.1855,-2.1748,-2.1434,-2.1161,-2.1094,-2.1064,-2.0967,-2.0674,-2.0605,-2.0605,-2.0605,-2.0605,-2.0605,-2.0605,-2.0605,-2.0605,-2.0605,-2.0605,-2.0605,-2.0605,-2.0605,-2.0605,-2.0605,-2.0605,-2.037,-1.9785,-1.9756,-1.9647,-1.9445,-1.8805,-1.8621,-1.8954,-1.8977,-1.8977,-1.8977,-1.8337,-1.8008,-1.8008,-1.8008,-1.8008,0.0,0.0,0.0,0.0,0.0,0.0,0.0,0.0,0.0,0.0,0.0,0.0,0.0,0.0,0.0,0.0,0.0,0.0,0.0,0.0,0.0,0.0,0.0,0.0,0.0,0.0,0.0,0.0,0.0,-1.4088,-1.4088,-1.4088,-1.4088,-1.4088,-1.4166,-1.465,-1.5696,-1.7859,-1.9441,-2.0527,-2.0566,-2.0605,-2.0605,-2.0605,-2.0605,-2.0605,-2.0605,-2.0605,-2.0605,-2.0635,-2.0635,-2.0644,-2.0664,-2.0674,-2.0674,-2.0674,-2.0674,-2.0674,-2.0674,-2.0674,-2.0742,-2.1093,-2.0977,-2.083,-2.1631,-2.1592,-2.1317,-2.1797,-2.1904,-2.1894,-2.1914,-2.1904,-2.1777,-2.1327,-2.121,-2.1123,-2.0693,-2.0635,-2.0635,-2.0605,-2.0605,-2.0605,-2.0605,-2.0605,-2.0605,-2.0605,-2.0605,-2.0605,-2.0605,-2.0605,-2.0605,-2.0605,-2.0605,-2.0605,-2.0605,-2.0605,-2.0253,-1.9375,-1.9316,-1.8971,-1.8144,-1.8081,-1.8027,-1.8076,-1.8076,-1.8076,-1.8076,-1.8008,-1.8008,-1.8008,-1.8008,-1.8008,0.0,0.0,0.0,0.0,0.0,0.0,0.0,0.0,0.0,0.0,0.0,0.0,0.0,0.0,0.0,0.0,0.0,0.0,0.0,0.0,0.0,0.0,0.0,0.0,0.0,0.0,0.0,0.0,0.0,0.0,-1.3527,-1.3527,-1.3527,-1.3527,-1.3527,-1.3992,-1.4996,-1.6776,-1.8008,-1.874,-1.9707,-2.001,-1.9756,-2.0019,-2.0146,-2.0166,-2.0478,-2.0605,-2.0605,-2.0605,-2.0605,-2.0605,-2.0605,-2.0605,-2.0605,-2.0605,-2.0605,-2.0605,-2.0605,-2.0605,-2.0635,-2.0752,-2.0732,-2.0664,-2.0987,-2.0967,-2.0898,-2.1338,-2.126,-2.1143,-2.1396,-2.125,-2.1036,-2.084,-2.0801,-2.0762,-2.0635,-2.0605,-2.0605,-2.0605,-2.0605,-2.0605,-2.0605,-2.0605,-2.0605,-2.0605,-2.0605,-2.0605,-2.0605,-2.0605,-2.0605,-2.0605,-2.0605,-2.0605,-2.0605,-2.0605,-2.0233,-1.9382,-1.9287,-1.8906,-1.8047,-1.8008,-1.8008,-1.8008,-1.8008,-1.8008,-1.8008,-1.8008,-1.8008,-1.8008,-1.8008,-1.8008,0.0,0.0,0.0,0.0,0.0,0.0,0.0,0.0,0.0,0.0,0.0,0.0,0.0,0.0,0.0,0.0,0.0,0.0,0.0,0.0,0.0,0.0,0.0,0.0,0.0,0.0,0.0,0.0,0.0,0.0,-1.3213,-1.3213,-1.3213,-1.3213,-1.3213,-1.3817,-1.5134,-1.6158,-1.7204,-1.8239,-1.9227,-1.9561,-1.9297,-1.958,-1.9707,-1.9727,-2.0156,-2.0468,-2.0605,-2.0605,-2.0605,-2.0605,-2.0605,-2.0605,-2.0605,-2.0605,-2.0605,-2.0605,-2.0605,-2.0605,-2.0605,-2.0605,-2.0605,-2.0605,-2.0605,-2.0605,-2.0664,-2.0928,-2.0791,-2.0674,-2.0937,-2.0791,-2.0605,-2.0605,-2.0605,-2.0605,-2.0605,-2.0605,-2.0605,-2.0605,-2.0605,-2.0605,-2.0605,-2.0605,-2.0605,-2.0605,-2.0605,-2.0605,-2.0605,-2.0605,-2.0605,-2.0605,-2.0605,-2.0605,-2.0605,-2.0605,-2.0233,-1.9382,-1.9287,-1.8906,-1.8047,-1.8008,-1.8008,-1.8008,-1.8008,-1.8008,-1.8008,-1.8008,-1.8008,-1.8008,-1.8008,-1.8008,0.0,0.0,0.0,0.0,0.0,0.0,0.0,0.0,0.0,0.0,0.0,0.0,0.0,0.0,0.0,0.0,0.0,0.0,0.0,0.0,0.0,0.0,0.0,0.0,0.0,0.0,0.0,0.0,0.0,-1.3186,-1.3186,-1.3186,-1.3186,-1.3186,-1.3186,-1.4126,-1.6119,-1.6165,-1.7191,-1.9212,-1.9258,-1.9268,-1.9248,-1.9268,-1.9268,-1.9287,-1.9717,-2.0137,-2.0566,-2.0595,-2.0605,-2.0605,-2.0605,-2.0605,-2.0605,-2.0605,-2.0605,-2.0605,-2.0605,-2.0605,-2.0605,-2.0605,-2.0605,-2.0605,-2.0605,-2.0605,-2.0605,-2.0605,-2.0605,-2.0605,-2.0605,-2.0605,-2.0605,-2.0605,-2.0605,-2.0605,-2.0605,-2.0605,-2.0605,-2.0605,-2.0605,-2.0605,-2.0605,-2.0605,-2.0605,-2.0605,-2.0605,-2.0605,-2.0605,-2.0605,-2.0605,-2.0605,-2.0605,-2.0605,-2.0605,-2.0595,-2.0224,-1.9336,-1.9277,-1.8887,-1.8047,-1.8008,-1.8008,-1.8008,-1.8008,-1.8008,-1.8008,-1.8008,-1.8008,-1.8008,-1.8008,-1.8008,-0.3893,0.0,0.0,0.0,0.0,0.0,0.0,0.0,0.0,0.0,0.0,0.0,0.0,0.0,0.0,0.0,0.0,0.0,0.0,0.0,0.0,0.0,0.0,0.0,0.0,0.0,0.0,0.0,-1.2552,-1.2552,-1.2552,-1.2552,-1.2552,-1.2552,-1.2552,-1.3138,-1.4375,-1.5421,-1.6403,-1.7369,-1.8334,-1.8652,-1.8379,-1.8682,-1.8783,-1.8812,-1.9268,-1.9531,-1.9725,-2.0351,-2.0605,-2.0605,-2.0605,-2.0605,-2.0605,-2.0605,-2.0605,-2.0605,-2.0605,-2.0605,-2.0605,-2.0605,-2.0605,-2.0605,-2.0605,-2.0605,-2.0605,-2.0605,-2.0605,-2.0605,-2.0605,-2.0605,-2.0605,-2.0605,-2.0605,-2.0605,-2.0605,-2.0605,-2.0605,-2.0605,-2.0605,-2.0605,-2.0605,-2.0605,-2.0605,-2.0605,-2.0605,-2.0605,-2.0605,-2.0605,-2.0605,-2.0605,-2.0605,-2.0605,-2.0605,-2.0273,-1.9863,-1.9316,-1.8994,-1.8539,-1.8037,-1.8008,-1.8008,-1.8008,-1.8008,-1.8008,-1.8008,-1.8008,-1.8008,-1.8008,-1.8008,-1.8008,0.0,0.0,0.0,0.0,0.0,0.0,0.0,0.0,0.0,0.0,0.0,0.0,0.0,0.0,0.0,0.0,0.0,0.0,0.0,0.0,0.0,0.0,0.0,0.0,0.0,0.0,0.0,-1.2305,-1.2305,-1.2305,-1.2305,-1.2305,-1.2305,-1.2305,-1.2305,-1.2945,-1.4307,-1.5153,-1.6085,-1.7182,-1.7966,-1.8217,-1.8018,-1.8227,-1.8344,-1.8364,-1.8828,-1.8798,-1.851,-1.9597,-2.0067,-2.0087,-2.0225,-2.0293,-2.0312,-2.0537,-2.0605,-2.0605,-2.0605,-2.0605,-2.0605,-2.0605,-2.0605,-2.0605,-2.0605,-2.0605,-2.0605,-2.0605,-2.0605,-2.0605,-2.0605,-2.0605,-2.0605,-2.0605,-2.0605,-2.0605,-2.0605,-2.0605,-2.0605,-2.0605,-2.0605,-2.0605,-2.0605,-2.0605,-2.0605,-2.0605,-2.0605,-2.0605,-2.0605,-2.0605,-2.0605,-2.0605,-2.0605,-2.0537,-2.0312,-2.0059,-1.9658,-1.9053,-1.8744,-1.8412,-1.8027,-1.8008,-1.8008,-1.8008,-1.8008,-1.8008,-1.8008,-1.8008,-1.8008,-1.8008,-1.8008,-1.8008,0.0,0.0,0.0,0.0,0.0,0.0,-0.6357,-0.62,0.0,0.0,0.0,0.0,0.0,0.0,0.0,0.0,0.0,0.0,0.0,0.0,0.0,0.0,0.0,0.0,0.0,-1.1905,-1.1942,-1.2058,-1.2168,-1.2218,-1.2251,-1.2258,-1.2271,-1.2305,-1.2305,-1.3127,-1.4879,-1.5092,-1.6053,-1.7691,-1.7906,-1.8008,-1.8008,-1.7906,-1.7828,-1.7857,-1.811,-1.7769,-1.7072,-1.8425,-1.9044,-1.918,-1.9709,-1.9883,-1.9902,-2.0429,-2.0576,-2.0537,-2.0586,-2.0605,-2.0605,-2.0605,-2.0605,-2.0605,-2.0605,-2.0605,-2.0605,-2.0605,-2.0605,-2.0605,-2.0605,-2.0605,-2.0605,-2.0605,-2.0605,-2.0605,-2.0605,-2.0605,-2.0605,-2.0605,-2.0605,-2.0605,-2.0605,-2.0605,-2.0605,-2.0605,-2.0605,-2.0605,-2.0605,-2.0605,-2.0586,-2.0537,-2.0537,-2.0361,-1.9883,-1.9805,-1.9416,-1.8646,-1.8559,-1.8364,-1.8027,-1.8008,-1.8008,-1.8008,-1.8008,-1.8008,-1.8008,-1.8008,-1.8008,-1.8008,-1.8008,-1.8008,0.0,0.0,0.0,0.0,0.0,0.0,0.0,-0.477,0.0,0.0,0.0,0.0,0.0,0.0,0.0,0.0,0.0,0.0,0.0,0.0,0.0,0.0,0.0,0.0,0.0,-0.9491,-0.9779,-1.0466,-1.1172,-1.1703,-1.198,-1.1986,-1.2094,-1.2291,-1.2305,-1.2482,-1.2879,-1.4414,-1.5376,-1.5763,-1.726,-1.8008,-1.7974,-1.7217,-1.6888,-1.6853,-1.6158,-1.5769,-1.5671,-1.6695,-1.7548,-1.8276,-1.9447,-1.9707,-1.9502,-2.0321,-2.038,-2.0088,-2.0478,-2.0605,-2.0605,-2.0605,-2.0605,-2.0605,-2.0605,-2.0605,-2.0605,-2.0605,-2.0605,-2.0605,-2.0605,-2.0605,-2.0605,-2.0605,-2.0605,-2.0605,-2.0605,-2.0605,-2.0605,-2.0605,-2.0605,-2.0605,-2.0605,-2.0605,-2.0605,-2.0605,-2.0605,-2.0605,-2.0605,-2.0605,-2.0468,-2.0078,-2.0039,-1.9873,-1.9443,-1.9092,-1.8783,-1.8617,-1.8286,-1.8096,-1.8018,-1.8008,-1.8008,-1.8008,-1.8008,-1.8008,-1.8008,-1.8008,-1.8008,-1.8008,-1.8008,-1.8008,0.0,0.0,0.0,-0.5469,0.0,0.0,0.0,0.0,-0.4609,0.0,0.0,0.0,0.0,0.0,0.0,0.0,0.0,0.0,0.0,0.0,0.0,0.0,0.0,0.0,0.0,-0.9179,-0.9811,-1.0695,-1.1149,-1.1455,-1.1637,-1.165,-1.1784,-1.2078,-1.2084,-1.2616,-1.373,-1.47,-1.5658,-1.6585,-1.7079,-1.7285,-1.7285,-1.6324,-1.5895,-1.586,-1.5411,-1.4914,-1.4522,-1.5508,-1.5879,-1.6035,-1.8356,-1.8851,-1.8373,-1.9538,-1.9922,-1.9941,-2.0166,-2.0381,-2.0518,-1.9962,-2.0157,-2.0489,-1.9962,-2.0167,-2.0605,-2.0605,-2.0605,-2.0605,-2.0605,-2.0605,-2.0605,-2.0605,-2.0605,-2.0605,-2.0605,-2.0605,-2.0605,-2.0605,-2.0605,-2.0605,-2.0605,-2.0605,-2.0605,-2.0605,-2.0605,-2.0605,-2.0605,-2.0419,-2.0156,-1.9941,-1.9727,-1.9424,-1.8994,-1.8724,-1.851,-1.8295,-1.8125,-1.8008,-1.8008,-1.8008,-1.8008,-1.8008,-1.8008,-1.8008,-1.8008,-1.8008,-1.8008,-1.7974,-1.7501,-1.7535,0.0,0.0,0.0,0.0,0.0,-0.4796,0.0,0.0,0.0,-0.5171,0.0,0.0,0.0,0.0,0.0,0.0,0.0,0.0,0.0,0.0,0.0,0.0,0.0,0.0,0.0,-0.8877,-0.969,-1.0458,-1.0752,-1.098,-1.1057,-1.1241,-1.1476,-1.177,-1.1784,-1.2657,-1.4457,-1.4706,-1.5591,-1.708,-1.6575,-1.6315,-1.628,-1.534,-1.4914,-1.4914,-1.4736,-1.4171,-1.3528,-1.47,-1.4486,-1.3731,-1.6866,-1.7565,-1.6973,-1.8265,-1.8908,-1.9136,-1.9212,-1.9516,-1.9732,-1.878,-1.9256,-2.0091,-1.9492,-1.9923,-2.0605,-2.0605,-2.0605,-2.0605,-2.0605,-2.0605,-2.0605,-2.0605,-2.0605,-2.0605,-2.0605,-2.0605,-2.0605,-2.0605,-2.0605,-2.0605,-2.0605,-2.0605,-2.0605,-2.0605,-2.0537,-2.0478,-2.0478,-2.0059,-1.9756,-1.9678,-1.9365,-1.8984,-1.852,-1.8481,-1.8334,-1.8037,-1.8008,-1.8008,-1.8008,-1.8008,-1.8008,-1.8008,-1.8008,-1.8008,-1.8008,-1.8008,-1.7906,-1.7716,-1.6957,-1.6922,0.0,0.0,0.0,0.0,-0.554,0.0,0.0,0.0,-0.4634,-0.4622,0.0,0.0,0.0,0.0,0.0,0.0,0.0,0.0,0.0,0.0,0.0,0.0,0.0,0.0,0.0,0.0,-0.693,-0.7227,-0.8488,-0.9464,-0.9874,-1.0638,-1.1176,-1.147,-1.1442,-1.1593,-1.1827,-1.2961,-1.3627,-1.3836,-1.4874,-1.5376,-1.534,-1.4314,-1.3882,-1.381,-1.2989,-1.2549,-1.2592,-1.445,-1.4127,-1.2686,-1.515,-1.5827,-1.5518,-1.6427,-1.6533,-1.6309,-1.666,-1.7026,-1.725,-1.6835,-1.7623,-1.896,-2.0091,-2.0489,-2.0605,-2.0605,-2.0605,-2.0605,-2.0605,-2.0605,-2.0605,-2.0605,-2.0605,-2.0605,-2.0605,-2.0605,-2.0605,-2.0605,-2.0605,-2.0605,-2.0605,-2.0605,-2.0605,-2.0605,-2.0234,-1.999,-1.999,-1.9619,-1.9209,-1.8783,-1.8705,-1.851,-1.8081,-1.8076,-1.8057,-1.8018,-1.8008,-1.8008,-1.8008,-1.8008,-1.8008,-1.8008,-1.8008,-1.8008,-1.8008,-1.8008,-1.7569,-1.674,-1.6636,-1.6219,0.0,0.0,0.0,0.0,0.0,0.0,-0.4702,0.0,-0.4566,0.0,0.0,0.0,0.0,0.0,0.0,0.0,0.0,0.0,0.0,0.0,0.0,0.0,0.0,0.0,0.0,0.0,0.0,0.0,0.0,-0.8831,-0.9269,-1.0065,-1.0695,-1.1156,-1.1176,-1.1525,-1.2267,-1.2813,-1.335,-1.3884,-1.4029,-1.4089,-1.4061,-1.3266,-1.2879,-1.2879,-1.2482,-1.2305,-1.2372,-1.3164,-1.3055,-1.2385,-1.3374,-1.3996,-1.4453,-1.5356,-1.5751,-1.5818,-1.6005,-1.6689,-1.7558,-1.7961,-1.8062,-1.8244,-1.9494,-1.9862,-1.9862,-1.9862,-2.0,-2.0185,-2.0185,-2.0419,-2.0605,-2.0605,-2.0605,-2.0605,-2.0605,-2.04,-2.0264,-2.0556,-2.04,-2.0185,-2.0185,-2.0439,-2.0517,-2.0225,-2.0029,-1.9824,-1.958,-1.918,-1.8802,-1.8617,-1.8383,-1.8169,-1.8027,-1.8008,-1.8008,-1.8008,-1.8008,-1.8008,-1.8008,-1.8008,-1.8008,-1.8008,-1.8008,-1.7716,-1.7182,-1.7182,-1.6393,-1.4942,-1.5508,-1.5587,-0.5375,0.0,0.0,0.0,0.0,0.0,0.0,0.0,0.0,0.0,0.0,0.0,0.0,0.0,0.0,0.0,0.0,0.0,0.0,0.0,0.0,0.0,0.0,0.0,0.0,0.0,0.0,0.0,0.0,0.0,-0.8491,-0.9327,-1.0091,-1.0742,-1.0835,-1.1329,-1.2248,-1.2336,-1.2731,-1.3385,-1.296,-1.2786,-1.2758,-1.2368,-1.2184,-1.2184,-1.2265,-1.2305,-1.2335,-1.2592,-1.2519,-1.2342,-1.2592,-1.2952,-1.3419,-1.4127,-1.4607,-1.4849,-1.4849,-1.5503,-1.6547,-1.7694,-1.7509,-1.6991,-1.8147,-1.8709,-1.8912,-1.8912,-1.9132,-1.94,-1.9662,-1.9869,-2.0024,-1.9985,-2.0188,-2.0265,-1.9704,-1.965,-1.9759,-1.9841,-1.98,-1.9746,-1.9746,-2.0098,-2.0244,-1.9805,-1.9639,-1.9453,-1.915,-1.8695,-1.8432,-1.8432,-1.8159,-1.8008,-1.8008,-1.8008,-1.8008,-1.8008,-1.8008,-1.8008,-1.8008,-1.8008,-1.8008,-1.8008,-1.8008,-1.7545,-1.6602,-1.6602,-1.5614,-1.3709,-1.445,-1.4665,0.0,0.0,0.0,-0.5032,0.0,0.0,0.0,0.0,-0.4819,0.0,0.0,0.0,0.0,0.0,0.0,0.0,0.0,0.0,0.0,0.0,0.0,0.0,0.0,0.0,0.0,0.0,0.0,0.0,0.0,0.0,-0.7304,-0.8425,-0.9377,-1.011,-1.0452,-1.0638,-1.0683,-1.0934,-1.1075,-1.1108,-1.1337,-1.1471,-1.1484,-1.1785,-1.1919,-1.1933,-1.2178,-1.2305,-1.2372,-1.3273,-1.3135,-1.2372,-1.331,-1.3135,-1.2342,-1.2372,-1.2415,-1.2422,-1.2422,-1.2429,-1.2753,-1.44,-1.4736,-1.4757,-1.6083,-1.7188,-1.7933,-1.7933,-1.7942,-1.8175,-1.9078,-1.8929,-1.8534,-1.8418,-1.9155,-1.9383,-1.7454,-1.8244,-1.9051,-1.8156,-1.8711,-1.9307,-1.9307,-1.9658,-1.9795,-1.9375,-1.8909,-1.8637,-1.8627,-1.8256,-1.8037,-1.8037,-1.8018,-1.8008,-1.8008,-1.8008,-1.8008,-1.8008,-1.8008,-1.8008,-1.8008,-1.8008,-1.8008,-1.8008,-1.8008,-1.7545,-1.6602,-1.6602,-1.5614,-1.3709,-1.3745,-1.3273,0.0,0.0,-0.5833,-0.5335,0.0,0.0,0.0,0.0,0.0,0.0,0.0,0.0,0.0,0.0,0.0,0.0,0.0,0.0,0.0,0.0,0.0,0.0,0.0,0.0,0.0,0.0,0.0,0.0,0.0,0.0,0.0,-0.7911,-0.8939,-0.9364,-1.0182,-1.0593,-1.0593,-1.0687,-1.074,-1.0747,-1.1002,-1.1142,-1.1149,-1.1443,-1.1577,-1.159,-1.1891,-1.2053,-1.2067,-1.2583,-1.2592,-1.2342,-1.2666,-1.2592,-1.2305,-1.2305,-1.2305,-1.2372,-1.3025,-1.3237,-1.3419,-1.4652,-1.5009,-1.5009,-1.5485,-1.5852,-1.6114,-1.6114,-1.6285,-1.6584,-1.6914,-1.7055,-1.7097,-1.7068,-1.7843,-1.8396,-1.7701,-1.822,-1.8828,-1.8818,-1.8309,-1.7905,-1.7905,-1.8007,-1.8281,-1.877,-1.8695,-1.85,-1.8252,-1.8096,-1.8008,-1.8008,-1.8008,-1.8008,-1.8008,-1.8008,-1.8008,-1.8008,-1.8008,-1.8008,-1.8008,-1.8008,-1.8008,-1.8008,-1.8008,-1.7226,-1.5685,-1.5685,-1.4657,-1.2769,-1.2769,-1.2592,-0.6054,-0.6112,0.0,-0.5665,-0.5552,0.0,-0.4887,0.0,0.0,0.0,0.0,0.0,0.0,0.0,0.0,0.0,0.0,0.0,0.0,0.0,0.0,0.0,0.0,0.0,0.0,0.0,-0.2914,-0.3735,0.0,0.0,0.0,0.0,-0.844,-0.9222,-0.9995,-1.0486,-1.0593,-1.0593,-1.0593,-1.0593,-1.0787,-1.0868,-1.0881,-1.1142,-1.1295,-1.1409,-1.1737,-1.196,-1.2074,-1.2225,-1.2305,-1.2305,-1.2305,-1.2305,-1.2305,-1.2305,-1.2305,-1.2372,-1.2989,-1.32,-1.331,-1.3947,-1.4163,-1.4163,-1.4163,-1.4414,-1.4665,-1.4665,-1.486,-1.5146,-1.5501,-1.5626,-1.5775,-1.6038,-1.6913,-1.7568,-1.7144,-1.7766,-1.8276,-1.792,-1.7395,-1.6893,-1.6572,-1.65,-1.6821,-1.775,-1.8155,-1.8286,-1.8047,-1.8008,-1.8008,-1.8008,-1.8008,-1.8008,-1.8008,-1.8008,-1.8008,-1.8008,-1.8008,-1.8008,-1.8008,-1.8008,-1.8008,-1.8008,-1.7681,-1.6759,-1.5199,-1.4843,-1.3846,-1.2305,-1.2305,-1.2245]}]]